GFSSW_925_rhum_000.txt.gz
RH
93 94 94 96 96 95 94 93 93 93 83 86 85 85 91 92 94 92 98 74 66 66 88 76 65 60 50 55 41 42 55 60 46 38 31 28 39 32 26 30 28 25 31 36 46
91 90 90 90 92 94 94 92 94 94 92 85 82 84 83 93 96 98 72 69 75 62 85 79 74 57 58 58 46 51 65 56 43 32 30 35 40 36 32 32 27 24 34 45 44
90 88 87 89 89 91 96 96 95 95 92 88 87 85 83 96 86 75 56 60 72 70 86 92 65 61 62 50 49 52 60 49 42 37 34 43 45 34 31 34 28 26 26 36 54
87 88 90 91 92 91 93 95 96 96 94 90 87 90 87 90 91 68 72 67 69 70 79 89 83 63 68 65 53 53 49 45 42 38 41 46 39 39 34 32 28 28 28 33 56
87 90 91 93 93 92 91 93 95 97 95 94 80 81 93 91 76 59 58 62 70 74 75 84 71 64 69 64 58 60 53 49 47 50 51 46 45 40 35 30 29 30 28 30 49
92 91 91 94 94 95 94 94 90 84 96 93 86 84 90 96 59 50 52 56 68 74 76 82 71 55 60 60 60 56 55 54 48 45 39 38 40 34 32 28 28 28 29 28 40
93 94 93 93 92 93 94 92 93 89 78 80 76 82 89 76 57 62 61 50 50 75 72 84 79 49 54 58 54 49 54 51 44 42 43 40 41 40 32 28 30 30 34 29 34
94 86 83 86 83 94 95 93 91 92 78 74 77 87 87 63 55 63 58 63 52 72 77 80 61 53 53 45 42 50 45 59 44 35 35 35 37 33 32 30 30 30 38 44 51
94 89 92 92 92 96 94 87 90 81 93 79 85 82 82 60 66 63 53 67 70 73 84 76 69 62 56 60 53 46 57 56 48 35 37 39 47 31 27 26 26 28 42 46 52
95 91 87 89 93 93 99 87 80 84 79 82 81 88 76 75 66 62 48 55 73 78 79 95 83 78 79 79 87 65 55 52 54 37 38 40 44 33 31 23 26 31 43 52 56
84 82 81 88 87 95 100 100 92 93 82 88 79 78 69 59 64 65 59 59 70 83 93 94 92 95 82 70 61 59 52 61 44 36 36 42 45 37 32 28 29 41 47 52 55
80 90 89 94 98 99 99 87 69 66 90 76 77 74 64 68 81 67 53 74 85 75 78 94 90 69 72 70 62 48 50 52 50 39 37 42 42 37 36 28 30 44 50 50 54
81 81 87 98 99 100 97 72 65 66 85 87 74 77 72 65 79 77 58 69 84 63 83 78 82 62 68 67 63 53 56 56 58 46 41 45 47 41 29 32 41 44 46 50 54
62 76 88 99 100 99 97 89 81 67 99 96 84 77 71 76 83 62 51 62 76 67 74 86 75 75 69 80 69 88 50 45 45 49 58 42 63 47 32 37 44 49 54 56 59
70 73 87 99 92 98 91 89 86 98 96 77 80 58 72 78 74 79 50 57 87 74 75 86 88 91 79 70 69 72 46 48 44 50 48 46 55 49 35 42 45 51 52 57 61
72 66 84 95 98 97 100 96 95 100 95 93 81 79 83 72 76 75 73 74 66 69 64 67 64 75 80 68 58 50 48 44 52 53 67 52 50 53 42 40 43 46 49 57 63
73 84 90 93 97 96 98 95 99 99 86 93 84 75 75 83 80 78 81 89 83 91 88 66 82 58 57 55 45 49 49 77 65 70 72 49 56 49 34 33 38 45 49 58 64
82 93 96 94 100 82 94 94 100 98 84 71 80 72 84 71 80 75 88 94 86 60 71 86 95 57 39 60 69 58 55 69 71 74 63 53 57 40 35 48 40 42 46 59 66
94 99 99 98 100 95 92 100 99 78 76 80 76 78 90 72 87 87 86 88 75 57 65 81 77 37 33 34 54 56 54 46 61 60 72 62 48 38 42 49 49 49 52 61 65
98 99 97 96 100 95 96 99 95 69 71 67 81 78 96 81 92 93 91 73 73 56 48 56 57 43 34 29 30 42 42 53 63 66 70 62 51 50 34 41 51 54 55 60 62
97 91 98 100 100 97 99 95 85 62 65 67 80 86 77 84 89 91 88 76 58 54 45 46 50 54 39 44 43 39 45 52 55 63 64 65 51 40 35 39 53 53 51 59 63
93 88 100 100 99 95 94 93 65 72 80 75 64 64 70 77 78 88 88 69 55 62 63 50 60 60 48 45 40 36 41 45 61 57 63 61 53 34 42 42 52 51 52 53 58
90 98 100 100 99 99 95 86 73 79 84 82 67 60 54 66 81 78 88 64 65 60 64 59 65 82 68 55 54 47 44 43 52 56 64 60 52 35 42 46 47 49 50 52 58
90 89 100 100 96 88 94 88 92 94 93 72 64 61 57 68 71 85 87 62 57 57 68 53 63 62 72 54 60 62 52 48 46 62 59 58 42 33 37 40 41 41 43 54 68
90 68 72 94 91 75 72 89 95 93 81 62 66 57 63 76 77 84 69 64 53 64 53 50 56 50 47 54 55 55 55 54 51 46 53 46 49 34 34 35 36 39 46 61 72
81 77 73 74 59 60 64 80 75 64 68 67 77 67 57 65 62 81 69 65 62 51 49 52 55 42 40 41 36 43 48 57 50 51 43 52 48 34 43 44 51 51 51 61 68
80 80 57 66 59 55 59 65 61 56 59 62 64 64 58 53 48 57 56 57 56 50 50 44 46 47 51 44 40 38 42 64 54 47 51 57 41 41 54 53 47 48 52 56 63

GFSSW_925_rhum_003.txt.gz
RH
92 91 92 93 95 97 96 94 94 95 90 89 89 86 79 90 95 98 99 65 57 59 77 79 79 68 55 57 44 43 52 57 48 42 37 27 38 34 29 29 27 24 27 29 40
92 91 88 88 88 93 96 96 92 94 92 90 85 85 86 90 98 93 83 65 74 48 74 91 79 63 61 60 52 49 62 55 43 37 33 31 41 38 35 34 29 25 25 32 35
89 90 90 89 89 90 92 96 95 96 96 92 85 78 87 95 91 79 66 55 66 75 74 88 92 67 67 59 55 55 58 51 44 39 34 40 45 39 35 39 29 26 24 26 39
88 87 87 90 91 92 92 95 90 85 91 88 85 84 94 90 91 70 74 79 81 80 73 81 91 77 74 67 53 57 51 47 44 41 43 46 44 43 37 32 28 29 29 29 26
91 90 91 90 92 94 93 93 96 96 93 92 81 83 95 96 77 68 60 58 71 79 78 80 83 71 75 65 60 58 54 51 47 49 52 50 49 44 37 31 28 30 29 27 25
93 93 94 89 90 94 94 95 93 95 91 85 85 88 88 96 61 57 57 55 53 77 78 77 78 57 65 62 60 58 53 48 52 48 45 43 43 38 35 31 28 28 28 28 29
94 95 95 82 94 91 92 93 92 94 87 77 80 87 86 77 58 60 59 58 50 68 78 78 81 52 56 63 57 58 60 55 52 46 44 44 45 44 32 30 30 29 30 43 50
96 96 92 82 86 90 96 95 93 87 75 76 78 87 84 66 59 60 57 61 58 50 74 74 78 69 54 48 52 60 53 71 54 39 37 36 46 32 31 34 30 29 42 49 52
95 93 94 87 90 87 91 95 91 90 81 79 83 83 84 60 72 57 55 62 70 72 78 75 85 76 60 62 61 59 81 68 60 44 44 41 43 35 28 28 27 30 44 47 49
92 89 89 76 89 89 98 99 84 88 88 83 83 88 81 76 68 63 58 50 72 82 80 81 95 87 75 76 91 71 66 55 55 42 42 42 43 34 32 32 28 32 47 48 51
87 84 82 78 84 91 97 100 98 96 84 81 80 75 69 62 66 68 62 60 65 86 86 85 89 95 76 71 61 55 53 52 56 40 39 43 42 35 33 33 33 42 48 49 51
84 81 87 83 88 96 100 94 74 64 88 76 74 69 65 70 80 69 59 67 85 87 72 81 92 74 71 73 61 59 59 59 51 42 40 44 42 35 37 34 31 42 49 48 51
82 82 88 73 91 99 99 87 72 70 85 84 70 78 77 66 76 76 60 65 81 67 73 79 79 61 68 82 74 63 63 60 60 49 43 46 44 40 32 34 43 48 49 49 51
81 79 81 77 98 99 100 95 85 78 100 90 91 73 72 72 82 64 58 62 74 64 62 85 73 69 73 76 72 84 52 52 50 58 65 42 53 46 36 36 46 50 51 53 56
73 80 80 82 97 97 96 93 92 87 97 82 84 59 70 66 69 83 58 61 79 63 65 89 84 76 82 74 68 75 60 59 51 53 50 49 50 43 37 39 45 49 54 57 58
86 72 80 86 98 92 99 100 91 99 96 98 81 89 86 77 70 76 68 66 64 59 55 89 71 74 69 66 64 49 57 62 52 50 61 51 47 47 40 34 45 47 50 57 59
90 84 90 82 96 96 99 92 100 98 91 98 94 85 75 86 77 77 78 81 94 89 82 89 86 85 84 65 55 51 71 98 96 74 64 53 54 43 38 34 37 42 46 56 59
98 93 90 88 95 96 89 96 99 83 87 73 78 78 80 74 84 77 78 88 86 78 71 97 99 73 77 81 73 74 72 78 76 69 59 56 56 36 33 39 40 41 43 58 61
95 94 96 87 100 99 93 100 89 84 78 78 77 81 77 71 80 82 82 74 78 85 64 79 84 52 56 51 58 78 80 48 62 63 68 62 50 38 37 44 47 47 50 59 61
92 95 96 91 100 93 99 99 93 87 70 62 75 70 80 76 99 78 83 61 76 72 62 69 69 52 35 40 35 56 46 74 59 66 71 64 55 48 35 37 52 51 50 60 62
100 99 95 100 96 97 100 97 90 79 56 62 75 92 67 86 95 87 78 78 76 70 60 52 58 58 39 44 48 52 75 57 53 61 64 60 48 40 36 36 48 50 51 56 60
96 94 99 100 98 94 96 88 82 69 66 73 70 74 83 73 82 80 86 75 68 62 58 48 60 66 49 48 40 40 48 49 57 61 63 58 51 34 41 44 49 50 51 54 58
93 93 100 98 98 96 91 91 86 78 76 78 70 63 69 80 92 81 80 66 65 60 64 54 65 77 62 54 57 49 42 44 52 54 62 58 50 35 43 49 51 50 50 50 58
95 98 100 98 97 99 96 92 91 84 81 80 62 58 66 75 73 90 83 69 68 55 59 49 63 69 71 63 61 64 53 49 44 57 58 55 42 34 36 45 47 45 48 50 58
98 90 84 98 97 96 94 90 91 91 92 85 77 63 62 84 86 89 87 66 61 72 55 48 57 52 50 51 52 54 54 51 50 43 47 45 49 40 35 44 43 38 43 58 70
94 86 84 76 66 98 92 98 89 94 93 83 73 62 61 74 75 89 77 69 64 53 56 54 56 45 45 48 48 56 55 51 48 50 50 48 50 39 45 50 54 53 55 62 70
83 83 70 64 60 64 72 90 92 86 85 63 63 57 63 58 58 63 56 59 57 54 55 57 50 53 57 44 40 45 46 60 51 54 44 53 40 46 56 55 54 56 55 58 64

GFSSW_925_rhum_006.txt.gz
RH
89 91 91 90 92 90 86 85 86 93 93 87 90 90 85 88 93 94 78 62 60 53 77 67 69 64 59 47 40 33 39 39 35 35 28 21 28 25 25 26 19 18 18 20 32
89 92 91 89 88 89 90 94 96 89 83 86 88 88 88 86 91 86 80 79 68 66 58 62 56 58 54 49 45 41 42 36 30 27 28 26 30 31 31 24 22 18 17 18 21
89 90 90 91 90 92 93 93 92 92 96 87 82 84 81 92 82 72 72 82 84 82 66 58 77 61 59 46 45 42 43 31 32 30 28 32 32 31 34 32 22 22 18 18 19
90 89 87 89 91 93 88 94 96 89 85 91 82 84 86 84 82 69 76 80 82 82 70 54 76 76 69 60 41 47 39 33 32 33 35 36 32 36 33 33 24 23 22 21 19
93 92 89 92 86 83 81 85 92 96 87 88 86 87 95 93 67 67 60 57 61 75 73 53 77 63 67 55 44 49 36 36 34 35 36 36 39 36 35 27 24 24 23 21 19
94 94 93 93 93 74 72 74 92 92 95 85 86 87 79 87 59 58 58 60 53 64 74 56 62 49 44 48 50 41 40 38 33 37 36 41 36 37 28 23 23 22 23 22 25
94 96 87 87 85 96 74 84 92 93 95 88 83 90 76 65 57 57 56 54 55 54 60 59 55 65 45 55 44 41 49 42 38 39 38 36 39 33 25 20 22 21 22 31 35
93 96 93 88 81 81 79 88 92 90 89 84 84 88 71 62 61 62 57 57 58 50 58 57 59 78 82 42 48 55 51 53 36 39 37 35 40 26 22 21 21 21 26 32 36
93 93 88 90 84 75 72 84 91 88 90 88 82 75 69 66 64 60 56 52 58 54 50 60 67 86 69 73 67 58 61 53 41 37 37 38 36 23 22 22 21 20 26 30 33
92 89 87 87 85 84 84 90 93 92 91 87 82 77 61 63 57 58 58 52 55 57 64 71 80 96 85 80 82 63 56 44 46 36 35 35 37 26 22 23 22 21 27 30 32
85 85 83 83 86 81 87 98 97 99 88 75 66 54 57 54 65 60 59 54 57 67 85 65 91 95 70 73 48 38 43 48 39 33 38 38 36 28 26 25 24 23 28 31 33
83 87 83 81 88 84 97 97 79 69 95 71 65 56 62 60 66 56 59 57 66 84 83 68 93 67 76 62 57 44 48 48 35 36 36 38 40 33 26 25 23 24 28 31 35
85 87 82 86 87 87 99 98 88 83 92 83 75 71 61 59 65 62 57 51 63 80 89 80 77 61 82 62 60 50 50 42 42 43 41 38 38 31 25 25 26 24 28 30 33
78 82 80 88 90 94 99 100 92 84 100 90 91 73 68 61 71 48 52 47 63 80 88 59 58 81 75 70 58 57 43 45 51 63 57 38 46 32 24 26 29 32 33 34 36
74 80 83 76 96 94 98 100 93 86 95 67 82 56 55 60 49 58 54 47 63 80 83 77 81 89 84 68 49 49 47 49 54 60 55 47 45 30 28 27 31 33 33 36 37
93 85 76 93 98 98 100 92 82 97 92 94 83 86 81 65 52 60 67 46 59 69 66 52 83 80 56 54 50 48 49 52 46 52 64 41 41 31 24 22 26 33 35 38 39
100 91 87 89 76 100 99 92 100 97 85 99 98 94 76 68 56 66 74 74 94 98 99 81 90 90 55 80 63 50 61 98 92 83 60 38 41 28 24 24 24 32 35 37 40
100 99 90 80 92 100 94 97 99 84 95 84 86 91 84 61 56 70 65 64 72 86 66 99 99 96 63 63 81 62 53 53 63 59 46 43 42 25 25 26 24 25 31 36 40
100 97 99 90 99 99 93 100 84 92 86 95 76 90 68 60 55 78 58 55 70 76 76 96 99 80 67 60 55 85 81 39 44 46 44 37 34 28 28 30 31 28 34 40 42
92 91 87 88 99 96 99 99 95 84 84 60 59 54 59 57 90 81 55 40 58 63 60 63 96 70 67 67 62 64 52 69 50 58 54 40 39 30 25 27 32 31 36 40 42
92 97 89 95 99 94 100 99 90 76 70 46 48 52 48 53 85 61 52 49 46 51 57 53 54 74 60 75 76 65 83 66 44 43 42 40 33 24 26 26 29 29 31 38 44
87 98 100 100 97 93 98 93 86 85 70 39 40 40 39 48 69 86 51 57 34 52 64 57 40 85 65 46 43 47 52 50 56 54 43 39 32 25 26 29 30 30 32 38 39
77 93 100 89 98 96 86 90 86 84 65 45 54 46 40 49 74 73 57 40 44 57 57 43 44 63 75 58 46 56 48 49 38 37 43 43 35 26 30 34 35 32 35 38 41
78 95 99 98 88 96 94 91 93 71 56 55 54 53 54 54 45 57 60 59 59 50 60 44 44 38 51 47 42 53 46 47 48 50 41 37 30 28 30 35 36 34 33 36 42
79 80 76 91 95 96 95 89 88 89 74 78 61 56 46 61 70 65 57 70 58 63 59 52 47 44 44 42 39 42 48 43 46 42 43 35 35 27 24 31 31 32 32 34 39
69 75 73 73 78 90 96 94 90 93 83 88 93 56 49 55 58 70 70 64 68 63 58 49 53 40 44 48 41 42 40 44 44 40 35 32 33 25 25 28 31 30 32 37 42
82 79 65 55 57 80 88 92 89 84 93 89 74 57 57 54 44 49 51 48 50 57 61 52 47 46 49 41 42 52 42 41 38 33 32 38 30 29 36 34 33 36 39 41 44

GFSSW_925_rhum_009.txt.gz
RH
91 91 92 90 88 84 84 81 83 90 90 88 89 92 89 88 94 90 70 55 54 56 74 56 48 50 49 44 36 32 39 39 31 28 25 20 23 19 20 23 18 16 16 16 19
92 89 91 90 89 89 85 79 79 82 76 83 83 86 88 90 81 81 71 73 72 82 59 46 42 38 50 45 40 41 40 34 24 22 24 21 24 25 27 23 21 18 14 16 16
92 90 90 89 90 90 92 87 83 80 87 85 82 88 88 89 75 65 65 74 81 87 67 50 46 56 49 44 41 40 43 28 25 23 24 25 26 23 29 30 23 20 18 17 18
90 91 90 88 90 92 89 87 81 84 82 90 83 84 82 76 66 62 74 75 77 79 66 51 43 69 59 54 39 42 34 31 27 25 29 31 26 28 28 27 22 23 21 20 20
91 93 93 91 93 92 93 88 80 80 94 88 86 86 84 78 61 64 58 55 53 71 64 51 43 49 64 46 46 45 34 29 28 26 28 29 31 31 30 24 22 20 21 21 20
91 93 95 94 96 94 85 86 91 85 77 90 90 85 76 74 47 51 55 53 50 53 63 57 43 35 42 45 45 40 36 33 29 30 29 33 31 28 27 23 21 20 18 19 20
91 93 92 84 90 96 96 89 92 79 74 88 89 86 65 56 44 47 48 46 45 44 45 54 46 41 40 55 34 39 44 37 34 30 30 30 36 33 25 22 18 16 15 21 25
90 94 93 85 85 83 90 95 92 82 83 83 81 78 83 51 50 50 48 46 45 44 43 44 48 44 55 60 57 44 50 64 37 32 29 34 45 25 19 19 17 17 18 24 28
92 95 94 88 79 85 76 81 86 90 92 86 78 74 68 56 56 48 46 42 40 45 42 43 49 60 63 96 85 65 66 59 45 29 32 36 38 24 20 19 19 16 18 22 27
95 90 78 81 81 80 81 83 92 92 91 87 70 73 53 55 46 50 48 47 41 41 45 47 65 78 77 84 91 68 68 45 50 31 33 36 36 28 22 20 20 17 17 23 25
86 86 78 74 80 92 89 87 90 97 97 84 68 51 46 43 50 54 47 48 45 46 66 55 84 87 67 60 69 51 57 45 38 29 32 36 34 26 23 22 22 19 19 23 26
88 86 80 78 76 87 94 92 75 71 95 75 57 56 47 52 58 52 47 54 53 65 53 71 90 56 46 57 64 59 50 43 35 32 34 32 33 26 24 25 22 19 19 23 28
84 83 79 78 86 93 98 82 89 76 96 88 78 67 52 56 58 51 47 49 48 58 56 76 72 49 46 66 76 63 65 44 43 36 34 35 41 35 28 24 22 20 19 23 27
83 84 78 87 90 72 81 90 98 95 100 88 94 84 72 76 86 49 45 47 50 56 52 66 58 71 50 67 79 72 54 37 40 46 51 36 41 25 24 24 24 21 22 26 27
92 76 80 80 71 87 96 100 99 90 96 66 93 67 68 87 48 47 38 50 59 56 87 78 74 81 63 71 71 72 46 40 45 46 59 55 49 30 23 24 25 22 25 27 28
99 87 81 95 90 83 98 99 86 98 92 89 82 92 86 90 60 44 45 43 43 55 88 60 61 67 58 63 81 63 52 55 50 50 62 41 42 29 26 23 21 24 26 30 30
100 100 85 71 65 97 92 88 99 97 80 98 98 94 90 94 73 58 65 72 90 98 99 87 95 84 74 94 92 72 77 92 79 76 52 31 37 29 21 20 19 26 28 30 32
99 100 95 77 85 99 93 98 98 68 84 91 95 96 100 82 63 54 65 73 64 78 98 99 97 90 72 92 92 83 76 56 63 57 44 34 43 28 21 20 18 23 27 30 34
98 100 100 94 89 99 95 100 90 83 89 95 95 100 100 91 43 47 58 66 53 70 100 87 91 76 84 72 65 81 77 39 41 34 37 38 30 24 23 25 22 24 28 33 34
98 97 91 88 89 95 99 95 95 78 90 86 69 59 69 69 51 54 66 55 49 51 72 91 98 88 92 75 83 70 41 56 40 50 46 36 30 29 26 25 26 24 29 33 34
90 94 71 86 99 98 97 96 91 77 81 82 49 46 40 45 47 56 54 37 39 41 71 92 95 94 92 82 87 90 68 54 36 37 38 39 32 21 22 22 26 24 27 32 35
87 96 99 99 98 94 96 95 84 84 84 65 33 34 33 34 48 53 46 35 28 42 91 79 93 100 74 46 50 63 62 45 45 48 37 36 32 20 21 24 24 24 26 30 35
86 76 100 91 98 97 79 93 88 89 83 56 42 33 28 34 47 53 48 32 36 36 74 55 67 100 94 61 64 74 50 47 42 36 39 37 33 21 23 28 26 25 26 31 36
70 97 100 98 82 90 94 94 95 76 71 47 41 32 36 39 35 49 52 39 41 36 60 50 48 49 49 45 59 73 61 45 44 46 40 35 30 25 26 28 29 28 28 32 35
75 86 71 96 94 92 92 88 95 93 72 49 61 42 43 41 41 50 47 47 42 44 48 55 50 37 31 33 40 45 52 52 51 44 43 32 31 24 22 25 26 27 29 32 36
76 57 76 84 73 80 92 92 95 86 70 74 86 48 39 39 35 41 44 46 56 54 48 50 57 41 43 40 35 40 39 42 44 42 39 32 32 22 20 20 24 26 28 31 34
85 65 60 54 59 71 76 84 86 81 86 61 73 60 48 36 32 38 34 42 44 48 60 59 62 46 48 40 43 50 37 37 38 35 34 39 31 24 27 26 26 26 28 30 32

GFSSW_925_rhum_012.txt.gz
RH
91 91 90 91 90 88 90 94 92 87 87 94 98 93 94 93 92 96 80 60 64 56 45 52 47 44 49 54 45 36 57 54 44 39 32 21 23 20 19 24 22 20 18 20 18
92 92 89 91 91 90 91 91 92 90 86 84 89 84 85 90 87 80 74 71 74 68 63 48 42 36 46 55 51 51 61 50 32 28 28 23 23 24 27 28 26 23 18 15 17
93 93 91 90 89 91 92 94 93 93 85 90 80 78 86 83 80 64 65 72 77 82 75 58 46 44 60 48 51 50 61 41 30 26 24 26 29 24 29 35 29 27 27 25 22
92 91 92 91 89 92 92 93 93 94 94 88 88 78 75 80 75 64 64 66 72 76 74 62 49 54 68 62 44 53 42 39 36 29 28 31 28 31 29 31 27 26 26 26 25
92 92 93 93 92 94 92 93 92 91 94 93 88 84 83 71 58 55 53 49 55 71 71 60 57 48 62 51 48 51 44 35 31 31 30 29 35 35 32 28 26 26 26 27 25
97 93 94 92 93 94 92 88 94 93 95 89 90 86 83 77 45 47 54 53 49 50 62 62 56 42 43 48 55 46 45 46 37 31 30 34 34 34 32 27 27 26 25 21 22
97 94 91 90 87 92 96 94 92 93 94 95 93 92 70 59 41 42 47 50 48 43 42 58 57 62 41 47 42 43 55 46 44 35 33 32 39 38 30 27 28 27 19 23 25
91 95 89 87 87 86 88 84 89 88 81 91 81 79 78 57 54 46 45 45 45 42 41 41 44 54 60 50 61 65 56 76 47 39 35 36 49 35 28 28 28 20 17 28 29
81 90 93 83 86 84 84 75 72 73 90 86 83 73 68 52 56 50 46 44 40 38 40 39 41 59 61 71 87 75 78 72 63 40 37 38 46 35 30 27 26 21 22 28 32
81 84 91 83 85 84 85 82 72 77 83 87 70 72 60 52 48 50 47 45 42 38 43 48 56 75 78 80 91 77 84 58 67 48 41 42 40 36 30 26 25 23 21 29 33
80 74 88 80 81 84 94 89 87 93 95 75 66 51 43 44 47 46 46 44 45 49 64 54 76 86 77 70 66 61 58 67 46 43 43 41 39 37 31 30 31 28 23 30 36
78 76 85 78 80 82 93 83 72 83 94 82 64 59 46 49 52 47 44 54 59 73 57 69 84 59 54 57 64 62 74 76 51 41 42 38 40 33 32 29 28 28 25 32 40
83 76 84 76 84 86 93 84 79 83 99 90 79 70 59 52 59 51 47 53 59 68 64 76 65 56 51 54 64 63 67 78 71 46 49 40 46 39 30 27 28 28 24 32 37
87 80 84 83 86 77 82 78 83 87 100 92 93 81 67 76 85 48 44 51 57 63 58 64 51 52 59 59 55 67 54 64 74 82 73 44 66 43 34 33 32 29 27 35 36
92 85 83 72 80 74 92 87 95 90 98 80 90 74 68 89 68 66 54 66 66 58 56 78 67 58 64 76 54 65 55 67 70 81 80 61 57 47 31 38 33 29 28 35 36
93 96 81 86 83 92 85 99 84 99 94 89 87 93 92 87 83 70 64 61 54 64 58 71 56 58 60 55 66 53 68 84 79 76 90 81 58 48 36 32 30 28 33 36 37
95 100 84 91 79 96 89 87 99 99 68 96 97 85 81 93 93 90 81 77 80 94 86 92 87 66 75 86 61 66 88 96 100 99 92 46 60 44 24 24 24 27 35 37 40
95 99 97 88 90 89 83 95 99 57 75 90 94 94 100 92 96 94 95 76 62 74 85 86 84 87 79 86 75 81 92 100 97 98 57 38 54 41 24 23 27 29 34 38 42
97 100 100 90 92 86 89 99 79 66 87 95 97 100 97 94 94 95 81 78 61 58 98 97 95 80 69 63 74 80 99 84 83 40 50 49 34 28 29 27 30 34 37 41 42
99 100 100 92 99 96 98 94 76 75 87 92 99 79 74 85 89 74 69 51 57 51 60 93 100 82 82 76 82 86 75 98 83 58 68 55 46 42 37 36 29 37 40 43 43
95 99 90 95 99 98 98 91 72 70 83 95 84 60 53 60 60 52 46 43 48 50 77 93 98 96 81 95 90 97 97 82 66 58 56 58 45 32 32 32 33 34 37 42 44
96 98 98 100 99 97 97 81 86 88 83 88 86 82 40 43 52 54 57 56 39 49 86 90 97 100 99 74 74 77 82 59 56 60 55 49 45 26 30 29 32 31 35 39 42
96 97 100 90 98 97 84 88 92 92 88 90 71 44 30 34 44 41 53 40 53 64 78 94 99 100 99 94 94 92 77 57 56 51 56 48 47 29 34 33 28 33 38 40 44
96 98 100 99 88 87 89 96 97 85 88 81 58 40 36 36 33 53 47 45 43 54 67 86 81 99 98 73 82 89 72 57 59 62 49 42 40 33 37 38 34 34 38 43 45
94 89 80 98 96 94 90 91 96 96 86 74 53 46 38 43 38 40 50 43 46 46 60 83 93 88 61 62 62 64 65 61 60 55 51 38 36 32 36 39 37 36 40 44 46
96 83 87 85 71 81 90 92 95 91 93 76 70 61 60 44 38 44 43 48 48 51 47 52 76 65 49 43 50 63 60 58 54 48 47 46 43 27 27 32 36 39 40 42 44
94 74 70 69 81 88 84 86 87 88 85 79 66 58 67 41 34 28 32 37 43 54 62 62 72 64 58 43 45 54 48 54 54 49 48 54 41 30 30 30 35 37 39 42 44

GFSSW_925_rhum_015.txt.gz
RH
92 92 91 92 92 92 91 92 95 89 85 89 99 100 96 97 94 99 90 61 70 62 53 45 42 44 44 59 58 52 74 74 62 50 41 31 24 20 20 24 24 22 22 23 28
91 93 93 92 92 92 92 94 94 95 81 81 85 88 94 95 94 91 68 62 74 77 64 60 58 49 57 61 68 72 84 68 44 41 38 32 26 24 27 30 29 28 24 22 29
91 94 94 92 92 90 93 90 94 94 94 86 79 77 88 86 86 79 60 76 78 79 76 73 66 57 62 56 69 68 76 56 44 38 35 33 31 26 30 34 33 31 29 26 24
92 93 93 94 93 92 94 93 93 93 91 88 91 79 78 81 89 64 60 67 71 76 82 75 69 66 69 81 58 79 60 55 50 44 41 38 30 33 33 34 30 32 30 28 29
93 95 94 94 95 88 93 86 90 94 92 90 88 84 81 87 83 55 48 49 55 71 74 77 79 71 69 65 64 70 58 50 45 44 40 37 39 37 36 32 30 29 30 32 32
95 97 95 93 89 88 87 85 88 88 85 77 83 85 86 95 51 50 53 51 52 68 75 75 74 62 65 58 58 56 54 52 46 44 42 39 39 39 37 33 33 31 32 34 30
88 94 91 85 87 86 87 95 92 88 87 82 83 89 88 74 47 48 47 53 52 49 46 67 64 69 68 66 52 57 70 56 55 47 50 43 44 43 35 33 34 34 32 28 31
74 85 89 84 81 81 82 87 94 91 84 80 73 91 93 56 56 50 50 50 49 46 45 42 44 53 69 64 64 75 70 81 55 51 47 46 59 41 35 37 38 36 33 34 33
80 81 88 87 75 85 81 86 76 79 78 84 79 86 85 52 63 59 51 46 44 42 41 40 42 59 65 79 85 85 87 84 69 50 50 47 54 42 36 36 40 37 32 38 38
84 81 86 89 75 82 86 92 77 74 82 94 81 75 68 57 53 56 52 49 48 45 48 54 63 81 90 88 86 78 79 76 82 59 54 60 53 43 39 37 39 36 29 42 42
80 88 84 91 74 79 90 87 88 92 94 87 78 60 44 50 47 52 51 50 50 56 72 63 85 84 82 78 72 66 74 77 70 53 57 55 56 47 39 38 41 35 32 45 47
77 86 78 91 72 81 91 88 76 81 94 81 72 66 53 49 60 52 48 62 64 77 73 76 87 67 62 67 75 78 88 84 67 60 60 58 55 44 40 38 39 38 37 48 50
80 84 82 88 79 91 90 77 80 78 93 81 81 78 66 58 66 60 52 58 69 82 79 84 68 56 61 66 76 78 88 80 74 62 64 66 68 51 40 36 35 35 35 43 46
81 87 88 84 90 86 96 72 86 85 100 85 91 83 71 70 81 52 48 54 67 82 73 79 58 61 68 71 66 82 60 61 66 72 89 68 82 62 45 40 37 37 43 46 48
82 90 87 62 68 85 87 82 88 91 97 79 86 70 69 84 73 72 52 60 77 70 74 80 71 71 71 66 60 70 52 57 59 72 80 79 88 64 43 42 38 42 46 45 46
85 91 87 68 83 85 84 86 80 91 94 91 85 91 90 89 76 71 65 62 75 89 79 71 61 66 61 53 53 63 69 71 75 80 96 88 86 66 50 41 36 37 44 44 47
89 96 88 89 90 92 81 85 96 96 61 94 89 84 77 82 86 86 93 96 98 99 100 97 93 72 69 79 71 76 84 86 91 96 88 67 98 79 40 36 32 34 44 44 48
92 99 96 90 86 82 73 95 98 67 76 81 84 75 97 75 88 86 98 100 94 99 97 96 90 88 75 76 73 84 80 91 87 84 73 78 96 60 43 32 31 36 41 46 53
98 100 100 100 94 81 88 99 85 67 77 94 96 100 100 92 85 93 92 99 73 90 88 99 93 70 67 63 62 76 90 64 96 86 99 89 61 36 33 39 41 45 46 50 58
100 99 97 96 96 85 96 91 80 67 82 92 100 96 89 80 93 98 95 81 74 58 61 81 96 65 71 68 70 72 63 94 100 99 94 75 51 47 39 44 45 47 49 52 56
99 99 100 100 98 96 99 92 72 70 78 95 97 99 93 86 90 90 76 60 64 57 54 71 96 91 95 97 83 91 93 79 93 87 90 88 61 41 38 38 46 47 48 52 56
97 99 100 100 98 97 98 79 69 80 76 88 93 94 86 64 84 69 68 46 53 58 66 88 99 99 88 80 72 60 80 72 93 99 90 58 51 34 37 37 41 45 47 49 52
95 99 100 87 99 99 86 79 76 87 88 93 94 79 65 53 77 59 64 50 67 70 88 94 99 94 96 94 84 80 78 66 70 98 78 58 50 38 40 39 37 46 48 50 54
97 97 99 100 94 91 92 89 93 85 92 87 86 70 70 59 54 53 52 56 54 65 77 90 98 99 98 95 83 83 72 80 93 98 66 51 48 44 41 40 41 49 49 51 52
95 95 82 98 96 93 83 87 94 97 92 87 88 86 64 53 44 56 49 49 59 65 80 91 100 98 94 86 78 76 80 91 98 72 60 44 41 45 45 43 42 50 51 52 53
98 96 85 87 82 95 92 94 89 93 92 91 91 60 60 62 46 50 55 56 56 74 90 87 99 95 93 73 73 81 84 69 61 57 49 52 48 33 40 44 44 53 50 51 52
94 81 76 90 84 92 90 86 85 81 86 82 84 75 73 66 58 59 41 42 44 56 63 72 83 93 69 76 71 82 70 67 59 52 48 57 46 35 41 41 44 52 49 52 55

GFSSW_925_rhum_018.txt.gz
RH
80 91 92 92 94 94 94 94 86 77 86 91 91 94 100 99 99 100 96 63 62 66 61 54 45 48 46 55 57 58 84 87 66 57 45 35 32 25 22 26 25 23 26 23 27
83 91 93 93 94 94 93 92 95 82 69 77 83 88 94 99 97 96 69 65 72 77 72 60 65 64 62 62 65 84 93 78 58 50 46 39 32 28 28 32 30 28 26 30 34
86 93 94 95 94 92 94 91 87 86 81 75 84 78 84 82 86 79 57 72 81 82 76 67 72 66 65 59 72 81 87 64 53 45 44 43 38 31 32 36 33 30 30 26 34
83 94 94 90 95 92 91 85 84 84 82 85 84 76 68 87 89 65 62 67 80 83 82 76 74 76 71 85 68 80 69 64 58 52 54 52 37 40 35 33 29 31 32 30 32
78 90 97 94 94 90 88 81 82 91 90 81 86 82 81 96 87 53 54 54 72 78 86 84 86 79 76 68 67 77 69 60 59 57 53 49 52 46 41 34 33 33 31 33 34
82 78 91 94 94 90 79 82 76 80 80 82 84 82 86 92 52 46 56 53 55 72 83 81 84 74 75 71 70 60 60 61 55 55 52 55 52 45 40 36 37 34 34 35 35
80 81 84 88 90 88 80 85 86 84 86 88 91 86 95 79 51 51 52 57 51 61 65 75 75 80 74 74 60 61 76 67 60 58 58 51 61 58 41 37 38 37 35 36 34
84 81 84 90 83 88 84 92 93 91 83 77 84 89 93 53 53 48 46 52 54 55 48 46 53 71 65 64 71 76 76 88 57 57 54 54 74 50 40 43 42 41 40 41 35
78 81 84 84 84 77 83 87 84 73 72 87 86 88 88 54 63 52 56 56 47 46 45 44 43 57 62 85 87 86 96 84 75 54 56 60 63 46 43 45 45 44 44 41 40
80 82 84 81 84 76 85 90 90 78 73 91 82 90 75 63 55 57 55 53 49 47 50 54 62 78 89 89 92 77 91 80 75 65 61 62 62 55 46 46 43 39 43 42 44
75 79 84 84 89 79 93 97 90 97 97 88 79 73 48 53 51 55 56 53 54 58 77 64 86 87 80 81 80 83 78 84 73 60 72 68 63 52 49 50 49 46 45 41 48
74 78 84 85 92 79 89 91 76 69 95 83 79 71 57 58 61 59 54 67 72 87 76 78 88 63 64 69 81 84 92 89 70 59 63 74 74 58 47 46 44 42 45 44 51
77 73 82 81 93 91 96 82 76 74 95 81 82 81 72 64 69 64 57 65 75 84 76 77 64 59 67 75 84 83 89 83 83 66 59 58 66 62 54 45 43 40 42 44 48
82 76 84 94 93 97 94 83 79 77 92 86 88 80 75 69 79 54 51 57 71 83 75 74 65 67 70 78 76 91 70 72 74 79 87 64 86 67 54 53 47 40 48 48 51
82 85 87 83 66 94 74 84 82 90 83 70 85 69 71 78 72 72 51 58 88 84 80 86 83 80 79 70 63 77 60 66 71 81 86 74 86 64 56 58 52 42 49 48 50
94 94 89 77 81 75 73 78 87 92 90 93 83 90 90 87 78 76 69 61 82 88 76 73 63 65 63 55 60 66 68 68 74 75 96 66 72 63 68 55 48 42 44 46 50
100 98 95 80 91 78 88 86 96 94 60 96 89 89 79 82 82 81 85 96 99 99 98 98 95 76 69 70 62 65 78 91 98 97 83 58 68 61 60 53 40 38 47 52 51
100 99 93 78 76 86 81 90 90 64 81 73 76 76 87 72 91 80 93 96 87 99 100 97 98 96 73 71 78 76 74 89 91 99 72 58 82 74 52 41 38 41 40 51 56
100 100 100 91 84 84 87 99 83 68 78 77 81 92 94 86 81 87 90 90 65 91 96 98 95 72 70 60 60 86 94 61 79 80 89 84 76 64 53 45 44 41 48 56 61
100 99 97 91 88 90 96 96 75 76 84 80 88 91 88 79 88 93 86 69 72 84 72 83 97 74 75 69 68 75 62 91 95 98 96 87 93 66 50 48 54 54 56 59 64
99 97 100 96 94 97 99 97 74 80 76 85 90 95 86 87 80 80 79 72 75 75 81 79 85 91 87 96 76 85 94 75 66 75 99 81 78 60 39 42 54 53 55 63 68
98 100 100 100 98 97 100 80 64 82 76 81 84 92 93 87 93 93 86 65 62 59 88 69 89 96 86 61 64 74 71 72 80 76 70 90 74 36 44 42 53 57 60 60 63
94 98 100 88 98 98 88 79 77 84 82 90 94 87 75 84 84 78 64 49 62 58 66 75 100 97 95 88 90 98 82 68 65 89 94 97 69 42 47 55 54 54 58 61 66
96 98 100 98 89 93 86 86 88 78 77 85 90 81 84 83 65 61 63 56 62 62 78 87 100 98 90 100 88 99 80 72 70 73 72 93 78 56 48 47 57 60 60 62 65
99 94 84 94 97 86 84 81 88 94 88 87 95 93 90 88 67 67 56 59 65 76 88 94 100 100 97 94 97 73 70 73 82 79 88 70 69 46 44 42 52 58 62 63 66
98 96 86 84 83 90 88 92 85 85 89 95 97 81 86 92 55 50 55 58 71 86 90 95 98 100 99 89 94 88 72 77 76 89 93 86 94 36 48 50 61 62 60 61 63
94 81 80 85 85 94 96 89 86 76 82 80 85 90 89 80 63 56 59 47 60 78 93 97 100 100 100 89 88 97 78 75 75 79 88 98 76 43 44 43 58 66 55 57 60

GFSSW_925_rhum_021.txt.gz
RH
78 90 91 92 91 94 94 95 94 93 90 93 92 91 96 96 95 99 96 68 60 61 66 57 50 54 49 54 60 62 85 88 67 63 46 37 34 30 24 25 27 25 34 26 29
79 84 91 92 93 94 95 95 92 86 83 88 84 88 98 98 100 99 84 72 82 83 78 64 63 65 64 62 67 85 93 72 60 52 48 38 38 34 32 34 32 30 27 37 41
86 71 89 91 94 94 94 96 89 87 84 80 82 72 88 85 85 78 60 84 83 84 83 67 72 68 66 62 74 84 84 61 60 52 48 50 42 37 37 41 36 32 30 34 43
88 86 88 94 85 94 94 96 90 88 84 84 79 70 79 82 91 64 67 78 81 87 83 78 77 78 76 83 72 80 69 70 62 55 59 59 46 44 39 36 32 34 33 30 33
86 86 83 94 94 91 95 96 88 94 89 81 80 82 80 93 87 53 61 64 78 86 87 86 87 79 79 73 70 80 75 65 62 65 65 61 64 61 52 42 36 36 36 37 36
80 87 84 84 93 88 89 93 87 93 86 78 82 88 85 89 46 43 58 57 69 86 90 87 87 80 84 77 72 65 64 64 59 60 61 64 61 60 52 42 42 40 38 38 38
75 82 83 80 88 83 84 92 96 92 90 80 89 86 93 76 53 54 50 54 55 69 79 86 81 81 80 82 66 67 80 70 64 59 63 54 65 65 54 49 46 43 42 38 37
73 78 84 85 87 83 88 93 90 92 86 76 94 88 87 50 57 53 54 50 50 57 51 49 69 82 81 63 70 76 80 91 58 62 59 60 70 54 50 51 51 47 46 43 41
75 69 72 83 87 83 78 82 89 89 78 87 91 87 83 54 68 46 53 53 51 55 52 48 47 60 60 83 84 85 92 86 73 58 59 67 66 50 48 51 52 50 48 44 44
88 74 75 75 86 82 70 84 95 82 78 91 83 89 75 62 59 58 54 53 50 50 50 54 63 77 82 89 85 82 98 87 80 62 63 72 69 58 53 55 55 51 47 48 46
99 80 81 75 85 81 83 100 89 93 96 87 78 78 53 55 54 61 58 57 55 60 77 66 87 92 76 86 85 91 92 88 75 61 72 77 74 64 59 56 52 59 52 51 45
97 89 83 81 84 86 90 88 77 66 92 82 81 73 62 62 65 58 55 66 74 90 79 81 95 75 66 72 78 85 89 86 75 65 67 69 71 60 54 56 54 48 51 47 44
94 100 88 83 91 98 96 82 72 70 90 75 86 83 78 67 71 67 60 69 80 93 91 89 67 59 66 74 81 86 91 76 81 69 66 67 59 43 41 47 51 49 45 43 46
97 92 96 88 98 100 95 86 75 71 95 78 92 83 78 70 80 55 55 61 72 88 84 86 66 64 70 78 78 85 72 74 77 85 89 65 75 54 51 51 52 48 48 50 51
100 82 100 100 93 97 79 90 76 67 86 71 88 71 72 79 70 73 56 59 75 83 87 88 91 76 79 73 69 72 62 76 81 90 93 79 92 67 50 48 48 57 50 53 52
97 88 99 95 76 79 70 83 76 89 93 87 87 88 90 84 78 75 71 60 75 84 78 76 68 73 74 61 63 64 72 77 76 86 93 69 82 57 41 48 54 55 51 49 55
83 91 100 83 90 74 83 85 97 96 63 93 80 87 81 85 83 83 90 93 93 99 96 98 95 80 74 77 64 70 88 97 97 95 83 62 74 58 42 50 46 46 47 50 54
89 96 97 84 75 85 80 91 88 67 89 72 81 87 91 78 79 80 86 90 85 98 100 98 98 97 81 79 79 83 87 94 90 93 82 47 60 51 46 35 32 38 48 53 57
90 93 98 100 76 81 83 99 83 67 78 77 70 89 88 74 77 88 88 76 72 86 94 96 94 90 83 68 78 100 98 72 85 84 95 80 70 65 50 55 52 43 45 59 61
91 98 98 98 93 80 90 86 76 76 75 69 87 77 78 80 88 86 77 74 78 68 66 81 97 79 80 70 80 90 68 96 99 96 94 76 84 62 63 58 40 56 52 58 62
89 96 98 100 84 94 98 92 78 80 74 82 84 84 72 82 81 83 72 69 73 78 74 77 90 86 94 95 87 91 95 91 73 85 91 90 73 74 59 51 52 55 56 62 67
93 100 100 98 97 95 100 86 66 90 76 80 78 74 86 80 83 85 93 74 68 83 88 73 92 96 79 69 62 64 69 77 88 84 73 72 60 45 53 47 54 64 69 72 74
98 97 99 87 99 99 92 81 76 90 82 82 83 78 73 83 89 89 79 58 68 75 88 78 99 96 98 82 83 99 73 64 68 81 72 72 42 44 47 52 56 69 73 74 81
96 100 99 94 89 81 86 84 88 73 80 81 89 82 87 85 77 78 77 55 58 60 61 68 100 98 89 96 88 97 89 80 78 88 72 66 57 52 59 64 63 68 72 80 79
96 96 92 97 97 78 75 78 83 94 82 78 92 90 94 93 76 91 72 60 67 65 81 93 100 99 96 95 99 97 78 78 93 74 72 52 70 73 62 66 64 67 72 77 79
97 96 87 86 85 84 84 95 85 80 90 96 97 86 87 94 69 61 61 61 73 87 88 96 99 100 96 91 96 100 95 80 76 65 59 62 85 56 56 59 62 69 69 73 76
98 87 82 86 86 89 90 85 83 74 80 73 87 94 86 83 75 69 69 63 57 78 94 99 100 100 100 95 98 100 86 76 69 64 65 92 66 63 60 59 53 64 62 68 71

GFSSW_925_rhum_024.txt.gz
RH
93 86 74 88 91 93 95 95 95 96 95 92 93 91 90 95 96 100 94 68 63 60 66 63 53 53 50 58 64 66 85 91 73 66 52 38 38 32 28 27 31 27 33 28 34
97 90 70 76 90 93 95 96 95 94 95 83 82 86 82 93 100 100 78 78 88 86 78 66 63 63 64 63 69 84 96 74 64 56 49 43 44 40 36 41 37 33 28 38 41
85 90 97 66 89 94 95 95 96 96 92 87 81 75 87 92 81 76 61 82 89 89 85 70 70 66 65 64 74 83 87 63 62 56 54 54 49 40 42 49 40 35 37 39 52
92 92 98 84 81 90 94 95 96 91 82 87 88 83 77 90 82 67 75 78 84 89 86 77 76 75 76 79 71 80 76 74 68 61 67 64 60 59 47 46 33 37 35 36 36
84 82 96 96 80 88 92 94 96 96 89 81 88 84 82 84 88 57 64 65 76 85 85 83 82 77 79 76 72 83 80 69 63 62 68 66 70 73 66 51 47 46 40 40 40
93 75 79 92 91 79 88 86 96 95 90 85 85 87 85 79 44 45 57 61 84 79 84 86 86 80 82 80 74 68 69 69 63 61 61 65 62 64 59 53 54 49 45 43 43
98 88 77 86 83 79 78 90 93 91 88 91 90 86 93 78 56 57 49 54 64 84 92 92 79 78 80 86 70 74 82 76 71 65 63 60 68 71 52 57 58 56 49 45 43
94 96 82 83 85 84 87 93 81 92 83 81 90 88 82 52 54 56 56 50 51 62 53 59 82 88 85 70 69 77 80 92 65 64 60 61 71 55 47 55 60 56 58 51 44
91 95 93 83 82 86 85 84 85 93 82 86 95 86 85 55 68 50 53 50 52 53 56 50 56 70 68 85 85 77 88 86 70 57 64 75 70 53 53 56 64 64 60 54 48
86 96 99 83 84 85 79 84 94 90 82 84 89 90 74 63 60 62 58 49 51 56 54 55 64 77 82 90 92 78 86 78 72 62 68 76 75 59 55 57 57 62 61 58 53
83 93 96 92 86 86 85 98 97 96 91 85 80 77 58 58 58 64 62 57 56 61 83 69 87 95 82 82 78 91 90 90 70 59 72 72 71 62 56 65 66 60 54 61 57
87 95 91 95 90 92 84 92 73 65 89 84 83 81 65 66 69 62 58 69 74 86 77 82 96 73 70 70 76 79 87 83 65 58 74 76 73 58 54 54 55 61 56 56 55
92 97 96 94 98 100 88 75 66 64 81 77 85 79 80 69 75 72 62 70 80 93 92 90 67 65 72 78 79 77 87 84 80 67 64 70 67 42 35 37 39 41 43 47 53
94 90 96 96 99 100 91 75 68 54 92 73 94 86 82 70 75 57 58 66 79 93 90 90 70 73 77 81 80 90 72 76 82 89 88 67 80 45 42 36 39 38 44 48 54
96 92 94 100 99 96 91 82 66 52 86 72 90 72 74 73 71 75 58 61 78 82 84 82 89 92 90 73 73 75 65 78 83 91 94 83 93 67 50 52 48 60 63 56 55
92 90 97 93 100 87 82 81 64 85 95 91 87 89 92 82 74 74 71 64 73 77 78 73 73 74 74 63 65 65 75 78 81 88 94 70 88 56 44 40 37 32 42 50 53
87 98 100 93 99 88 77 78 93 94 66 87 85 80 74 83 79 81 87 95 95 100 97 94 88 80 75 83 72 75 100 97 98 97 86 66 80 60 39 38 38 35 48 55 56
92 98 98 85 95 94 76 81 91 69 87 74 78 78 83 76 76 77 86 93 83 97 100 99 92 86 85 75 80 83 86 94 93 94 82 59 71 59 46 39 36 34 50 52 60
92 100 93 79 96 84 70 85 78 71 76 82 82 94 96 76 73 81 86 88 62 79 98 99 94 86 75 74 65 98 98 73 94 95 97 82 69 52 52 46 52 46 38 40 63
86 88 88 74 95 83 78 85 74 68 73 70 85 77 85 84 85 90 77 71 70 63 70 78 96 80 82 80 77 92 78 98 98 96 94 78 72 63 52 47 54 53 56 50 68
86 94 90 98 92 93 93 83 78 78 69 76 78 85 72 77 81 84 76 65 76 78 73 71 90 87 92 96 86 98 100 100 95 96 86 77 65 57 58 57 64 59 52 58 70
92 100 99 100 98 97 94 83 73 88 76 79 73 75 79 73 79 79 83 72 68 79 86 70 95 96 81 67 65 68 78 80 88 87 85 85 59 53 64 65 64 63 70 66 70
98 96 100 84 99 99 90 85 80 90 82 79 84 74 72 87 96 81 82 65 74 81 83 74 98 98 91 85 81 100 87 69 66 80 86 87 51 28 35 51 71 79 87 90 89
94 99 99 96 93 87 84 82 95 76 75 71 77 78 87 96 89 87 86 64 72 74 67 67 98 95 92 83 96 98 94 98 91 94 72 70 58 43 43 74 76 74 85 92 92
97 99 92 100 98 77 71 80 86 93 77 75 86 84 94 99 99 96 84 75 70 66 70 84 99 94 95 92 100 100 96 100 98 78 83 57 54 43 64 71 87 77 91 93 91
96 95 94 90 82 76 81 87 79 86 86 85 93 78 90 98 79 77 82 73 65 84 88 92 97 98 97 86 96 98 97 96 88 77 73 64 63 45 62 75 84 84 82 90 83
92 92 80 87 80 93 82 87 74 76 83 74 80 91 96 89 80 75 66 69 72 74 89 98 100 100 93 99 95 100 91 90 88 72 69 86 60 46 51 79 77 70 71 74 79

GFSSW_925_rhum_027.txt.gz
RH
92 85 96 88 72 89 93 95 95 96 96 84 84 90 89 90 98 100 94 69 68 74 76 64 52 52 52 58 67 64 77 76 62 60 45 39 38 34 32 30 33 29 29 32 43
87 85 94 91 71 77 94 96 92 96 95 89 73 83 93 89 98 100 78 74 68 85 75 65 64 58 61 65 70 75 86 72 61 54 48 43 43 41 37 39 37 33 30 34 48
96 92 83 92 97 68 90 96 94 89 97 89 81 76 84 87 76 74 67 89 76 84 88 70 67 62 64 66 72 81 81 66 61 56 56 60 56 43 44 49 41 36 33 34 49
97 97 97 91 94 88 77 96 94 89 93 90 85 78 70 85 73 71 78 80 82 88 83 74 71 71 75 74 69 77 73 76 68 62 64 69 62 65 54 47 39 35 38 37 35
98 96 99 93 92 94 84 87 90 92 92 84 85 83 74 83 89 63 61 65 80 87 81 75 76 74 75 76 74 83 76 69 64 60 60 62 67 63 65 52 46 47 47 44 40
88 98 93 92 86 87 87 79 90 93 92 83 78 88 79 73 46 47 52 72 84 87 86 76 76 72 76 77 72 69 70 69 64 61 58 60 57 61 50 52 53 54 49 43 41
80 94 94 99 93 91 88 86 86 82 88 82 85 83 92 77 58 58 51 57 87 75 84 85 75 75 78 87 74 75 83 72 70 65 63 57 61 68 48 46 45 45 46 44 42
77 87 93 96 94 93 85 97 84 80 89 84 90 82 79 54 57 51 56 53 58 68 69 75 87 82 82 72 69 80 80 79 62 60 61 57 58 48 44 49 51 48 45 47 39
85 81 86 94 97 90 92 90 88 85 89 90 91 80 85 58 64 54 56 51 53 58 53 66 68 76 80 88 83 84 87 89 67 58 61 69 72 54 54 52 54 54 54 54 49
83 86 84 97 99 89 98 86 92 96 88 88 89 91 71 64 62 63 53 51 55 61 60 60 67 80 78 90 88 82 86 72 71 58 65 70 69 54 48 50 48 48 50 52 50
89 88 90 94 91 96 99 99 94 92 86 83 78 74 62 62 62 66 61 54 56 66 88 70 80 88 82 81 75 87 90 80 70 60 65 63 62 53 46 49 50 47 47 45 51
91 93 96 95 92 96 96 93 75 65 92 82 84 85 72 68 69 70 61 69 70 86 78 83 91 66 56 70 74 77 83 81 60 54 61 64 68 55 53 51 46 43 42 46 43
85 89 96 92 96 96 97 76 58 49 76 73 85 80 81 69 79 74 63 73 81 91 88 88 70 67 73 77 75 82 88 71 63 64 61 65 61 37 31 33 37 41 40 38 40
76 83 96 93 78 98 96 77 60 50 85 67 89 85 81 69 76 61 60 67 80 90 90 91 70 74 83 83 78 88 70 70 76 84 78 64 71 39 33 30 28 32 33 37 38
90 92 94 93 99 93 93 80 54 46 74 71 94 75 76 74 67 77 61 63 84 85 86 82 84 93 82 72 74 77 65 73 76 88 83 72 88 55 48 47 42 36 36 35 38
94 94 92 92 90 79 98 80 50 80 85 92 87 93 93 78 74 74 70 63 69 74 78 76 70 74 78 71 66 65 77 78 81 89 95 68 78 55 41 36 34 33 32 41 46
99 95 92 90 84 80 100 86 96 85 67 95 88 87 77 84 82 78 89 94 94 99 95 81 86 74 69 76 72 72 100 94 96 98 82 61 80 55 40 38 36 34 32 30 38
100 97 96 97 88 91 90 98 87 70 82 66 75 80 80 77 72 74 86 91 80 88 100 93 88 82 78 73 80 88 89 89 90 87 72 64 78 55 43 35 33 34 33 34 39
94 95 94 99 88 81 97 98 76 72 80 79 75 83 84 77 78 75 81 80 67 82 98 95 91 82 85 76 67 97 97 70 86 75 94 66 57 45 40 44 45 49 52 49 42
89 95 94 94 81 97 100 83 72 68 74 72 86 80 85 87 90 87 84 70 76 62 67 78 97 77 81 71 74 88 74 96 98 93 86 78 76 57 46 39 65 65 63 60 52
89 96 94 88 85 98 100 84 87 74 63 72 80 86 79 84 82 86 77 64 70 74 70 80 87 81 94 96 76 95 99 99 90 89 78 66 55 42 38 64 74 73 68 72 69
96 99 96 98 99 100 100 81 81 88 74 77 71 74 75 82 86 81 80 68 70 81 87 74 90 98 84 62 64 64 78 80 96 83 90 74 53 55 66 69 75 76 72 80 81
96 96 99 74 99 100 87 88 88 86 79 77 83 76 73 78 88 79 77 64 77 78 86 76 95 98 84 82 67 95 87 91 95 98 93 86 54 32 46 55 71 79 76 83 86
95 99 99 94 94 95 88 90 94 76 80 71 79 74 81 86 76 87 86 69 75 73 66 64 90 87 80 82 89 99 98 96 98 97 76 77 58 42 37 39 47 78 82 86 87
96 99 94 100 99 83 71 79 95 91 78 75 87 77 78 89 83 86 82 77 78 74 75 81 99 94 90 82 92 98 96 97 98 85 91 58 55 43 40 42 73 80 74 82 91
98 96 96 94 87 74 78 83 82 93 86 86 92 78 80 96 84 87 78 79 75 81 84 81 98 100 96 82 83 99 97 96 95 91 79 68 66 43 59 67 68 66 81 85 86
87 92 84 85 83 77 86 86 80 83 82 71 78 76 90 73 80 79 76 66 66 86 83 96 100 100 93 78 94 100 95 96 94 84 77 90 64 50 54 56 59 69 88 76 82

GFSSW_925_rhum_030.txt.gz
RH
97 95 88 93 78 81 76 88 95 96 95 95 86 85 92 92 94 100 84 66 68 71 66 62 51 47 47 40 50 46 38 35 31 30 25 27 27 22 24 24 23 21 21 26 36
97 98 97 94 98 88 84 76 90 95 96 93 95 94 91 89 92 98 80 74 78 80 66 52 47 44 41 44 47 44 43 34 28 28 30 27 31 28 28 26 24 25 22 27 38
91 96 98 94 94 94 97 81 83 91 90 88 85 80 79 89 68 60 75 90 90 87 67 57 52 44 46 46 47 46 46 31 42 37 39 38 40 34 31 30 26 25 23 26 29
83 92 98 98 96 94 95 94 88 86 87 84 80 81 68 78 62 66 82 83 86 86 74 62 52 52 51 49 44 56 44 45 41 44 48 46 39 42 36 28 22 30 29 30 29
80 81 92 98 97 92 94 97 88 86 83 84 79 79 75 64 56 64 60 62 76 84 71 64 58 53 54 48 53 53 41 45 43 49 44 41 44 40 35 31 30 32 33 32 29
76 81 81 96 98 91 92 88 96 95 79 84 77 83 66 50 47 50 54 69 75 79 74 62 58 54 54 54 54 48 52 49 47 45 43 48 41 37 35 29 29 29 29 27 28
69 83 80 82 96 98 89 96 96 96 79 76 80 84 72 51 57 61 53 64 78 74 76 67 63 63 57 62 55 55 64 48 44 42 45 43 47 43 33 29 29 28 26 27 24
63 81 84 85 87 96 98 100 90 92 85 80 90 76 62 56 65 54 57 57 71 71 71 73 68 64 57 57 57 59 58 57 43 46 44 48 41 30 30 30 34 31 27 25 25
65 83 88 86 85 95 97 99 90 90 95 95 85 70 66 60 60 54 54 53 60 52 55 72 65 67 63 64 63 58 56 58 49 38 41 48 46 35 39 34 37 35 32 33 32
72 83 93 92 91 94 94 97 91 93 97 94 79 76 64 58 57 62 59 52 52 52 56 54 53 54 52 61 57 49 60 50 50 43 47 48 46 37 36 35 35 34 32 32 32
75 86 90 92 95 95 97 100 99 98 83 66 67 58 57 60 64 61 55 50 49 54 66 61 68 69 53 48 46 57 59 60 52 45 48 47 42 37 32 32 33 31 29 28 29
88 90 84 88 94 93 91 98 74 67 86 68 67 61 66 64 62 60 57 52 58 68 59 69 76 48 48 52 57 60 64 58 47 42 48 45 46 38 34 33 30 28 25 23 22
86 86 81 83 95 89 90 95 58 57 62 76 70 64 65 62 63 64 51 54 56 68 64 61 56 53 57 57 62 62 70 67 61 46 41 47 44 28 21 21 21 24 24 24 23
82 93 85 88 90 89 88 74 85 52 95 75 81 69 63 59 66 53 49 51 64 64 65 64 50 58 63 63 58 63 47 56 60 62 68 48 58 32 25 23 22 20 21 22 23
89 95 94 90 92 77 85 91 92 68 94 63 82 68 59 58 60 72 52 54 64 66 68 66 68 73 72 62 55 64 51 54 56 62 66 59 84 36 31 31 26 21 19 18 19
91 98 100 93 92 82 76 100 90 96 82 86 81 91 85 62 64 70 67 57 53 61 65 56 55 60 55 52 53 53 62 65 60 69 89 56 70 42 29 25 22 20 18 17 17
94 100 97 95 77 81 88 94 98 92 63 90 78 86 71 72 71 67 82 88 78 96 93 66 64 60 59 68 62 66 95 75 87 92 64 34 50 47 25 26 24 21 21 20 23
99 85 99 94 89 79 98 99 96 64 67 62 67 74 80 65 67 74 82 89 62 65 84 78 75 64 68 66 59 74 71 69 65 52 43 40 54 33 23 23 21 24 28 38 36
94 80 97 94 97 97 96 98 90 57 62 72 73 79 84 68 66 72 73 63 57 64 85 83 81 62 61 56 58 88 96 60 84 64 77 49 32 24 22 24 25 31 42 38 42
100 86 85 96 98 86 99 100 67 60 57 56 72 61 74 74 73 66 65 54 56 52 56 66 86 58 58 63 63 76 59 89 95 77 65 41 37 35 27 28 41 40 42 47 50
100 92 94 93 83 97 100 100 77 57 53 59 66 71 63 70 64 64 62 55 55 55 54 60 66 68 75 82 66 83 96 99 70 73 69 57 37 21 22 22 35 42 45 55 57
96 100 100 82 99 98 100 84 66 67 62 63 56 58 61 63 67 66 63 54 50 58 67 54 71 79 75 44 45 40 52 63 94 80 84 72 59 24 34 42 46 36 41 50 58
96 97 98 85 99 100 94 83 73 69 67 65 68 61 57 64 72 60 60 54 55 60 58 57 87 86 74 68 55 70 58 55 83 83 92 86 53 24 29 38 33 36 42 47 60
94 100 96 93 86 91 93 85 82 71 69 65 67 60 63 66 62 75 67 62 57 55 57 57 71 77 65 70 70 98 76 90 98 96 71 73 58 37 31 30 26 25 30 46 62
93 98 89 99 94 85 70 77 76 77 70 64 71 64 66 77 79 85 64 63 66 63 62 64 100 80 82 68 78 88 84 88 99 92 94 57 49 40 34 34 30 29 44 48 64
97 90 90 76 76 72 67 67 68 79 69 76 69 67 67 75 69 69 68 69 59 65 66 68 91 91 96 71 71 90 92 95 96 95 95 82 70 42 38 37 38 47 44 49 69
84 92 90 76 83 72 68 63 65 66 70 62 61 67 72 69 67 68 60 63 62 62 71 74 95 99 95 69 74 90 96 96 89 81 78 95 62 44 45 44 50 52 68 68 68

GFSSW_925_rhum_033.txt.gz
RH
92 96 100 97 93 98 91 93 87 92 92 95 96 82 85 91 92 97 78 60 58 68 58 52 45 40 37 36 33 36 38 33 27 20 19 14 19 17 16 18 17 15 15 23 29
87 87 96 100 98 96 97 96 94 93 93 92 94 86 86 91 89 81 73 69 69 75 68 48 42 38 37 36 37 44 40 28 17 16 19 18 22 19 21 21 18 19 18 23 29
82 85 86 95 100 98 94 90 96 96 93 88 87 80 73 86 72 62 69 81 84 84 59 45 38 37 40 36 37 38 42 23 20 26 27 25 22 22 26 26 18 18 18 20 25
67 79 84 84 94 99 98 99 94 96 96 83 77 78 64 76 71 60 79 86 88 86 64 48 41 44 42 45 36 42 33 29 26 29 37 37 27 28 26 25 17 17 19 22 24
62 64 72 79 83 94 99 97 99 96 96 81 70 76 68 62 50 65 65 64 71 82 71 50 46 40 43 35 33 42 38 28 30 34 36 36 36 32 30 25 22 21 22 27 26
63 66 68 84 81 88 97 98 96 97 97 84 66 75 64 57 43 53 52 55 54 65 73 56 52 38 45 40 43 36 37 34 34 34 35 40 35 31 28 23 23 23 24 23 24
64 70 67 80 83 86 91 100 98 94 98 95 71 78 61 48 45 49 49 53 62 59 63 66 54 51 49 52 43 46 52 42 38 37 39 36 43 39 28 24 24 22 21 21 20
67 72 71 80 86 88 89 97 100 96 96 95 79 65 60 53 52 54 47 53 59 61 59 59 58 54 55 48 48 52 46 52 31 33 32 38 44 22 22 24 25 24 21 20 19
70 71 71 82 90 92 90 96 99 100 94 94 82 63 56 58 49 44 45 50 54 56 61 65 61 64 59 64 58 51 49 44 36 32 35 42 43 26 28 29 28 24 24 22 21
75 82 84 82 86 94 94 90 98 100 94 85 66 70 51 50 49 46 46 50 49 52 58 57 58 68 68 74 59 43 46 40 39 31 38 40 39 30 26 27 29 28 26 25 24
82 85 88 84 76 82 96 86 99 100 99 75 64 49 50 51 51 47 48 49 46 48 57 49 56 60 45 44 40 37 45 42 34 32 38 37 35 30 25 24 26 25 26 24 23
82 80 89 87 84 84 94 88 92 86 96 61 53 52 49 49 56 47 46 52 57 67 53 67 77 44 37 38 42 45 49 46 36 32 37 37 36 28 25 24 24 24 24 23 21
76 71 79 92 92 83 80 78 80 99 90 71 55 54 59 53 50 56 46 45 56 59 58 61 46 42 44 48 53 48 52 50 51 43 37 38 38 25 19 19 20 21 21 21 20
71 77 93 95 88 68 68 88 75 99 100 91 79 60 59 51 62 45 44 43 49 54 53 55 40 48 48 52 46 54 37 42 47 54 53 40 51 29 21 19 18 18 17 17 18
84 92 96 88 86 69 75 85 97 97 97 72 73 51 50 54 54 59 42 48 52 50 52 59 56 56 58 50 43 54 44 49 49 54 61 51 63 35 24 25 22 20 17 16 16
90 86 99 99 99 77 85 96 92 99 97 82 83 79 72 54 57 58 57 48 43 48 52 46 43 49 50 46 46 48 50 54 53 62 84 50 42 34 23 19 16 16 16 15 14
97 90 98 98 71 71 85 96 99 97 56 93 77 77 69 65 64 71 75 73 69 93 88 61 55 49 46 56 50 54 74 68 79 88 63 26 40 39 22 21 19 18 17 17 18
93 82 90 84 69 85 87 99 97 78 63 52 71 67 76 62 62 59 67 83 56 54 66 78 75 53 58 58 56 59 62 65 58 47 39 28 42 27 17 18 18 18 17 18 25
90 87 91 90 78 77 93 96 99 56 56 66 69 80 78 59 61 62 61 65 56 55 75 69 72 48 52 47 48 65 87 52 70 54 64 40 27 20 18 17 16 17 20 23 30
100 93 91 88 86 87 98 70 95 49 50 53 67 58 76 65 65 60 69 49 52 46 42 57 78 50 51 49 50 57 51 84 93 81 60 36 32 29 21 18 18 20 32 32 35
98 88 98 96 83 95 90 91 72 48 44 50 54 57 56 63 58 61 60 49 42 44 45 51 58 65 61 70 58 69 77 77 64 74 63 55 39 19 21 21 19 31 31 35 39
92 100 94 75 96 97 100 95 55 57 54 51 44 45 52 51 53 52 52 45 39 42 56 49 56 78 64 41 39 41 59 61 91 63 78 78 64 26 23 22 31 30 29 30 35
93 88 90 90 98 99 92 85 62 64 58 55 58 49 46 50 60 51 49 46 43 48 48 50 72 79 81 55 44 54 50 47 67 85 93 86 57 24 27 25 24 30 26 24 32
94 99 92 89 83 82 94 92 82 63 58 53 55 47 50 53 51 56 56 56 47 46 62 48 60 73 68 79 67 97 69 64 95 98 72 66 56 39 32 31 33 27 28 23 27
81 92 79 99 78 88 77 82 73 66 58 53 58 51 53 64 65 64 54 57 56 54 55 57 99 70 70 63 71 79 74 74 98 95 98 69 66 53 46 39 33 32 28 28 34
97 96 79 69 61 69 69 82 61 67 55 62 58 55 53 58 57 63 60 60 52 56 61 61 86 85 90 56 57 67 55 75 93 95 96 95 94 70 52 38 38 36 33 36 37
85 87 98 67 62 54 62 59 56 54 61 53 52 54 59 59 58 60 54 49 50 65 65 71 92 88 75 61 60 78 95 96 94 91 95 99 68 49 46 42 44 62 63 57 54

GFSSW_925_rhum_036.txt.gz
RH
80 86 88 92 98 100 96 99 89 94 94 96 95 95 71 80 93 95 78 66 68 67 50 61 50 43 37 42 35 34 57 50 41 32 26 16 17 17 16 19 17 16 17 27 39
70 71 80 86 89 97 100 99 97 94 96 95 95 83 78 85 94 77 67 65 68 69 63 52 47 41 45 43 41 52 62 52 31 24 24 18 18 18 20 22 22 20 20 25 30
65 66 67 73 82 87 97 100 100 96 95 96 94 72 68 79 77 62 69 72 79 75 68 53 43 38 49 41 41 45 56 34 27 22 30 32 32 20 26 28 24 21 21 25 29
69 66 67 69 70 80 88 98 99 99 98 96 90 72 65 81 77 72 63 72 80 80 72 54 42 48 53 50 37 46 36 34 34 29 34 38 32 34 27 28 25 24 22 24 27
72 70 67 68 70 77 86 93 100 99 96 97 83 73 67 72 59 65 60 79 85 81 76 67 48 46 51 40 39 43 38 32 31 32 34 35 41 42 37 28 25 24 24 26 27
73 71 72 70 70 79 83 91 95 99 97 94 86 77 76 64 42 52 51 50 57 66 75 66 46 42 45 39 39 34 37 37 34 32 35 38 39 39 33 28 29 27 28 26 28
74 73 72 73 72 79 85 88 92 99 99 96 93 82 63 56 41 45 48 47 54 51 72 66 55 53 47 51 45 43 56 47 43 40 40 36 46 44 33 30 29 27 25 24 25
78 79 74 75 75 79 86 89 91 95 100 89 94 76 67 50 50 51 43 45 54 61 54 67 64 56 56 50 48 55 56 70 39 39 36 41 56 36 29 32 32 30 27 25 24
83 82 80 81 81 80 92 92 91 95 99 93 90 77 63 53 48 48 42 43 49 60 61 61 57 61 59 72 68 54 68 57 45 34 34 41 51 36 29 29 33 30 29 25 24
82 85 85 83 85 85 86 92 73 86 85 97 71 78 54 55 45 42 42 47 48 50 69 75 70 74 70 73 80 62 65 54 47 37 38 45 47 36 31 30 32 34 33 31 28
88 88 86 79 87 83 78 84 90 96 99 85 74 52 47 45 48 42 44 49 49 57 73 72 79 87 71 60 56 54 49 47 41 31 37 42 39 35 30 29 30 30 30 28 28
87 83 74 84 92 95 92 79 79 95 98 76 61 49 46 48 55 46 45 58 62 83 57 62 76 49 43 45 52 46 50 52 42 34 39 43 44 36 31 28 26 26 26 26 26
77 74 81 92 79 82 82 70 72 78 98 83 60 53 53 46 53 55 47 49 64 67 68 63 51 45 48 47 51 52 57 54 51 44 42 45 47 36 26 27 26 25 23 23 24
74 89 95 82 97 76 70 72 82 82 100 98 81 59 56 49 56 44 43 45 56 72 58 60 44 44 48 54 48 61 42 45 47 58 68 47 76 42 30 26 22 23 24 26 25
86 88 94 98 92 83 76 76 91 94 98 92 82 49 54 54 58 56 45 42 52 53 53 63 52 57 58 50 44 52 47 50 52 62 64 59 77 49 28 30 25 22 22 21 23
88 91 94 90 95 87 77 80 89 99 97 99 85 71 72 57 56 53 54 47 45 46 46 51 41 47 50 44 45 48 51 53 58 62 89 70 62 51 28 25 25 22 22 22 20
87 91 98 95 86 84 85 90 99 97 91 99 89 73 66 67 69 64 72 76 76 92 90 62 59 49 47 56 50 52 68 94 97 92 89 34 56 42 27 23 25 23 22 20 19
95 93 92 82 72 82 79 96 97 96 99 56 74 71 69 64 70 68 79 84 62 59 80 84 77 59 52 58 62 65 65 93 82 85 64 41 53 39 23 21 19 18 20 22 20
97 93 86 84 82 82 94 92 99 90 59 78 74 87 78 63 66 72 74 69 56 57 74 77 69 47 53 48 54 65 82 55 77 63 87 58 34 26 22 22 21 20 22 24 23
100 92 94 87 76 80 96 80 100 79 52 56 74 62 76 72 67 69 72 54 56 48 47 62 70 51 54 44 46 57 51 91 95 96 82 55 47 40 28 26 22 24 32 33 41
90 91 94 84 74 94 96 78 87 75 48 66 56 57 53 66 61 63 58 49 45 48 46 49 60 67 66 71 69 69 74 71 71 81 86 78 55 28 32 29 30 30 34 37 46
89 98 85 82 98 100 94 88 82 80 48 44 42 45 50 51 59 54 59 48 41 44 55 49 62 89 78 48 51 52 65 64 88 78 79 90 70 32 32 29 30 31 42 45 38
91 92 84 92 100 100 96 94 81 70 56 53 51 42 43 53 61 49 51 46 45 47 52 53 76 90 86 61 49 60 56 54 64 84 90 93 65 28 32 33 31 32 32 30 32
90 94 88 92 88 90 98 84 79 64 56 49 48 44 45 56 45 56 64 52 46 47 59 50 64 82 92 87 80 94 76 62 74 98 81 75 65 49 42 43 43 45 32 35 34
80 91 81 98 85 85 87 78 74 67 56 50 52 48 49 58 61 59 56 63 53 62 53 61 98 78 77 65 70 79 78 73 98 95 98 78 78 67 68 72 62 56 42 37 36
95 98 83 68 64 69 81 94 70 60 59 57 58 52 50 55 63 66 55 54 63 58 60 61 97 83 90 67 66 77 65 64 70 93 96 92 91 66 62 62 54 58 64 62 46
86 88 98 66 57 60 64 66 55 57 62 53 52 54 62 64 60 62 58 50 54 61 64 78 96 94 87 66 68 81 68 82 93 85 92 98 92 77 75 72 84 87 83 79 73

GFSSW_925_rhum_039.txt.gz
RH
69 68 70 72 81 89 95 98 99 99 90 94 95 96 96 80 86 88 94 72 66 77 64 64 61 50 47 46 43 38 64 70 58 50 40 26 25 18 18 20 20 19 29 41 43
70 69 67 69 71 76 86 93 98 100 97 96 96 94 93 86 93 92 77 70 75 73 74 55 60 52 58 50 50 58 72 66 42 39 34 29 34 27 21 21 22 22 30 41 43
71 70 67 70 67 70 76 90 97 99 100 97 97 89 82 81 88 76 55 74 72 75 65 54 56 49 60 52 52 51 74 51 45 36 33 39 37 34 30 28 24 23 29 36 44
77 70 73 64 72 68 66 78 92 97 99 98 98 88 79 88 90 69 72 74 74 80 64 71 66 60 62 63 49 59 47 46 42 37 35 40 41 44 37 31 32 26 25 26 35
77 73 70 74 74 73 70 72 83 97 100 99 94 95 84 87 72 59 49 75 78 77 81 79 75 58 62 56 52 52 47 40 38 40 36 35 42 44 45 39 34 32 31 27 30
81 80 81 76 74 71 71 75 76 92 98 100 89 93 95 88 52 51 59 77 82 80 80 79 62 50 53 52 50 41 45 46 43 45 42 41 41 39 39 35 36 32 31 32 31
87 75 83 82 80 76 74 75 83 88 96 100 89 94 80 71 41 50 49 50 55 68 79 74 64 56 53 52 50 48 57 56 52 48 48 40 51 50 40 39 40 38 35 29 31
77 88 86 83 87 84 80 80 90 89 94 95 94 87 85 52 46 48 46 48 55 59 64 63 68 59 57 51 50 57 60 79 56 47 46 45 56 44 40 42 42 37 34 33 30
85 86 86 85 87 87 88 86 88 90 92 88 98 83 77 52 54 50 43 44 52 59 59 70 75 71 62 70 71 61 83 76 64 42 44 51 56 43 38 39 42 41 36 33 30
87 86 77 87 84 87 90 85 70 90 82 90 90 84 68 60 50 49 43 43 53 71 71 79 80 90 84 83 93 76 77 67 62 43 42 49 56 47 40 39 40 39 42 41 37
86 88 84 77 85 93 90 75 85 96 94 88 81 71 54 49 44 50 43 51 52 67 95 83 89 95 85 80 67 63 67 60 48 39 41 48 51 45 38 40 36 34 37 36 32
83 80 78 85 92 91 86 88 84 92 93 77 76 66 50 47 57 49 44 63 73 89 66 75 83 64 60 60 63 70 69 60 50 40 44 49 48 40 38 36 33 32 36 36 32
75 79 88 95 96 77 80 76 79 71 96 90 85 72 57 51 60 59 52 59 76 80 69 78 56 49 55 56 60 55 61 60 59 52 49 53 56 48 40 36 33 30 28 27 28
80 88 92 94 97 83 85 78 85 77 100 98 95 71 56 57 67 47 48 54 62 71 67 63 48 50 57 60 53 65 50 54 56 64 76 55 87 65 39 31 27 35 36 30 28
80 87 86 95 98 87 77 89 87 85 97 98 92 55 60 67 63 61 46 48 67 68 64 75 58 58 57 55 48 60 52 57 60 69 71 69 80 67 49 34 30 26 28 30 32
82 87 95 94 94 88 81 85 88 98 96 100 85 77 84 65 62 61 57 48 46 56 58 57 46 50 57 46 50 50 53 56 63 72 97 76 74 62 38 28 25 26 23 26 25
92 96 97 97 87 91 80 93 94 98 98 100 95 76 75 75 70 67 72 77 79 89 91 63 61 50 48 61 51 61 70 95 89 91 89 60 80 63 34 29 27 27 25 24 24
98 95 77 88 83 85 77 93 98 97 100 89 74 70 83 71 74 72 80 86 69 65 88 88 88 67 56 62 70 72 69 91 91 98 83 54 66 48 32 27 27 22 23 22 26
98 78 90 85 73 84 91 94 98 100 93 94 85 97 96 69 78 75 78 80 65 65 78 89 78 53 52 51 57 71 86 62 82 75 94 71 49 34 27 28 27 27 27 28 28
87 87 88 86 81 76 99 97 97 96 74 69 95 74 93 74 84 82 76 62 56 56 54 62 79 63 58 50 55 60 59 85 94 96 93 74 63 47 34 32 32 34 35 40 46
77 89 93 81 64 91 98 100 100 80 67 66 65 67 65 74 75 72 76 57 52 56 54 51 62 76 62 69 74 72 66 64 78 91 93 96 73 39 36 33 34 37 37 45 51
86 95 81 85 96 100 96 90 93 92 72 65 47 56 58 64 68 58 70 56 48 50 64 51 70 94 80 60 57 63 68 73 93 76 93 94 72 36 35 37 36 35 33 32 40
93 89 74 88 99 97 92 85 91 82 61 56 60 47 49 59 66 55 63 51 48 50 58 57 78 93 83 69 59 73 67 64 70 84 91 89 67 36 36 38 37 41 52 50 38
92 92 90 96 93 97 92 100 98 75 61 51 49 45 54 60 56 70 66 56 49 56 56 51 75 80 86 83 82 89 77 68 77 98 81 76 62 51 47 50 54 61 67 60 49
92 92 85 95 95 91 89 82 81 74 61 54 52 49 51 64 61 70 66 63 57 57 57 67 88 81 78 75 80 77 78 78 87 80 97 68 71 63 63 72 74 71 73 59 58
97 99 86 92 79 78 89 92 77 71 67 64 65 63 60 62 66 61 66 68 70 64 66 68 96 91 92 74 77 86 72 73 74 73 77 80 94 66 63 65 75 82 80 80 75
88 89 98 79 72 72 82 66 69 62 62 62 58 72 79 75 70 67 58 57 61 73 73 80 94 98 96 71 75 87 70 66 78 85 84 97 80 64 70 78 87 93 91 87 84

GFSSW_925_rhum_042.txt.gz
RH
70 65 71 69 70 70 70 85 94 97 99 99 95 97 96 96 92 86 96 74 63 75 60 66 63 55 54 51 46 46 69 78 62 54 42 33 30 25 19 21 20 22 47 47 44
72 75 70 69 74 72 68 66 87 90 99 100 98 98 96 93 93 98 65 77 74 81 82 75 65 60 64 56 53 61 76 68 50 44 42 34 36 37 29 22 23 36 41 49 50
80 75 73 68 70 69 72 66 66 81 94 99 99 98 96 86 93 83 48 78 80 78 76 73 57 55 66 55 57 61 78 55 51 46 36 39 40 39 36 29 31 31 47 46 54
87 83 85 82 78 75 72 69 68 79 87 97 99 97 90 90 86 68 82 76 76 80 74 68 71 70 70 68 55 60 54 50 46 44 41 41 39 44 40 34 38 34 31 29 40
89 84 80 81 86 76 75 68 66 71 82 96 95 96 89 94 78 54 58 76 76 80 74 79 86 71 68 65 58 59 51 45 44 46 40 39 44 46 46 42 38 34 32 31 32
84 87 87 81 85 87 84 74 69 71 78 91 95 93 92 88 53 50 57 77 78 83 82 81 80 62 57 57 62 48 50 47 46 46 46 45 45 42 41 39 39 38 38 35 32
81 86 85 76 87 88 84 80 77 82 85 89 93 94 84 68 48 54 66 70 75 76 81 77 74 59 57 57 51 50 55 54 52 47 49 42 50 54 41 39 43 43 42 38 35
87 86 86 84 87 89 85 84 84 85 88 89 94 100 82 56 50 49 50 52 63 66 72 65 70 62 59 52 53 58 63 71 50 46 46 47 57 44 42 46 46 45 44 42 37
86 85 85 85 87 88 88 90 90 85 86 88 94 93 75 49 60 47 48 48 53 60 65 80 70 77 62 73 73 64 77 77 66 51 49 56 58 44 36 42 47 45 44 42 39
80 87 88 85 81 80 88 86 53 85 84 90 90 89 71 64 53 49 49 45 56 72 80 85 92 95 84 78 89 81 80 72 69 48 48 57 64 51 46 46 46 46 43 42 42
79 80 81 80 86 93 91 82 79 85 95 86 82 75 62 53 51 54 46 46 63 82 92 91 90 95 86 73 63 62 66 70 60 41 44 48 52 47 39 42 43 38 40 40 38
73 78 81 87 93 97 94 93 80 82 90 64 78 74 58 50 61 57 45 68 72 91 81 96 93 76 75 78 72 70 70 66 54 43 44 52 52 41 37 36 35 33 32 34 34
79 83 87 92 90 92 91 83 78 74 93 71 83 80 57 49 61 64 53 65 76 88 75 79 63 56 61 65 72 62 65 62 62 55 48 56 43 41 39 38 35 30 31 32 33
76 82 85 88 90 92 86 86 82 73 92 71 92 83 58 58 68 49 52 58 72 86 68 67 48 56 62 62 55 64 53 54 59 64 79 58 78 65 46 44 36 32 41 40 35
81 82 88 94 99 95 84 96 81 76 99 88 92 70 60 68 66 61 48 50 72 70 65 72 62 58 61 59 50 62 53 56 59 70 72 71 82 63 48 37 29 25 26 30 33
93 95 97 96 88 82 89 90 91 98 95 98 93 89 78 66 66 63 58 48 50 60 57 58 49 53 55 52 50 52 57 67 72 76 92 71 75 63 42 30 26 25 28 28 28
99 98 98 90 95 90 86 95 94 97 100 100 98 78 76 78 76 71 75 73 77 92 98 65 62 52 51 64 54 58 70 90 89 97 81 63 83 71 47 36 29 29 30 28 26
86 84 82 82 87 93 80 96 95 96 100 88 76 76 90 68 76 72 75 84 68 74 86 88 89 62 54 62 71 66 67 87 74 97 88 62 78 49 37 34 29 27 30 26 27
74 80 95 97 84 80 93 95 97 100 98 79 83 100 94 82 79 78 72 84 71 62 78 88 77 57 56 55 58 72 84 63 83 79 95 75 59 36 31 32 32 36 36 46 36
68 79 93 87 79 75 100 96 99 100 82 68 98 90 99 88 88 80 72 66 61 60 56 67 91 63 58 53 54 59 61 85 92 91 88 75 70 47 34 33 36 40 44 44 50
70 92 83 78 74 93 99 100 100 90 86 74 84 77 77 75 74 69 66 60 54 57 54 53 74 80 65 68 76 75 76 74 80 87 91 94 72 47 36 36 42 43 42 43 47
84 96 68 75 92 99 100 99 98 93 81 84 54 64 69 69 73 68 77 66 53 56 67 53 78 93 77 60 57 63 70 72 93 70 96 92 79 42 43 38 40 39 43 47 47
91 90 74 80 99 99 89 94 88 88 82 66 55 51 56 64 73 61 60 54 55 54 63 57 80 93 83 70 68 76 70 69 74 88 95 91 72 39 44 36 37 49 58 60 61
89 89 88 94 93 97 100 98 94 77 82 53 56 51 57 60 59 72 66 61 53 56 60 58 76 75 87 75 80 85 77 75 76 98 87 84 63 50 45 44 50 64 68 71 67
96 93 88 96 94 89 92 87 77 80 63 56 56 58 58 70 70 77 68 63 61 59 63 64 85 85 81 76 83 79 76 80 88 75 93 64 71 61 56 54 68 75 74 74 78
98 96 84 94 77 80 87 88 80 75 70 69 77 68 64 73 65 74 73 69 64 62 68 70 84 92 90 73 80 88 78 76 72 69 70 72 78 54 55 60 80 87 87 84 83
85 90 98 83 77 77 78 67 69 62 67 76 70 74 82 78 72 62 56 59 62 69 77 78 95 96 98 70 78 93 80 73 72 73 67 87 74 63 66 78 92 94 82 71 65

GFSSW_925_rhum_045.txt.gz
RH
81 79 72 78 72 77 75 68 66 73 85 94 99 99 95 93 89 91 94 74 73 74 79 72 75 64 57 57 50 52 75 83 59 54 44 34 33 29 27 25 22 24 48 44 51
84 87 84 76 83 75 79 76 74 64 71 85 96 99 95 86 90 97 64 72 80 73 76 70 76 63 71 62 57 62 79 70 54 49 43 39 40 39 36 35 25 37 49 61 61
83 88 88 85 88 83 80 79 73 70 67 81 92 96 99 85 94 82 37 66 78 76 77 76 63 63 69 60 61 66 74 55 52 46 41 45 44 39 41 40 35 34 40 44 65
82 85 88 88 82 86 84 80 76 63 64 76 88 95 100 85 80 63 84 78 80 75 82 74 65 72 75 73 58 64 59 55 49 44 45 43 39 44 43 42 37 40 37 32 40
83 80 82 86 81 86 88 87 83 68 65 68 82 97 97 88 79 49 60 82 79 84 83 79 79 73 76 70 61 62 54 50 46 47 47 42 46 48 48 42 40 36 35 35 35
84 84 85 83 83 82 87 85 82 72 74 76 86 98 93 84 45 35 47 79 81 87 78 77 80 66 67 61 68 56 55 52 47 46 47 48 49 45 42 43 43 41 39 39 37
82 85 85 86 85 87 87 85 84 79 83 82 85 100 94 73 48 56 66 77 82 86 84 73 70 62 59 59 52 50 57 54 54 49 51 46 54 60 43 41 43 39 46 43 40
80 82 82 87 88 89 88 85 87 85 85 85 86 100 93 61 56 58 55 76 72 72 71 72 71 62 60 54 57 63 63 73 51 51 48 46 58 44 45 46 49 48 42 44 43
81 85 81 85 89 85 84 89 86 86 85 85 88 95 85 58 66 52 52 51 72 77 75 66 71 74 64 74 78 66 85 77 64 50 50 58 63 45 40 44 48 45 41 45 42
77 76 79 82 83 87 93 90 65 88 85 82 85 97 82 70 57 49 50 48 60 80 87 85 87 93 86 81 93 87 76 74 70 50 52 64 71 54 49 49 52 52 47 46 44
83 80 83 83 88 93 96 84 76 82 91 85 81 76 69 57 52 54 50 48 77 87 98 90 97 94 83 73 62 67 71 72 64 47 46 52 53 47 41 43 46 43 41 43 40
86 75 81 86 88 96 96 91 77 75 82 71 68 68 77 58 72 62 48 60 80 93 95 99 94 81 81 78 80 71 75 72 58 47 47 56 56 44 40 38 36 35 34 34 33
75 76 82 87 92 87 92 84 70 74 88 62 76 84 80 55 69 72 51 66 77 92 83 80 75 73 80 84 91 77 76 67 64 56 51 61 53 44 36 37 36 36 34 32 33
89 92 87 88 88 95 88 82 74 82 90 89 91 84 82 59 72 52 50 64 75 91 73 63 50 71 68 78 70 69 52 56 61 64 79 59 80 63 46 45 41 37 35 38 39
99 93 94 93 93 98 89 87 87 78 57 72 90 93 65 68 67 65 55 54 80 76 66 73 61 69 72 62 51 62 54 59 61 72 68 69 83 63 43 34 27 27 27 28 30
98 93 86 91 90 83 84 90 83 93 97 93 90 95 82 69 69 73 64 49 56 61 58 61 51 51 54 57 51 54 58 68 79 75 88 67 72 57 40 31 35 30 32 32 33
82 85 87 86 90 90 85 89 93 94 97 100 99 80 80 78 82 75 73 69 82 98 100 68 65 53 54 66 58 59 70 86 80 93 80 73 79 59 44 40 37 39 36 37 34
85 83 97 96 98 81 76 90 94 94 99 90 85 76 97 76 78 76 77 81 67 74 94 93 93 62 54 62 71 66 66 82 64 89 84 70 84 50 40 35 31 34 37 49 53
72 80 93 92 83 76 93 96 97 99 100 96 86 99 99 86 86 83 74 75 68 60 76 84 76 59 56 56 58 74 85 63 84 80 95 72 57 36 35 40 39 42 43 45 46
67 77 82 80 78 77 98 97 99 100 97 74 99 95 94 94 96 89 74 66 63 59 56 65 91 64 60 54 59 61 65 85 93 66 82 65 70 46 34 35 41 42 43 45 44
68 89 67 77 75 91 98 100 100 88 81 77 90 85 83 81 77 73 73 62 55 62 56 61 74 83 66 69 80 74 83 84 82 84 86 89 59 50 38 37 44 47 47 52 62
83 89 60 73 91 94 100 100 97 89 80 86 63 66 73 72 69 68 69 62 55 58 64 56 80 93 75 62 59 64 71 76 86 74 94 87 81 45 47 41 44 40 45 53 59
90 92 71 82 98 97 93 90 89 87 89 70 58 54 58 67 70 66 68 52 59 57 65 57 80 92 83 67 68 73 71 70 76 85 97 90 70 43 46 42 42 46 52 65 66
90 93 91 92 91 97 100 95 93 84 75 56 57 55 57 65 65 73 66 67 57 54 58 58 74 73 84 74 81 89 80 76 78 99 89 86 75 48 47 48 48 50 76 75 70
95 96 92 98 89 89 91 85 80 85 60 60 56 58 62 77 72 77 68 64 62 63 65 63 85 84 79 73 84 78 74 85 84 76 89 65 70 56 49 48 51 78 78 76 75
88 99 90 95 87 88 80 82 79 78 74 71 76 74 65 73 67 81 71 66 61 62 71 69 91 91 87 71 81 89 80 79 82 77 77 72 73 49 44 49 72 85 82 76 67
88 90 98 85 88 80 81 69 73 64 75 81 71 79 84 82 72 60 55 60 59 70 78 74 92 92 97 71 80 89 80 79 72 72 62 76 61 56 65 66 84 90 78 64 60

GFSSW_925_rhum_048.txt.gz
RH
90 84 82 89 88 88 86 85 77 66 70 70 77 89 97 97 90 92 94 80 76 68 87 70 86 86 60 59 51 56 78 83 58 57 44 35 35 32 30 29 26 24 36 49 63
80 80 80 86 89 89 84 83 86 78 65 72 71 84 97 100 96 98 70 77 80 77 76 87 86 66 74 64 61 63 84 74 53 47 42 41 40 40 37 42 30 32 46 74 98
84 82 80 79 80 86 88 86 79 77 71 65 68 82 94 100 89 78 47 71 71 78 79 75 69 63 73 64 65 68 72 54 52 46 43 46 47 40 41 39 32 35 38 48 85
81 83 85 79 79 83 86 90 85 85 79 71 65 76 94 99 84 56 79 68 72 76 83 74 70 76 79 77 63 68 62 54 46 45 46 46 41 44 44 40 35 39 38 34 43
77 75 81 81 84 87 87 83 82 84 80 71 68 76 98 94 76 57 60 81 74 78 82 80 75 75 75 72 63 66 57 56 51 50 49 44 48 49 49 45 42 42 38 36 34
77 78 83 81 86 89 87 86 89 89 87 77 80 82 98 98 58 58 42 67 76 85 83 78 74 63 67 69 66 62 57 54 50 48 47 50 51 49 45 43 45 45 42 41 40
81 77 84 80 83 84 89 88 89 90 86 81 83 92 95 77 59 62 69 77 78 85 89 74 65 66 62 64 59 55 59 57 57 52 52 51 58 63 48 44 46 46 49 42 41
79 78 83 86 83 86 87 88 88 87 85 83 83 90 91 69 65 63 58 71 83 85 78 68 63 63 60 55 60 67 62 76 54 57 51 48 58 47 43 50 52 51 52 50 44
87 84 81 77 80 84 88 91 89 89 87 87 84 85 82 65 77 64 61 82 90 88 72 61 72 73 64 76 81 70 89 81 63 54 51 59 66 47 44 46 53 51 52 47 47
90 90 86 81 84 87 94 90 68 78 85 82 80 91 86 76 68 60 52 65 71 86 85 80 87 92 88 80 82 80 75 75 74 50 57 62 69 52 48 54 55 55 55 54 50
71 79 76 76 86 91 95 83 84 71 83 82 78 78 77 64 65 61 51 60 81 91 98 84 95 94 77 77 66 72 72 71 65 52 49 59 58 51 42 45 47 45 42 38 36
87 84 86 79 87 94 94 88 77 74 92 68 66 63 62 68 82 72 49 65 86 90 97 97 94 85 74 69 68 72 80 77 61 50 50 58 60 48 41 41 41 39 38 36 36
96 97 94 92 86 88 93 84 73 78 89 78 70 83 79 83 76 74 52 64 83 92 87 87 86 79 81 84 83 85 81 75 69 56 54 64 57 45 37 37 35 36 38 38 38
92 96 96 91 87 92 88 88 88 86 90 91 85 80 75 72 86 55 50 68 81 89 73 66 77 84 90 89 84 97 60 59 60 65 80 61 82 61 47 42 37 37 35 34 32
95 82 92 86 87 85 82 88 75 73 56 74 86 93 85 75 84 68 59 63 81 82 82 87 84 92 95 82 68 64 56 61 64 72 67 68 79 56 42 34 33 34 39 40 36
86 91 82 87 85 90 88 85 78 87 96 94 90 96 83 70 81 74 73 53 60 68 69 65 52 55 58 62 52 57 60 68 75 75 87 66 68 47 36 38 40 40 45 50 47
93 87 94 92 88 77 78 84 86 92 88 100 99 88 80 80 83 72 76 77 86 95 96 71 65 54 54 65 56 58 72 90 73 87 75 71 76 55 46 43 40 39 44 51 53
76 82 99 100 92 80 80 86 89 92 99 93 96 91 93 78 83 82 78 80 64 81 95 93 92 62 55 60 70 67 67 83 59 79 70 73 87 44 43 37 39 40 42 44 47
64 70 81 84 85 80 91 94 96 98 100 100 94 99 100 93 85 95 78 76 67 60 78 85 81 60 56 57 57 72 84 62 87 81 92 68 56 30 41 40 39 45 45 48 48
62 74 71 75 77 79 93 91 99 100 96 79 94 88 96 100 88 94 74 65 66 60 56 65 93 66 62 56 63 62 66 82 90 71 68 55 63 39 35 38 47 47 47 49 55
63 82 60 68 77 91 98 100 99 88 92 76 91 86 87 93 78 77 71 66 56 62 60 64 73 84 65 69 78 73 86 83 80 82 73 68 41 48 41 41 49 49 50 56 66
80 89 60 77 91 96 97 96 92 86 79 62 62 68 73 70 69 71 75 61 55 57 66 60 78 94 78 63 61 64 73 75 82 82 90 90 73 44 46 43 48 50 51 58 68
91 88 67 82 96 98 93 93 88 88 86 58 58 58 59 64 68 65 65 58 58 54 62 59 80 94 85 67 67 74 72 71 76 83 98 94 60 45 50 46 44 51 58 80 75
91 94 90 91 92 97 99 93 85 82 68 57 61 54 58 70 69 72 67 71 63 53 62 58 72 72 84 73 82 90 82 76 78 95 86 89 74 50 47 50 46 52 79 76 70
95 94 91 99 89 90 88 83 80 84 62 61 58 59 66 77 74 79 69 65 65 68 66 63 85 80 76 70 85 78 75 86 83 77 86 69 77 57 53 51 49 57 79 74 68
85 96 85 92 86 85 80 76 81 84 80 68 82 81 66 72 65 80 72 67 64 64 68 67 98 91 88 70 84 91 82 83 84 77 81 72 74 50 45 47 62 84 82 74 60
89 86 88 84 89 81 82 74 75 69 76 82 73 82 84 86 74 61 58 65 62 72 77 72 92 90 89 74 81 90 83 80 82 76 69 85 60 51 62 63 74 88 79 66 60

GFSSW_925_rhum_051.txt.gz
RH
91 88 86 82 77 81 86 88 89 81 85 68 68 76 80 94 93 98 94 81 72 85 90 69 91 90 63 60 53 57 68 68 54 50 40 36 33 33 31 31 27 26 40 56 66
86 85 83 82 85 82 77 87 87 90 84 78 68 70 74 90 93 99 83 79 74 71 79 83 87 75 73 65 60 61 73 66 49 45 42 39 38 38 35 39 32 37 36 89 96
84 77 74 79 83 79 80 83 83 89 86 83 78 70 70 93 98 85 87 83 75 78 77 84 77 71 76 67 66 65 65 56 50 44 42 46 46 41 41 39 35 34 38 69 89
76 78 83 80 76 79 85 84 83 84 80 86 77 73 69 91 93 61 70 72 78 73 83 84 74 78 80 76 64 69 61 51 46 49 49 49 43 44 44 39 33 40 38 34 79
75 78 81 80 83 84 84 84 85 87 89 86 83 77 83 97 82 65 58 57 76 73 81 74 80 76 76 68 65 66 59 55 50 50 48 46 48 45 46 42 40 40 41 37 33
83 81 78 83 82 78 80 87 89 86 88 88 88 80 86 98 64 61 67 47 74 75 81 71 72 62 64 67 62 60 55 54 51 48 47 51 50 49 44 42 42 43 40 39 38
85 84 83 84 85 85 86 88 86 85 87 87 84 85 90 76 63 60 69 70 77 75 79 81 58 60 62 70 59 61 67 59 54 53 51 51 53 61 44 42 42 39 41 41 39
87 91 90 87 83 78 86 85 89 76 87 86 85 84 82 65 72 70 71 72 77 79 78 79 61 63 59 56 61 67 61 75 56 56 51 45 54 46 42 48 46 43 43 46 41
84 79 85 84 78 84 86 91 90 86 90 86 87 81 78 71 78 68 74 70 86 89 85 77 67 74 64 73 79 73 84 79 61 57 56 52 62 48 47 45 45 44 43 44 41
89 89 81 78 75 86 90 84 79 79 86 88 82 85 75 81 76 69 59 72 82 90 76 75 77 88 86 78 82 80 80 78 65 52 59 65 68 53 42 45 49 46 44 45 45
96 92 93 88 81 88 88 74 77 71 79 77 71 75 74 78 73 71 56 81 80 79 90 87 90 88 80 73 62 65 71 71 65 53 52 60 60 50 43 44 43 41 38 35 32
90 96 96 97 90 89 87 88 72 74 86 68 72 65 68 92 87 76 58 89 86 96 91 97 87 70 67 65 66 69 76 76 62 52 52 57 56 46 41 43 42 40 38 38 36
94 97 95 93 95 85 86 82 81 81 82 69 74 68 73 84 76 80 63 69 87 94 94 97 90 66 69 77 75 80 78 76 68 56 55 60 56 45 38 35 35 33 34 33 34
100 94 87 91 83 85 85 86 85 88 86 90 82 79 87 74 79 56 52 72 87 93 90 94 90 84 81 78 72 92 72 63 59 65 71 60 66 53 45 32 36 41 43 39 36
99 96 82 78 92 88 81 73 80 65 73 63 82 82 84 89 79 69 61 72 86 85 80 89 97 93 91 89 72 83 58 61 62 69 66 65 65 43 36 37 38 41 46 48 44
96 87 82 75 86 89 86 70 71 82 98 91 89 94 95 78 78 71 73 65 73 77 71 65 57 66 88 85 80 58 60 66 70 70 81 64 65 38 38 39 40 40 42 47 48
78 84 76 91 99 94 88 76 87 92 80 100 99 98 85 95 79 73 89 79 93 99 100 95 75 57 68 87 64 57 73 86 68 82 77 72 74 49 41 41 40 39 41 44 46
70 71 73 89 89 87 81 84 89 94 99 97 98 88 83 89 84 81 86 82 69 82 97 94 95 65 56 64 74 67 68 84 56 65 58 72 73 41 44 38 36 40 42 45 49
69 64 72 76 72 78 89 96 93 97 100 100 91 98 100 90 83 94 84 78 70 62 79 81 92 61 62 59 58 68 80 60 83 79 81 59 53 32 42 42 41 45 49 48 51
76 72 67 70 82 80 92 97 100 100 96 84 95 83 97 92 100 95 76 67 69 62 56 66 94 70 64 56 61 62 65 79 85 73 58 46 50 32 42 41 45 46 48 49 55
68 77 58 76 76 90 99 100 98 83 88 78 87 87 89 88 81 78 69 66 59 63 58 64 72 84 65 71 76 72 79 80 72 73 57 45 31 40 39 44 49 45 47 51 69
81 84 62 83 92 94 98 96 81 84 80 66 64 69 73 70 71 74 70 61 54 55 66 62 79 94 81 65 62 63 73 69 80 81 91 84 50 42 43 44 47 45 48 56 73
96 90 57 82 98 97 87 92 86 88 80 57 60 59 60 64 70 69 65 62 56 54 61 59 79 95 87 71 68 75 73 68 72 82 97 79 42 44 50 46 44 47 52 76 69
91 92 90 92 92 92 92 93 82 80 67 58 61 56 63 71 69 71 70 72 59 59 60 56 71 71 80 72 81 90 82 73 76 90 80 82 61 47 45 48 48 49 65 74 67
95 93 85 99 91 91 86 85 80 86 73 64 62 61 66 76 74 78 73 72 69 68 64 62 84 79 73 68 82 79 81 81 82 76 81 58 72 51 49 52 46 49 78 74 63
94 93 86 89 85 82 78 77 83 86 84 73 77 76 63 70 62 80 74 71 71 66 65 67 97 88 85 72 83 89 79 82 77 75 75 71 72 48 46 49 58 80 80 71 59
90 87 98 84 89 83 82 74 76 76 82 82 76 80 80 82 76 61 61 64 65 71 74 71 90 87 84 75 79 91 83 79 82 78 67 83 62 52 54 60 66 85 76 64 60

GFSSW_925_rhum_054.txt.gz
RH
82 80 82 80 83 83 87 84 80 86 91 83 80 72 72 79 86 95 94 69 70 81 87 69 78 80 57 44 41 43 38 38 37 35 28 23 23 22 21 18 18 18 24 42 52
76 75 79 81 82 84 82 86 85 81 84 92 82 77 72 73 80 84 82 81 78 74 84 64 73 73 56 46 40 36 37 29 26 28 27 26 21 24 24 24 22 23 28 62 68
79 80 75 82 82 78 80 84 82 82 82 91 80 84 75 75 67 65 67 84 83 73 70 69 66 67 63 50 40 36 36 29 38 30 29 27 27 26 23 27 19 21 29 49 76
85 84 79 82 82 82 82 81 81 83 84 87 80 83 77 65 80 59 72 88 83 75 65 68 66 77 66 62 42 46 32 33 39 40 39 34 27 29 26 21 23 27 29 29 57
87 88 85 82 83 82 77 79 82 83 84 86 87 89 83 65 63 71 71 68 81 77 63 62 66 72 65 56 51 47 43 37 34 40 41 38 36 29 31 27 26 27 31 28 27
90 89 87 87 87 86 85 84 88 87 86 86 88 80 73 82 54 60 70 67 65 75 64 61 56 53 54 56 53 42 42 40 35 41 40 42 38 39 30 26 26 27 25 24 26
88 89 90 88 92 87 84 84 87 87 86 86 86 81 71 59 63 76 70 66 66 67 60 64 52 53 51 56 47 48 51 40 44 38 36 37 40 44 27 23 25 23 23 25 26
86 89 90 90 86 87 84 83 84 81 85 87 87 83 67 53 56 75 74 64 65 64 62 70 58 47 48 45 50 51 44 53 33 39 41 38 28 32 31 30 29 26 24 26 26
92 94 96 90 85 79 82 87 90 90 89 85 82 67 55 64 75 67 76 63 67 68 74 71 65 52 54 57 59 48 42 41 47 42 34 39 30 26 26 32 30 28 26 26 26
86 89 93 82 85 80 89 80 90 78 86 81 72 70 49 61 63 76 81 72 78 65 82 80 83 73 56 53 52 51 46 46 39 45 48 47 36 37 33 34 33 28 25 24 26
88 94 94 96 83 85 87 77 58 65 70 55 53 60 61 82 80 87 71 89 71 74 93 76 97 81 60 45 40 39 46 40 43 44 44 42 44 39 34 32 31 27 25 24 23
92 94 96 87 82 86 85 66 64 73 64 55 56 57 56 86 91 92 71 95 69 80 76 88 95 52 47 50 50 46 43 43 54 46 45 45 45 36 33 32 32 30 27 26 25
92 93 93 86 82 83 81 82 80 79 68 58 62 62 72 81 73 79 61 92 74 85 86 95 78 54 53 56 55 53 48 53 48 48 44 45 40 37 33 28 30 27 25 23 24
95 95 87 81 77 82 85 85 86 84 81 64 89 86 90 93 72 60 74 88 92 96 86 95 75 59 58 56 47 64 56 54 54 54 49 46 33 38 28 34 32 32 32 33 33
94 84 80 76 84 79 84 68 85 70 87 76 93 83 78 78 69 66 76 90 85 93 94 96 89 85 65 56 49 66 55 52 51 53 55 50 47 34 28 36 35 35 36 38 40
95 72 66 81 88 98 86 73 71 87 90 90 82 94 90 71 68 63 64 68 72 74 73 93 89 86 90 92 61 50 51 52 53 56 71 53 48 28 28 32 36 35 36 38 41
97 78 68 81 83 87 81 75 91 84 76 89 96 95 74 76 67 64 84 78 92 96 100 96 83 86 85 96 76 52 61 85 79 86 60 54 54 29 30 32 37 40 39 39 42
92 67 72 72 76 80 82 84 83 91 99 82 96 80 93 87 75 90 96 71 62 80 100 99 97 82 83 76 75 73 62 68 59 53 43 56 42 30 29 29 30 35 39 40 43
76 62 75 79 79 84 78 94 96 96 98 100 90 90 100 76 80 92 78 68 58 61 76 96 96 56 53 50 52 62 74 49 62 61 59 36 37 33 31 33 33 38 41 43 45
89 78 70 70 83 80 88 98 100 97 92 82 84 67 77 77 85 92 65 58 59 53 48 59 92 62 57 50 50 53 47 69 78 65 49 34 32 25 38 37 33 38 42 42 48
78 65 59 78 75 75 100 100 96 75 80 70 67 69 67 71 71 62 62 58 51 52 46 51 59 80 59 64 61 58 61 59 50 51 34 21 23 25 33 31 35 36 39 42 55
86 91 63 76 88 83 86 85 74 75 73 67 55 59 58 60 60 57 57 54 49 45 50 54 60 80 75 57 54 52 53 46 60 67 66 52 27 31 27 32 35 37 40 46 56
95 79 62 91 95 87 78 82 77 72 64 54 54 52 52 54 60 56 55 56 50 48 49 50 67 85 84 66 61 67 59 52 57 70 80 44 30 34 34 33 32 40 41 52 58
84 89 71 74 78 77 81 81 71 69 62 52 53 48 50 54 53 60 60 61 54 55 59 47 58 62 60 72 69 86 68 57 76 85 54 45 37 36 33 33 37 39 46 59 56
82 89 79 94 78 76 74 73 71 67 62 54 51 50 49 55 58 60 63 61 58 60 53 51 89 72 61 62 78 71 69 67 82 64 76 41 44 30 31 36 38 41 61 63 54
86 94 80 79 74 72 73 72 73 74 77 58 54 60 54 52 48 58 58 56 55 56 53 56 92 81 78 63 68 78 62 64 62 57 58 53 54 34 34 36 43 51 66 62 54
84 88 96 78 73 69 70 67 69 73 76 67 60 58 60 64 63 50 49 46 49 54 57 58 75 77 74 66 66 73 62 60 59 57 55 66 46 37 40 45 51 62 67 59 54

GFSSW_925_rhum_057.txt.gz
RH
88 78 76 77 77 84 82 84 85 82 86 85 89 83 76 74 77 75 83 83 64 71 87 57 67 74 54 42 32 33 45 42 34 28 23 18 20 17 14 14 14 12 16 36 43
84 82 83 82 78 82 78 79 82 82 83 84 87 78 81 76 61 50 71 87 73 68 76 52 66 66 57 45 38 40 45 38 26 22 23 19 20 16 20 17 14 16 22 42 45
78 84 87 84 81 81 80 81 82 79 80 84 87 86 78 73 53 39 45 75 84 75 77 48 53 63 58 43 39 36 31 26 21 26 27 22 22 14 20 17 15 16 16 31 47
78 88 88 85 85 80 83 81 75 80 84 84 84 88 82 62 59 38 46 68 84 77 59 59 45 68 61 56 38 38 28 20 24 29 33 25 19 21 20 17 15 16 23 23 40
82 87 89 86 87 88 87 84 83 82 86 87 88 89 75 67 50 45 74 70 82 79 51 51 47 57 59 49 40 40 28 25 29 37 35 24 22 22 21 19 21 22 24 22 22
87 86 90 90 88 88 90 86 85 86 84 77 81 77 65 71 37 36 61 76 84 76 48 44 43 44 49 49 41 36 35 32 29 36 37 37 28 27 24 20 22 21 21 19 21
90 90 92 95 91 87 90 85 83 85 85 87 85 76 62 52 40 66 69 75 66 84 48 42 39 42 44 53 40 39 42 36 32 32 36 35 37 35 25 21 22 20 19 18 17
88 90 85 94 95 87 88 79 86 85 90 88 87 73 67 43 44 45 71 85 72 70 49 43 47 38 45 41 47 48 42 51 34 35 31 34 34 24 24 22 21 17 17 16 16
91 86 91 94 82 88 80 83 86 89 88 85 81 66 52 46 43 46 66 75 59 78 48 49 59 48 48 55 59 50 47 39 31 28 34 40 27 21 24 25 23 20 19 18 18
87 92 94 95 82 86 82 82 80 76 75 72 70 66 44 40 44 58 64 64 64 63 61 76 77 76 58 53 60 48 42 28 28 39 32 34 33 23 24 23 25 21 19 19 19
88 93 96 80 84 84 79 66 59 67 58 52 50 46 52 66 76 60 72 67 72 59 76 88 93 92 56 37 29 26 31 24 25 37 38 33 32 25 25 27 26 23 21 18 17
92 94 96 78 87 71 72 53 61 70 65 44 46 45 45 88 88 87 68 58 86 68 56 95 96 64 41 34 33 36 32 32 34 38 38 31 35 31 28 26 23 23 22 21 20
98 94 91 81 70 67 66 73 74 72 72 52 53 55 64 90 95 81 69 72 75 56 69 71 75 71 73 46 42 37 40 33 39 45 38 38 39 33 31 27 26 24 22 20 21
98 94 89 72 84 71 64 81 84 71 88 66 82 79 91 88 88 76 83 92 75 70 76 82 62 80 76 53 39 43 31 34 47 46 36 36 24 37 31 31 28 25 23 25 28
99 97 78 82 69 64 76 76 78 71 92 81 90 82 84 93 87 87 85 88 87 94 86 94 78 89 61 51 38 39 44 47 48 48 48 44 40 32 28 34 32 30 31 34 34
99 94 82 76 72 80 79 73 71 97 94 100 92 96 90 76 78 92 88 70 62 84 85 93 87 89 65 68 47 49 49 49 48 51 68 44 35 35 30 29 32 32 33 35 37
99 90 81 78 62 84 82 73 96 90 92 100 99 81 56 65 76 85 92 91 93 100 100 99 98 89 78 82 62 52 60 88 88 86 59 42 49 29 21 26 30 33 34 36 38
97 72 76 73 78 81 73 89 89 84 100 87 94 70 91 73 74 74 77 74 58 69 99 100 100 98 91 84 92 74 58 67 64 64 50 44 43 28 24 29 31 34 37 38 39
85 68 72 73 86 86 81 96 91 95 96 99 63 84 77 60 73 83 63 60 57 54 89 95 99 93 86 82 71 88 76 46 48 44 44 35 31 30 26 29 29 35 38 40 41
82 64 59 77 89 74 86 93 96 86 80 70 69 58 60 60 63 65 52 49 55 46 42 60 94 69 68 67 59 64 46 69 78 64 43 34 27 24 34 33 30 34 38 38 41
71 56 68 84 83 62 99 92 87 64 67 65 54 55 52 53 49 49 51 52 44 44 40 45 53 80 55 59 56 54 57 51 49 45 35 23 23 23 28 30 33 35 38 39 46
76 90 70 81 77 64 69 68 72 61 60 61 48 46 46 47 50 46 50 46 42 38 44 47 54 77 70 50 47 46 45 42 63 58 53 46 34 23 24 27 31 36 38 40 49
87 61 70 82 86 74 69 67 62 56 52 48 48 46 44 45 53 46 46 50 44 42 43 42 62 83 78 58 53 60 49 43 47 71 78 40 37 25 24 29 30 37 38 45 51
66 87 65 55 61 60 62 68 58 61 50 46 45 42 44 45 42 52 53 52 48 46 57 41 50 60 61 78 61 76 58 51 76 85 47 37 37 34 30 30 34 35 37 49 51
61 79 77 85 62 63 59 56 53 53 48 44 45 43 42 48 46 48 50 54 51 55 46 44 88 69 55 53 79 70 63 61 91 61 74 34 33 31 26 32 34 35 47 54 51
77 90 73 76 61 62 62 53 56 57 56 48 47 45 41 42 41 47 47 44 45 48 45 50 87 76 80 54 58 72 55 56 58 54 48 44 44 28 29 32 39 42 55 58 50
61 74 93 74 60 60 62 58 57 59 61 56 44 44 44 53 48 39 38 36 39 44 48 52 68 76 69 58 58 67 54 52 52 48 48 59 40 32 37 41 46 51 60 53 50

GFSSW_925_rhum_060.txt.gz
RH
86 77 80 82 84 81 80 82 80 81 84 87 84 88 83 81 76 74 79 79 76 79 66 56 65 70 76 56 45 37 62 64 52 44 32 20 21 18 16 17 14 15 40 42 71
85 77 79 85 84 83 81 81 79 81 80 81 84 84 88 84 75 60 53 68 89 73 67 55 60 67 79 56 50 46 62 54 37 29 30 24 22 22 20 21 19 16 35 40 64
76 76 82 87 87 84 84 81 80 78 80 81 84 84 90 80 68 52 44 58 76 82 63 58 52 67 78 53 48 44 54 41 32 28 32 29 22 19 22 26 19 18 26 44 52
84 86 86 88 87 85 88 87 82 79 82 84 86 85 90 77 84 51 51 46 72 87 63 66 44 70 74 63 44 45 40 33 30 34 32 29 23 22 22 22 21 29 27 34 48
86 87 90 92 92 90 90 88 87 82 82 86 88 87 83 74 65 46 46 47 74 86 62 66 49 63 68 55 45 48 36 30 28 39 36 26 27 26 22 21 22 26 26 24 22
86 87 90 90 91 95 93 88 88 85 82 81 70 72 76 77 44 40 46 68 69 76 70 52 44 46 51 48 49 40 38 33 32 40 36 32 30 26 24 21 24 22 23 24 23
86 87 88 89 93 93 95 88 86 83 87 88 87 77 68 60 40 69 54 59 84 76 68 46 40 41 48 56 44 38 44 44 34 40 40 36 40 36 26 23 26 25 25 23 22
91 86 88 90 95 84 86 86 80 87 86 89 79 75 73 49 48 44 50 62 66 83 75 45 39 40 47 45 54 49 47 59 38 38 38 41 49 34 28 30 30 25 22 22 21
89 91 91 94 91 78 86 80 86 87 89 87 83 75 63 39 44 42 40 58 69 82 75 53 45 59 49 64 74 64 62 57 46 34 36 40 42 31 25 29 30 27 23 20 20
92 91 94 94 77 78 64 66 80 75 77 67 72 76 55 43 58 45 50 62 83 78 82 71 71 80 68 76 86 69 73 46 46 37 37 47 47 28 27 27 29 26 23 22 22
92 94 95 93 80 61 78 76 67 72 56 57 55 56 48 57 66 57 71 75 78 91 88 68 85 87 74 59 45 41 48 49 34 36 39 42 44 34 28 28 30 31 27 24 23
93 96 92 89 67 69 72 53 68 70 70 44 42 42 50 71 82 62 75 92 96 92 69 85 89 64 54 48 45 36 39 42 30 40 42 40 38 31 29 31 31 31 28 25 23
97 98 95 81 71 71 58 71 80 71 73 52 53 56 68 76 86 78 80 85 96 89 73 79 66 57 57 50 46 40 44 36 41 44 39 39 42 38 32 28 27 27 28 25 23
93 100 96 74 80 64 61 72 77 68 98 77 78 93 84 84 86 86 75 79 92 67 62 85 71 71 80 69 42 48 34 33 46 55 57 42 43 41 38 34 31 30 27 27 32
93 100 93 73 82 61 72 71 72 77 94 81 89 85 87 96 86 88 80 77 86 85 78 93 86 80 94 73 44 40 36 48 51 56 52 51 59 41 37 39 36 33 36 39 40
94 99 82 74 79 74 77 77 77 100 96 100 93 93 96 86 80 78 83 83 61 82 82 94 75 80 82 82 76 44 53 53 50 57 88 58 47 49 41 38 37 36 40 42 44
97 100 83 79 70 75 76 81 100 94 90 99 100 94 94 88 87 86 93 86 89 97 100 97 96 87 91 87 63 56 67 86 94 96 84 45 53 50 31 34 36 40 42 44 44
80 80 77 72 76 77 81 98 90 82 100 93 84 70 86 86 95 90 83 83 71 81 99 99 100 97 93 82 82 64 65 89 73 92 70 44 62 37 32 38 39 39 43 42 42
75 70 70 72 83 79 91 94 87 90 93 98 65 70 76 63 70 86 74 70 80 80 99 100 100 94 90 78 76 86 96 48 64 42 78 53 38 31 39 40 38 42 43 48 48
96 64 58 70 84 86 93 87 99 83 74 70 65 51 64 61 63 67 60 50 55 46 47 68 98 96 92 79 78 78 57 73 94 70 66 47 45 42 42 41 36 47 49 48 46
89 66 71 80 84 86 95 85 84 60 60 71 53 50 49 52 46 49 54 51 41 45 42 53 71 98 92 97 98 93 96 64 62 57 65 51 42 28 34 37 38 43 44 43 48
78 82 66 81 93 76 71 62 73 57 56 61 51 42 44 44 46 48 56 52 41 39 50 50 67 94 73 51 52 62 55 62 94 72 71 65 54 26 31 37 41 42 43 44 55
83 68 64 80 83 71 67 61 58 53 50 49 48 47 45 44 54 48 56 49 44 49 51 48 74 93 78 63 53 62 52 48 65 82 86 79 56 28 34 36 36 40 42 52 56
76 89 78 70 60 66 62 68 60 61 50 44 44 42 43 45 43 52 58 52 49 49 52 46 56 73 87 82 74 82 63 56 84 92 71 58 47 36 36 36 37 42 44 56 56
64 84 78 93 73 66 58 52 52 53 50 43 45 43 42 49 46 48 55 58 52 51 47 55 84 78 58 65 94 80 67 66 90 74 74 53 45 39 35 34 40 37 54 56 55
70 88 77 74 67 64 63 51 54 51 55 47 48 42 39 47 50 50 49 51 52 50 48 56 86 82 86 54 64 76 62 64 65 64 60 51 50 33 36 38 42 43 59 60 53
59 66 90 68 66 60 75 64 64 59 58 53 56 45 44 58 47 40 42 39 42 51 53 62 82 88 86 58 60 80 62 59 62 56 58 68 49 38 38 43 46 55 62 56 53

GFSSW_925_rhum_063.txt.gz
RH
76 76 70 76 85 87 87 86 82 82 79 80 84 86 88 89 84 78 81 74 78 80 61 64 57 73 76 78 56 67 96 88 65 58 47 32 25 19 18 20 17 32 52 77 68
84 85 86 86 87 88 87 86 86 80 81 82 81 84 85 90 87 82 70 64 75 83 71 63 67 71 91 80 62 58 82 81 56 44 39 29 25 22 21 21 23 54 78 74 73
84 86 85 90 92 90 87 88 86 82 80 82 84 86 90 87 81 68 47 63 61 80 78 64 55 72 92 72 69 59 68 56 45 44 33 32 27 21 26 25 22 38 69 78 79
87 86 88 89 91 91 92 90 88 88 83 82 85 87 82 77 74 49 55 59 56 68 74 70 58 87 85 76 58 56 48 44 43 43 40 29 24 23 24 25 33 30 54 65 73
83 88 85 88 86 90 92 81 87 89 87 84 79 70 70 81 70 43 50 55 53 72 76 72 67 80 86 73 55 62 44 39 37 39 36 29 28 27 25 28 32 29 29 44 63
84 86 86 87 87 92 92 78 88 89 84 74 81 73 80 91 48 44 47 47 55 76 73 73 57 58 70 65 62 49 47 43 40 44 36 32 31 27 25 27 28 28 28 25 24
86 84 88 87 92 94 89 86 90 88 80 87 87 80 74 68 49 54 59 55 64 70 71 68 57 53 54 58 50 47 54 46 47 45 42 35 39 37 30 29 27 27 26 24 23
87 88 89 93 89 76 81 84 84 85 86 86 86 84 78 47 48 47 50 53 63 86 82 63 56 45 58 54 59 55 54 70 46 46 42 37 52 40 33 32 33 32 28 27 24
92 93 92 92 89 86 75 76 82 87 88 89 84 82 74 46 51 43 44 45 69 77 83 71 59 58 56 72 86 79 77 72 50 43 46 42 50 36 32 35 36 34 32 28 26
95 95 92 92 87 73 71 74 74 78 73 78 78 84 65 56 55 48 46 56 74 87 87 89 75 80 76 88 86 88 74 66 59 46 44 49 48 39 30 35 37 34 31 29 26
93 96 96 91 73 70 62 72 75 81 65 69 65 60 52 59 60 59 69 62 73 94 97 77 88 90 71 69 57 68 61 55 51 39 44 46 47 40 36 31 34 34 32 29 26
90 96 99 94 72 66 61 72 77 77 90 56 55 45 76 70 77 68 67 67 85 97 90 93 89 70 62 62 63 53 62 60 41 39 42 46 53 45 41 34 33 34 34 32 27
87 94 100 89 66 64 72 80 69 73 86 60 58 75 84 77 71 81 70 79 95 99 85 85 71 62 65 65 66 61 52 52 48 46 43 43 47 45 36 32 32 30 30 26 24
89 94 99 91 77 67 72 72 74 74 100 99 94 90 86 79 85 78 75 79 95 93 83 82 68 69 69 65 59 70 40 39 53 58 66 41 58 44 42 39 33 32 32 28 44
93 96 98 94 83 72 68 72 70 79 96 90 89 78 81 88 86 90 90 91 96 86 75 96 84 87 82 70 63 54 37 54 55 57 56 53 60 48 46 43 39 35 32 38 46
93 100 98 79 80 74 76 75 81 95 96 99 93 96 96 89 88 78 87 93 71 82 82 95 76 82 78 79 81 72 55 60 62 67 90 65 60 50 52 41 41 42 50 50 55
76 100 97 84 79 73 73 84 89 96 78 99 100 87 87 86 82 80 90 87 89 95 98 98 96 85 84 79 78 75 69 95 93 94 89 51 64 49 38 40 42 49 50 53 57
63 78 67 69 74 74 80 92 91 82 99 80 87 77 92 91 94 88 85 94 78 86 94 88 100 97 89 88 92 83 62 87 85 98 85 49 69 47 36 39 40 43 49 54 62
74 76 71 73 79 78 94 95 84 92 86 92 75 80 77 80 89 83 80 90 80 82 91 90 94 91 88 89 84 91 86 56 67 55 83 64 41 37 48 51 51 54 53 53 63
90 84 69 78 74 83 92 93 98 87 77 76 90 65 67 71 79 83 65 63 81 77 73 86 97 93 91 92 81 83 63 73 90 62 76 67 52 50 54 51 48 50 54 57 62
90 89 71 78 85 93 92 86 86 70 71 74 70 53 53 56 54 60 66 52 48 53 56 67 78 99 94 98 96 84 88 72 70 70 66 61 53 31 44 42 46 51 54 57 61
85 91 70 83 94 90 86 72 64 60 64 71 59 54 47 48 58 66 68 59 46 44 59 56 77 99 99 77 74 82 79 66 87 76 74 68 60 32 39 39 43 52 50 55 66
95 93 69 80 79 77 72 70 69 60 55 54 52 50 47 50 59 58 66 53 53 56 53 53 80 96 96 73 69 94 82 71 64 82 84 78 58 37 47 47 45 49 49 62 64
95 93 88 77 76 76 72 69 77 63 58 47 47 46 46 48 49 61 65 56 51 49 53 50 67 73 83 73 75 83 73 60 72 84 68 71 47 47 47 44 42 46 53 66 59
90 86 80 97 79 85 77 62 62 65 58 46 50 47 48 54 52 67 63 61 53 46 49 62 80 74 66 78 86 76 69 73 80 66 72 52 46 41 42 41 41 48 64 64 58
87 89 89 73 71 83 72 66 64 61 58 59 57 45 52 66 58 57 60 61 62 51 53 64 90 78 84 65 70 69 68 70 68 64 66 62 58 37 33 43 48 54 65 66 59
72 72 86 79 72 80 84 70 68 69 59 55 62 61 61 59 49 45 48 51 55 60 63 71 83 91 88 61 65 74 69 71 69 65 60 73 54 44 45 49 54 64 68 66 58

GFSSW_925_rhum_066.txt.gz
RH
79 86 86 87 91 90 89 88 88 88 84 82 81 81 84 88 80 89 83 74 72 72 81 67 61 67 79 74 80 83 84 84 73 65 53 54 50 22 20 25 40 55 67 68 72
84 85 86 88 91 90 91 84 88 88 85 80 82 84 87 87 91 91 75 70 69 83 84 68 74 78 87 82 66 85 93 76 53 50 75 69 57 48 22 37 64 94 84 77 73
84 82 87 84 85 89 88 84 83 88 85 84 82 84 89 83 87 77 44 74 68 67 83 68 64 77 92 84 70 68 78 62 54 50 72 62 54 42 26 27 45 88 91 84 80
84 82 83 84 84 88 89 88 81 89 89 85 85 85 74 75 85 58 55 64 65 67 76 80 68 90 88 88 66 69 53 53 52 70 81 68 42 39 28 31 30 66 85 87 86
84 84 83 84 86 84 91 91 78 84 90 76 85 81 74 83 82 47 57 50 50 66 75 84 74 68 87 77 68 71 52 47 45 60 67 56 60 36 26 32 36 55 69 87 86
88 88 84 90 91 93 94 88 80 83 88 73 75 69 74 93 49 56 58 60 55 64 70 79 78 68 73 71 70 61 55 46 56 47 51 61 55 32 27 28 32 32 40 46 72
88 89 88 89 90 92 91 89 89 85 79 88 88 73 79 73 50 56 59 59 64 59 75 75 69 66 66 67 59 51 62 60 57 47 45 42 50 41 29 30 29 30 29 26 26
88 93 91 88 89 87 84 84 85 84 84 86 84 86 83 49 53 52 55 52 55 68 74 69 74 54 61 59 71 69 62 81 51 49 44 37 49 38 33 32 33 31 29 27 28
93 91 95 92 92 88 88 85 84 83 88 90 84 82 76 49 55 52 55 49 64 78 85 82 79 68 64 74 88 85 83 75 58 48 48 42 47 36 30 38 36 37 36 32 29
88 93 96 95 76 94 92 71 80 82 84 82 80 84 61 59 52 54 45 53 73 84 96 96 90 85 78 87 89 78 76 70 60 51 52 51 49 35 33 38 39 37 36 32 28
84 92 95 97 72 69 66 76 71 74 66 77 71 65 56 56 53 66 53 62 75 87 96 94 92 88 78 70 64 67 62 65 56 45 50 56 50 44 38 33 39 41 36 31 28
86 87 96 96 89 69 61 79 78 72 81 62 60 61 70 76 74 81 60 74 85 98 94 99 89 68 68 67 64 66 66 65 46 44 47 50 50 44 40 40 36 37 36 34 29
89 91 96 97 78 72 68 73 71 75 86 78 75 79 84 79 63 88 68 74 91 98 97 87 77 64 66 74 76 67 68 63 52 48 43 51 60 51 46 39 34 35 34 32 29
90 89 99 97 82 77 74 72 75 72 95 99 94 81 81 76 87 74 75 78 92 96 96 82 69 71 76 77 68 75 48 49 52 60 74 45 76 46 47 44 40 39 37 35 40
92 93 98 99 90 76 67 72 76 79 96 94 91 78 86 92 85 87 76 81 91 93 97 97 80 79 81 72 56 60 43 50 58 63 57 56 60 51 46 52 45 43 40 36 54
93 99 98 87 92 75 74 77 82 92 95 99 91 95 91 84 85 82 87 88 76 92 85 92 80 84 79 84 74 71 58 63 66 70 88 64 64 58 52 44 39 39 41 45 57
72 88 98 86 80 73 73 84 89 94 79 98 100 87 92 100 94 88 94 96 96 99 99 96 94 86 83 78 71 69 69 96 94 98 91 60 68 52 39 39 41 49 60 65 68
62 69 65 65 77 76 77 89 88 77 96 80 87 88 97 90 92 92 96 98 81 79 95 92 98 95 86 84 86 82 62 88 87 94 82 54 80 55 42 42 39 46 53 64 70
75 75 71 72 78 79 82 95 84 88 83 92 76 85 100 90 91 90 79 91 84 78 86 94 98 90 85 82 86 94 93 60 69 69 86 68 55 41 50 50 52 55 61 66 70
84 80 72 78 82 84 91 94 95 82 79 83 87 62 91 93 84 79 74 73 81 76 67 82 98 85 87 84 86 92 66 74 89 71 81 71 61 57 58 58 57 60 63 63 69
85 86 75 79 83 89 93 90 86 75 76 77 77 59 57 61 72 69 69 55 58 74 68 76 78 94 91 97 98 96 86 73 69 69 70 67 62 42 52 48 53 54 56 59 71
84 91 76 86 93 92 85 74 64 63 69 77 75 59 53 54 61 73 71 61 51 53 77 66 82 96 90 82 77 82 80 65 87 75 76 67 56 37 43 46 48 51 53 58 67
97 94 76 87 92 87 76 72 74 64 62 60 58 52 49 51 65 68 66 55 54 53 61 60 85 97 97 82 82 97 88 78 71 81 86 76 48 42 44 44 47 54 54 63 68
90 91 83 75 75 82 88 76 79 62 64 50 52 47 49 52 55 67 65 58 52 48 54 54 72 73 84 70 81 88 91 78 80 89 82 80 49 45 50 51 52 52 52 68 64
92 91 83 97 86 81 81 74 63 72 62 49 54 49 52 54 57 69 66 62 54 47 55 57 80 75 72 78 82 74 86 78 82 75 82 61 51 44 49 48 44 47 59 72 64
91 93 87 88 76 86 76 77 75 72 62 63 60 70 54 60 54 68 64 66 63 52 57 69 89 76 82 70 64 65 72 74 68 61 63 62 60 42 39 37 47 53 69 68 63
77 72 86 80 69 80 76 68 72 73 62 57 63 66 61 58 50 47 51 55 52 60 67 69 85 87 82 65 66 73 69 71 69 65 58 68 53 42 45 50 55 63 71 70 64

GFSSW_925_rhum_069.txt.gz
RH
86 82 82 85 86 87 89 88 84 74 75 86 84 83 83 88 89 84 90 73 66 77 74 72 72 62 81 84 82 76 85 73 73 67 60 66 66 48 37 28 57 79 76 76 81
85 81 81 82 81 81 86 87 89 78 81 86 82 82 87 91 86 92 77 79 73 78 85 75 77 76 87 83 86 82 78 66 52 54 69 70 62 57 39 33 82 93 90 86 92
89 89 78 82 84 83 83 89 87 77 72 83 84 85 87 84 82 74 44 64 75 69 71 87 70 76 85 82 78 82 82 58 57 62 77 73 60 53 39 31 55 90 94 89 91
91 90 80 83 86 89 88 91 91 77 76 82 86 88 87 76 69 62 64 64 73 74 71 83 80 92 88 87 74 82 70 55 67 82 78 74 70 71 48 31 38 69 88 90 92
93 86 82 86 86 91 94 94 80 73 76 75 68 76 74 86 83 50 57 61 63 52 70 78 83 88 78 85 75 64 58 50 75 87 84 72 76 73 72 56 39 76 83 90 90
92 89 94 82 86 87 92 91 85 86 85 68 70 73 74 94 52 60 50 50 56 66 70 74 75 69 79 79 79 70 55 68 72 82 62 77 73 68 65 42 38 85 86 86 83
89 90 90 91 86 85 83 87 90 90 82 88 84 70 78 71 51 52 53 49 56 66 70 74 78 68 70 71 63 61 75 70 66 63 70 77 83 89 65 54 33 42 62 57 76
87 87 92 95 92 92 92 84 84 87 89 88 88 86 84 47 54 54 58 54 59 69 64 74 78 63 66 62 74 64 72 86 65 60 60 68 84 76 60 53 37 33 31 29 28
79 88 90 95 94 87 96 96 85 85 88 90 83 82 74 52 62 56 61 65 71 73 70 73 84 71 68 86 87 76 88 77 65 55 50 59 54 51 56 47 36 38 36 33 30
78 87 92 95 96 89 88 67 74 86 88 86 82 84 58 59 54 54 56 66 75 76 81 87 98 85 85 91 82 85 87 68 63 57 50 56 48 38 38 40 40 39 40 38 33
86 84 92 96 97 86 73 81 72 76 69 78 73 69 60 57 53 56 59 64 70 79 94 95 97 81 80 82 68 66 69 67 56 47 55 57 52 45 40 38 44 46 43 40 33
90 89 89 97 97 81 64 79 72 68 74 62 64 66 72 76 70 69 60 76 83 100 89 99 97 64 71 70 66 68 68 68 52 50 53 54 56 46 41 42 38 40 44 41 32
92 91 92 97 95 74 66 70 71 78 88 77 78 82 81 74 62 76 69 74 89 100 99 97 86 67 70 77 75 72 70 66 59 50 46 51 58 52 48 45 38 38 38 38 38
94 92 96 98 89 79 75 74 74 72 98 99 88 85 78 74 75 72 74 77 90 99 97 92 68 73 80 82 73 77 54 53 58 59 73 48 84 56 53 51 46 44 42 40 34
94 96 98 98 83 80 66 72 77 78 95 96 93 80 83 92 84 79 72 77 91 98 99 97 79 81 82 77 60 64 51 53 55 61 58 57 68 60 45 61 47 44 46 42 45
94 100 99 88 94 77 73 76 81 86 96 100 90 93 97 86 87 76 78 85 83 93 92 91 85 79 79 81 60 63 60 64 72 70 89 65 66 68 51 45 38 45 47 42 60
96 94 99 88 81 73 78 81 88 92 79 95 100 95 90 97 91 90 88 96 97 99 100 90 94 88 79 80 73 63 70 96 96 96 92 66 68 52 43 40 39 40 46 45 66
84 75 77 71 78 73 77 84 88 80 94 77 94 88 96 92 96 94 97 96 86 96 100 99 99 93 88 78 80 72 64 89 86 96 85 62 81 60 44 42 42 43 47 64 76
74 79 81 77 80 79 81 91 78 83 80 88 83 100 89 83 94 93 97 97 80 84 82 93 100 88 87 84 81 86 88 58 75 75 88 71 60 43 45 44 46 61 70 73 75
81 80 79 81 82 83 91 91 90 77 78 80 89 64 98 95 89 86 87 80 84 78 65 76 98 86 91 75 82 86 75 78 89 81 89 73 66 52 49 54 58 66 75 75 73
78 86 83 86 87 86 92 92 84 76 74 83 81 67 64 85 80 73 70 64 68 82 69 74 78 93 91 94 82 97 93 78 74 69 72 71 58 47 42 50 58 58 63 74 78
85 92 80 90 94 94 85 73 65 67 76 79 78 69 58 56 68 73 70 64 57 69 78 67 80 91 95 80 74 80 84 74 89 79 82 69 62 35 46 51 54 60 60 64 72
94 94 70 88 94 91 76 73 72 66 66 64 62 54 51 54 68 69 67 55 53 59 69 68 84 97 97 83 83 98 88 75 74 79 87 79 60 40 46 50 54 58 58 58 70
90 85 82 83 79 84 92 77 77 65 64 53 54 49 50 56 65 69 67 59 50 51 56 55 77 74 83 70 82 99 96 87 77 89 84 77 55 39 44 50 54 55 56 62 68
92 96 88 95 83 80 82 80 71 69 61 54 54 60 54 57 60 71 67 62 54 50 62 57 81 77 74 76 79 80 83 86 93 73 80 61 64 42 39 50 53 56 59 73 70
87 80 88 87 83 83 76 79 83 80 70 67 64 72 59 55 53 68 67 66 59 54 61 69 87 75 79 70 66 69 74 88 85 79 79 69 64 41 37 42 48 52 62 70 69
80 79 88 80 82 83 73 72 79 77 66 69 70 69 61 60 53 52 57 57 55 62 71 69 84 83 76 72 64 65 66 78 79 67 66 76 56 43 44 47 50 54 66 68 68

GFSSW_925_rhum_072.txt.gz
RH
90 88 82 82 85 86 80 84 86 88 85 79 79 84 86 89 85 82 90 74 60 78 80 76 76 67 81 82 84 78 81 84 78 70 59 67 64 55 47 34 64 94 82 78 91
88 84 82 81 86 82 86 83 88 88 81 78 85 82 85 90 80 88 71 78 83 76 82 82 81 75 86 85 83 88 78 72 54 58 67 67 61 66 54 45 73 93 97 99 100
87 88 84 81 85 87 89 90 90 91 76 75 86 85 86 79 78 63 68 67 77 75 74 85 76 73 90 85 85 90 78 60 55 74 68 70 73 64 62 40 51 53 88 98 98
88 90 88 76 84 88 90 92 92 77 73 73 87 85 83 74 64 62 68 64 73 79 76 82 80 84 88 93 78 90 85 60 63 77 73 79 69 75 73 52 57 56 70 97 97
87 87 89 92 78 83 90 91 90 79 72 71 77 86 74 82 74 53 59 70 72 78 60 76 81 82 88 84 76 73 63 64 65 81 84 70 73 76 68 58 57 50 91 96 97
85 89 87 91 86 85 84 89 90 90 77 74 85 86 74 84 51 60 54 51 57 60 61 72 69 76 74 82 80 72 58 60 89 83 66 72 69 71 58 58 57 54 92 94 95
76 89 88 85 92 91 90 83 91 91 91 88 83 73 78 69 53 53 53 53 56 60 68 70 79 68 73 81 74 68 87 85 90 83 77 76 82 83 58 55 62 61 66 82 83
86 79 91 83 95 94 96 96 72 80 88 89 91 81 85 48 57 57 57 55 57 72 69 71 81 67 74 66 80 80 80 92 78 78 80 66 84 71 56 72 70 62 40 34 35
88 83 86 86 94 96 95 92 90 71 88 91 79 80 69 52 58 57 57 61 62 77 68 72 84 76 70 89 90 83 94 86 84 62 82 80 78 52 74 76 69 58 45 36 31
88 89 84 86 92 96 90 78 86 84 87 87 84 75 59 64 56 56 66 67 77 80 76 80 92 91 89 92 88 88 90 81 89 78 80 91 81 63 76 82 66 52 42 42 36
86 88 85 89 92 96 84 84 75 76 75 77 74 72 66 58 53 61 66 81 74 89 86 81 97 90 87 78 70 78 75 79 58 64 66 78 72 50 84 84 66 49 45 42 41
89 88 89 89 95 96 70 72 67 62 72 64 68 68 70 77 71 67 70 85 92 87 93 97 100 75 76 75 68 71 75 72 55 58 62 61 68 61 58 60 48 38 37 42 38
91 90 89 89 96 80 66 70 71 75 84 78 79 83 77 79 69 73 66 78 96 98 100 89 90 70 74 81 78 73 79 72 66 58 48 62 74 80 59 56 44 42 40 41 44
91 91 92 95 92 79 74 75 73 71 96 96 82 80 80 78 78 72 74 76 89 92 97 94 82 74 79 83 72 82 60 56 60 66 85 53 89 66 56 48 43 38 48 44 44
93 96 93 98 79 77 66 72 75 74 95 98 86 78 81 88 81 79 73 72 90 96 96 98 93 91 83 79 61 67 57 57 56 64 60 59 73 59 48 54 44 37 46 47 43
95 99 97 94 90 78 70 79 79 83 96 100 92 93 83 79 78 79 74 84 76 94 92 95 75 82 80 75 65 61 63 66 72 68 89 67 70 72 57 46 41 43 46 43 43
97 90 95 88 82 77 78 79 88 90 74 97 100 90 94 100 91 87 86 90 94 99 100 97 97 90 75 84 74 60 73 98 97 96 92 66 72 56 45 41 39 36 42 48 52
83 82 79 76 76 74 78 84 93 78 90 80 89 96 100 96 92 86 88 96 92 100 100 100 99 92 88 75 82 68 64 90 88 96 86 67 83 57 44 44 40 39 41 48 70
81 82 85 78 81 81 80 92 81 81 81 86 84 77 86 92 91 86 90 87 89 93 90 96 100 86 88 85 76 85 91 59 80 78 89 75 61 45 42 44 46 47 60 61 79
79 78 87 81 83 81 92 88 87 73 76 82 91 82 94 85 92 95 91 79 87 84 63 77 98 87 83 77 86 78 69 79 89 84 90 74 68 58 41 41 47 56 73 77 84
78 89 86 88 88 87 92 92 83 75 76 84 84 70 77 88 84 77 76 72 74 81 69 69 78 97 82 89 92 95 94 80 74 71 77 76 60 49 41 38 45 56 74 83 82
83 93 87 94 94 96 87 76 66 72 76 78 80 76 61 60 72 74 72 65 66 75 77 68 76 95 84 79 78 76 86 75 90 83 86 74 68 34 44 48 52 61 70 77 78
91 91 82 94 90 91 79 75 72 69 71 71 62 56 53 59 74 71 67 58 60 70 76 70 85 97 94 79 83 95 85 80 75 82 88 85 67 37 50 50 56 65 68 73 78
87 86 81 87 85 87 87 82 78 67 64 56 56 51 52 61 69 72 69 62 51 55 56 60 78 75 86 70 84 98 87 83 85 94 87 78 60 48 42 43 52 59 63 69 78
90 94 88 92 86 84 83 82 81 77 63 63 57 71 59 60 64 75 69 64 53 58 63 59 82 77 71 76 84 85 84 86 97 80 88 66 65 48 44 41 49 58 62 72 76
78 78 88 86 85 84 76 83 90 85 79 72 74 75 63 57 57 65 66 64 58 56 64 67 83 75 79 73 78 76 80 88 86 82 77 73 77 47 40 42 52 57 63 72 73
86 87 88 81 80 84 74 75 83 81 76 75 77 71 68 67 61 57 59 61 56 62 72 69 82 81 79 75 68 71 70 78 82 77 78 92 66 50 45 47 50 59 65 67 70

GFSSW_925_rhum_075.txt.gz
RH
88 86 86 80 83 86 84 88 87 90 89 92 78 77 76 81 82 84 86 74 78 74 82 80 83 71 85 85 86 85 82 68 64 59 58 61 53 55 48 40 66 87 90 89 98
86 86 87 81 76 77 86 87 89 90 90 88 80 78 77 82 71 81 63 74 67 83 78 87 83 73 84 82 82 83 80 66 57 54 69 64 63 65 51 47 49 49 46 99 99
86 87 86 89 76 80 85 89 90 90 85 80 80 77 76 70 73 57 74 71 64 83 74 85 80 73 88 86 87 85 75 59 57 66 63 66 70 63 55 44 59 59 53 74 97
84 92 86 90 84 80 86 90 90 88 88 83 77 72 69 70 54 63 70 70 67 75 78 84 83 80 89 95 79 85 71 58 66 71 68 75 68 66 67 50 55 55 58 76 90
75 86 89 89 92 84 83 89 88 89 88 86 85 83 68 74 67 54 63 73 70 84 68 80 88 76 84 78 78 77 69 65 77 77 78 66 72 70 64 57 53 49 51 85 86
87 74 78 87 94 90 91 84 90 91 89 88 89 81 70 68 53 59 57 63 69 84 63 76 83 67 75 79 79 71 60 71 78 84 70 67 71 59 60 53 51 52 52 59 88
94 82 78 78 94 95 93 95 84 92 92 89 78 70 72 60 53 56 56 60 69 71 66 66 77 70 74 88 74 70 80 87 81 86 88 65 69 70 52 54 55 55 52 46 61
89 82 85 87 82 95 96 94 94 72 83 91 84 76 68 50 60 59 59 66 70 68 69 70 74 72 78 70 81 77 80 90 84 79 90 75 76 59 55 63 59 57 53 50 37
92 78 85 86 83 92 93 84 94 76 87 89 75 76 57 55 55 57 61 64 67 69 70 67 89 78 78 88 88 85 89 88 95 68 88 79 78 52 58 61 66 59 53 48 41
89 78 80 87 81 85 93 84 91 84 85 84 82 63 59 64 56 61 67 67 77 77 73 75 87 94 92 90 85 95 88 86 78 79 80 77 76 59 67 65 58 60 55 46 39
86 81 82 88 82 90 86 81 73 77 78 73 74 73 64 63 60 70 66 76 71 84 96 79 98 95 84 73 65 75 74 70 76 74 76 82 73 68 68 77 69 56 57 50 42
90 82 88 89 85 97 77 73 64 62 71 65 71 68 72 73 72 77 67 80 92 92 78 90 100 80 77 70 70 70 78 75 58 70 66 78 76 60 74 70 71 65 59 49 40
86 87 92 86 91 90 66 69 69 73 81 81 80 83 79 75 76 81 74 80 98 99 89 82 92 82 77 79 75 74 73 74 67 73 58 67 72 74 65 66 69 65 57 48 37
88 92 92 92 91 76 74 71 71 71 92 89 77 78 79 80 78 72 69 73 98 98 95 84 89 90 81 81 70 80 64 63 68 76 87 62 79 76 67 67 70 64 51 47 39
94 94 92 94 80 77 66 71 73 72 93 98 85 79 81 82 75 71 74 73 93 94 95 98 95 94 84 78 62 72 59 61 63 66 62 63 73 62 61 70 62 62 52 42 41
97 98 95 94 84 74 68 79 74 84 96 100 92 88 79 82 76 76 75 79 74 87 87 94 82 90 73 78 62 61 65 67 73 69 92 69 71 67 54 59 53 45 40 38 39
98 94 95 86 79 76 77 78 87 89 73 99 100 95 86 87 78 83 87 94 88 97 100 97 95 91 79 81 68 62 73 94 94 96 86 67 74 57 46 40 38 36 35 36 42
85 95 85 81 78 80 77 83 84 77 91 78 93 98 100 96 96 77 88 97 87 96 98 97 100 95 83 77 76 65 64 84 87 92 82 70 79 53 43 41 42 38 36 39 47
88 92 84 79 79 81 75 93 80 82 79 86 82 99 100 85 83 85 89 91 91 93 96 99 100 89 90 84 74 78 89 59 80 79 80 68 60 43 39 39 40 42 46 48 49
83 81 91 84 85 79 92 88 87 70 76 81 87 82 94 89 93 98 92 77 96 89 83 84 99 86 86 77 82 72 65 80 86 83 82 68 64 48 37 35 35 37 49 57 70
82 90 91 88 89 84 94 94 81 72 76 85 84 73 87 93 87 88 88 77 80 87 66 70 78 97 76 86 90 88 86 79 70 68 70 72 54 47 40 35 40 40 48 65 76
83 94 91 91 97 97 89 78 67 75 77 78 82 77 62 68 75 75 77 69 73 72 71 67 73 97 98 78 80 82 84 72 86 84 81 69 60 34 37 46 47 53 61 73 75
90 94 95 96 96 92 80 78 73 72 73 74 64 57 55 65 77 74 70 61 70 69 73 70 83 96 91 74 80 93 90 75 76 81 89 79 64 37 44 47 55 59 66 75 77
84 90 85 92 88 89 84 83 78 68 64 59 59 54 53 64 70 73 71 64 57 57 63 60 77 73 82 70 83 95 93 85 85 98 82 73 63 48 44 45 42 54 62 72 76
86 88 88 92 85 86 83 82 80 83 72 68 60 74 65 62 68 77 70 65 55 64 62 62 83 78 67 67 88 90 86 89 91 77 83 65 67 52 47 45 41 43 59 69 78
74 81 87 87 85 85 78 83 92 86 83 76 75 76 65 66 65 68 68 65 59 59 65 66 85 79 80 79 81 83 82 88 86 81 73 68 71 48 48 44 46 47 59 67 71
89 89 80 83 79 86 80 76 80 82 78 76 81 72 75 74 68 62 61 64 58 64 72 68 79 82 81 75 67 71 68 77 83 79 74 84 63 57 59 59 53 49 59 59 62

GFSSW_925_rhum_078.txt.gz
RH
93 94 86 88 79 80 84 84 84 90 91 92 89 78 75 69 75 77 61 63 74 75 78 74 68 65 75 69 64 55 62 52 46 41 38 50 40 43 35 30 55 41 59 72 82
86 93 90 88 84 76 86 85 89 90 92 87 78 78 74 70 74 60 56 74 61 86 79 68 60 65 69 66 64 60 63 48 33 33 46 53 45 52 36 40 41 38 52 86 98
74 87 91 88 92 80 82 90 88 89 90 76 78 74 73 66 59 40 78 78 76 75 87 81 64 64 72 59 65 58 57 38 35 32 46 52 51 51 35 44 44 45 46 64 96
89 73 87 87 92 84 82 89 89 88 88 88 70 66 70 72 56 59 70 76 73 80 87 84 69 65 61 64 57 64 49 41 47 50 51 49 51 50 48 46 42 41 46 60 89
98 90 75 83 91 92 92 84 88 89 85 83 68 78 65 51 42 54 64 75 77 74 84 78 70 51 55 54 59 63 52 47 46 57 53 53 56 51 48 43 41 38 40 72 82
92 95 83 77 92 95 92 95 90 91 90 89 86 67 58 51 49 58 58 71 77 84 77 81 80 40 45 49 58 54 56 48 61 62 59 56 56 51 47 42 38 37 38 44 72
93 90 88 85 89 93 96 93 88 79 92 90 70 69 56 47 55 62 61 66 75 89 72 71 94 60 43 50 45 53 67 62 62 68 61 59 59 56 37 40 39 34 34 37 36
92 90 90 82 87 81 95 97 96 64 81 93 78 71 45 50 60 59 57 73 65 79 86 73 88 62 52 54 56 56 48 83 57 68 74 57 63 40 35 41 39 36 34 36 34
91 87 84 84 84 79 89 92 96 67 87 88 73 66 50 53 49 59 61 60 73 75 79 65 89 74 64 58 63 60 52 49 64 56 74 63 63 38 38 39 38 35 36 37 35
88 74 78 81 81 82 93 94 94 82 90 84 78 62 50 54 54 60 71 70 67 68 78 73 87 85 59 57 63 62 53 52 57 69 64 62 52 50 53 49 36 32 33 37 38
84 78 76 84 82 82 90 82 63 72 71 58 62 59 56 57 62 66 64 64 68 72 95 88 96 90 56 42 35 47 54 59 54 68 61 60 57 51 42 42 38 34 33 34 37
82 78 80 84 93 84 84 63 59 57 62 63 64 60 63 70 62 66 62 66 74 94 86 95 100 74 53 49 44 46 51 51 52 56 55 54 56 45 40 44 43 38 30 33 36
85 80 85 86 86 92 71 67 68 69 61 72 67 67 64 66 63 74 67 71 92 78 98 90 90 67 59 58 50 47 47 50 50 59 54 53 56 49 42 46 43 40 37 34 34
84 84 87 87 90 79 69 68 70 66 88 88 70 69 68 67 70 87 83 70 96 90 87 79 81 82 66 53 43 63 44 47 54 56 57 47 44 41 41 51 48 38 36 39 37
88 89 88 92 81 69 70 68 71 67 80 94 80 78 66 72 64 89 76 69 98 95 84 96 94 95 69 54 44 45 50 47 46 44 51 57 57 34 42 45 42 40 35 37 36
94 92 91 92 84 75 67 77 73 90 95 99 87 72 64 65 64 64 68 79 70 80 85 90 75 88 55 62 52 49 50 53 54 56 68 46 50 36 39 40 35 33 36 38 39
93 94 93 82 72 71 76 71 96 85 73 100 98 76 73 67 66 74 82 75 77 98 100 96 96 83 72 66 53 49 52 82 83 82 60 51 57 38 31 32 31 34 35 33 33
93 90 87 85 77 77 75 75 92 78 97 81 96 84 82 77 82 79 72 80 68 89 100 97 99 95 67 67 63 54 44 57 61 62 48 55 55 37 30 31 32 30 27 30 30
94 83 89 82 83 77 66 92 88 87 75 83 95 100 100 92 78 68 71 72 72 80 84 90 97 88 73 71 60 65 66 46 60 59 57 44 40 29 25 25 28 29 32 32 28
90 84 92 86 83 75 84 85 89 63 71 71 76 76 67 74 75 83 69 64 86 77 72 75 96 84 81 75 62 57 47 65 74 74 57 45 41 26 25 24 24 24 26 29 35
83 75 93 89 88 78 96 85 74 62 66 76 74 77 82 87 73 75 67 77 77 81 74 61 65 94 68 75 62 63 63 60 50 52 46 41 30 25 26 27 31 32 36 37 40
81 95 96 94 92 90 74 68 63 70 67 69 70 59 60 70 64 62 66 63 73 65 69 57 64 92 97 68 65 64 60 49 62 65 60 49 34 24 25 28 36 34 42 50 49
73 87 93 98 91 80 71 72 68 68 66 68 58 52 49 57 67 63 61 57 64 59 57 53 67 89 94 68 66 70 64 58 56 66 77 54 34 27 28 33 38 36 41 48 52
62 89 71 82 70 76 73 74 72 66 60 56 55 49 50 57 57 64 63 58 60 55 61 50 56 58 63 63 59 78 69 66 71 95 56 52 37 32 32 32 32 31 35 44 50
56 74 75 88 69 71 72 73 70 73 63 57 57 60 53 55 58 64 60 55 53 62 54 52 80 68 55 54 77 75 70 69 93 70 73 46 39 34 29 26 29 32 32 39 49
50 58 62 65 70 70 71 78 79 76 74 69 64 61 54 54 54 59 56 53 53 53 54 52 80 75 79 64 68 73 60 61 64 62 58 54 54 36 32 34 38 36 36 39 46
88 82 59 72 66 70 64 69 76 72 74 66 73 61 63 68 59 52 49 50 47 49 54 55 64 71 68 62 62 65 54 56 56 55 57 68 49 39 42 43 44 42 41 39 36

GFSSW_925_rhum_081.txt.gz
RH
77 84 92 88 93 80 81 88 88 89 90 91 89 87 86 75 69 66 56 44 60 73 76 59 58 59 51 52 70 67 89 67 40 39 33 36 31 36 29 24 42 34 50 66 83
82 75 80 90 88 84 80 91 88 89 90 86 77 78 74 70 63 55 47 55 65 77 72 51 56 53 54 53 68 84 86 67 34 28 32 36 31 38 30 31 35 35 44 77 89
95 87 78 85 88 92 83 87 90 88 90 79 74 75 71 64 56 47 68 73 74 74 77 71 52 52 57 42 61 70 78 39 26 22 36 38 43 40 29 35 37 40 41 75 88
92 96 83 75 87 93 89 82 87 88 85 84 77 75 68 63 74 49 67 68 74 75 83 72 64 63 60 50 47 58 50 40 34 39 48 38 36 43 40 40 35 35 44 73 90
89 95 92 82 81 94 93 94 91 87 86 85 82 76 63 47 40 43 57 60 66 77 84 74 71 59 54 43 40 50 37 33 40 42 43 36 35 42 43 38 34 32 42 75 86
91 93 92 87 83 92 93 92 84 90 90 85 72 60 53 48 42 47 50 58 73 76 82 73 76 46 41 37 39 44 40 36 48 42 44 46 45 33 40 36 35 33 36 54 76
94 93 93 90 81 89 93 94 94 67 88 89 71 61 49 40 46 51 53 57 84 95 68 86 97 91 36 39 40 39 53 48 53 53 53 44 47 42 37 37 36 31 31 38 40
92 94 92 95 82 84 96 95 94 83 72 89 67 58 41 49 50 47 46 58 75 73 100 90 97 92 42 31 47 56 47 68 56 48 56 53 55 41 28 36 37 32 30 36 34
90 91 78 90 79 76 88 84 93 84 81 84 70 53 38 48 43 47 54 50 63 69 87 91 95 84 50 50 65 58 60 49 54 47 63 58 50 39 34 32 37 33 30 30 35
93 80 75 84 75 75 86 84 89 74 74 64 58 59 40 46 46 49 55 58 57 65 82 91 91 94 62 52 63 54 39 39 50 56 57 60 53 48 50 43 42 32 30 29 34
90 77 76 82 78 90 85 74 62 67 58 52 48 48 45 46 50 55 54 55 56 83 97 88 97 99 52 35 25 28 31 30 28 41 52 51 49 41 39 41 41 35 30 28 28
80 78 79 79 82 82 82 54 50 55 55 51 51 48 50 57 47 57 52 60 60 100 86 95 99 83 42 32 40 34 50 50 47 46 48 41 41 35 34 38 35 31 29 28 26
82 80 83 82 82 84 66 53 65 59 55 61 54 54 53 58 54 56 61 63 76 93 90 94 91 66 54 43 50 40 41 43 45 46 44 38 41 40 34 32 30 30 28 25 26
82 82 84 82 87 68 61 65 73 66 92 80 61 61 56 53 87 78 72 74 86 88 90 71 81 68 56 42 32 43 29 35 44 55 60 42 36 30 33 34 33 34 32 31 26
88 88 86 85 72 64 64 70 70 59 82 88 68 61 53 64 65 88 83 75 88 82 97 98 93 80 59 43 34 35 33 36 41 45 34 45 48 28 29 32 32 31 31 28 26
95 90 87 85 82 72 70 71 68 90 91 97 75 58 51 53 56 67 83 79 72 88 75 83 73 79 58 41 40 42 44 41 39 40 61 41 40 26 28 29 26 25 26 28 26
91 93 92 82 65 71 76 63 96 87 70 93 83 58 54 60 59 86 94 91 87 94 99 94 95 82 69 59 49 41 47 71 71 75 55 35 37 30 26 25 27 26 25 23 25
92 86 85 86 83 80 66 70 94 76 97 88 75 67 63 58 62 64 65 65 67 84 99 98 98 92 60 57 59 42 39 50 54 52 41 42 46 31 24 25 25 26 24 25 26
82 84 80 80 85 84 70 94 92 92 69 85 82 89 80 70 62 52 60 56 61 67 69 81 98 78 70 59 54 52 57 40 50 43 45 39 31 24 20 20 22 24 26 27 25
76 73 78 83 82 76 84 87 87 60 60 61 78 64 56 59 57 64 54 49 67 64 57 59 97 90 63 64 53 58 38 50 68 65 44 38 32 25 23 24 23 22 22 21 25
72 74 94 86 90 74 92 74 65 54 58 70 62 69 44 54 50 56 47 60 67 67 62 53 58 88 64 95 69 60 60 50 44 48 43 31 26 18 25 27 28 28 31 30 27
65 89 94 89 94 79 61 59 59 62 57 61 59 48 53 54 54 50 54 55 63 61 61 50 59 93 75 57 54 56 46 44 62 55 44 46 33 20 23 26 30 30 36 37 37
61 83 93 98 82 68 60 61 58 61 58 59 52 48 44 49 55 52 53 53 60 56 62 47 66 93 89 63 53 60 50 47 42 68 72 49 31 22 22 25 31 30 30 35 39
58 88 75 85 64 65 61 61 63 58 52 49 46 44 46 48 47 55 57 57 56 53 59 48 52 59 65 60 51 64 52 49 64 93 54 48 36 26 26 28 30 27 25 27 38
45 55 62 85 61 58 60 56 58 60 52 48 51 47 44 49 50 53 53 58 55 62 50 50 75 65 53 48 72 68 57 51 78 69 69 43 35 27 24 23 22 24 28 30 34
42 43 51 54 57 56 67 60 58 65 58 56 52 49 44 45 50 52 49 49 51 51 50 47 77 70 75 51 57 66 53 50 52 52 56 51 47 31 28 26 27 29 30 30 31
60 56 41 60 54 52 51 57 64 62 63 60 59 49 54 64 50 46 43 42 42 46 49 51 58 65 63 51 51 58 50 48 46 44 47 59 44 33 33 33 34 34 36 36 34

GFSSW_925_rhum_084.txt.gz
RH
90 88 79 80 90 91 84 82 90 88 90 88 88 88 87 89 79 74 62 53 53 58 72 68 55 57 55 57 73 74 89 78 59 36 49 30 34 35 30 35 39 50 82 84 81
88 97 87 80 84 90 87 80 88 88 89 88 88 86 78 72 68 56 50 56 56 65 74 71 54 56 65 57 76 86 93 70 45 35 46 34 32 37 32 38 41 53 78 80 88
88 94 93 82 77 90 92 87 88 88 85 87 85 83 75 69 57 52 61 70 68 68 74 78 67 61 71 57 68 86 78 66 52 45 53 38 45 40 41 42 43 44 78 89 92
85 91 92 86 81 83 94 91 85 89 83 84 82 81 63 72 78 54 62 63 63 70 73 78 69 76 71 70 52 76 64 56 57 61 55 44 40 45 42 45 36 40 63 84 93
85 92 94 90 82 81 94 94 92 86 89 87 85 78 73 58 46 40 49 48 62 61 68 86 74 72 70 55 48 62 57 56 53 79 57 52 41 46 48 40 35 37 68 89 92
83 96 92 87 83 81 91 93 95 84 87 89 81 62 69 62 40 45 47 52 72 68 72 74 80 65 65 45 47 47 48 52 54 68 85 56 50 43 45 39 37 35 56 80 86
89 92 95 84 93 83 86 95 94 92 73 89 91 75 51 48 40 46 46 67 77 81 78 71 94 86 78 55 35 37 51 48 78 73 79 55 64 55 43 40 38 35 44 59 77
86 92 95 86 88 83 83 95 96 96 72 75 81 68 57 46 44 41 45 62 71 81 91 97 90 80 81 60 40 58 53 66 59 72 73 61 66 47 41 44 42 35 41 43 45
88 93 79 77 83 75 84 81 88 93 66 74 74 54 49 45 43 41 48 48 61 79 70 93 81 84 78 86 69 66 72 63 62 54 60 65 54 41 37 42 42 36 34 40 39
91 85 77 81 77 78 78 76 82 62 73 62 52 56 55 46 44 46 49 53 57 64 86 88 86 96 90 76 85 71 67 57 58 70 74 67 64 50 57 48 42 41 36 33 43
85 78 76 79 80 76 84 86 74 70 56 54 49 44 38 43 42 45 49 49 58 80 98 94 99 100 82 55 44 51 46 54 47 55 64 66 62 54 55 52 53 47 44 37 35
86 77 80 80 77 77 76 73 55 58 61 46 47 44 44 50 50 50 54 59 62 100 99 97 100 83 64 47 37 38 46 55 64 54 55 58 57 50 42 52 48 46 42 39 34
85 82 82 79 80 81 80 53 61 55 67 56 49 49 49 54 54 59 61 59 82 99 97 98 94 78 71 64 54 37 40 73 72 58 48 45 53 44 36 36 39 39 38 35 32
84 86 80 82 83 71 61 60 67 64 98 78 61 61 55 50 91 72 66 71 74 98 86 90 80 88 80 64 50 60 36 41 47 58 72 47 60 43 37 42 40 40 38 38 32
90 90 84 82 86 65 64 66 66 61 90 82 65 50 50 66 83 81 78 76 72 80 90 95 83 76 64 54 44 53 45 45 50 59 56 57 65 38 36 43 41 38 37 39 37
95 91 85 83 82 67 67 65 67 97 91 88 65 53 52 52 67 79 86 84 77 90 79 90 69 79 84 52 47 52 55 43 41 48 80 50 54 42 40 34 32 33 34 36 36
88 85 90 72 72 69 72 72 99 88 69 80 76 55 49 59 75 91 89 83 95 97 99 92 95 76 71 65 50 45 54 87 89 91 79 39 50 48 31 29 27 26 27 31 34
85 84 83 82 80 75 72 86 87 76 96 71 65 56 64 58 60 54 65 72 66 79 91 96 96 88 69 72 60 54 52 83 65 77 63 39 52 38 27 30 30 28 28 28 31
88 85 79 78 79 82 81 92 88 93 74 75 72 69 69 59 56 49 53 69 75 68 94 90 94 80 73 73 65 59 70 43 67 41 75 56 39 28 24 25 30 30 28 30 27
84 76 87 82 72 80 93 86 90 64 55 58 84 74 56 54 54 60 53 49 68 61 57 57 97 83 81 72 58 62 47 62 86 73 48 50 38 38 31 28 24 25 27 28 25
86 82 95 79 86 84 98 72 63 52 55 61 58 55 47 53 46 52 51 60 60 65 62 54 67 93 75 83 73 69 68 55 53 60 70 56 43 30 35 33 37 40 37 33 28
70 95 95 90 99 80 74 58 63 56 54 58 60 46 45 48 49 49 49 64 62 57 63 52 71 93 77 64 55 61 73 54 88 68 65 60 56 29 35 34 36 41 41 41 39
72 87 93 97 98 81 61 61 53 61 58 57 53 48 44 48 59 50 52 59 61 58 63 53 79 97 87 66 60 70 59 56 59 78 76 75 49 26 30 27 34 36 32 44 42
70 96 93 89 73 75 63 63 67 58 52 48 46 44 46 47 46 57 62 58 59 54 58 58 59 68 90 70 67 72 59 54 72 97 72 71 54 31 28 30 35 36 32 32 48
65 77 69 92 79 66 56 54 58 62 55 48 51 48 45 50 50 54 57 66 61 62 54 58 79 71 61 47 76 74 63 59 79 70 82 59 50 37 32 30 31 33 32 32 33
57 61 62 59 52 60 63 62 50 64 56 55 56 48 45 51 56 54 51 56 59 60 53 52 91 79 84 54 56 73 62 57 56 56 65 63 63 44 39 36 37 37 36 36 36
56 50 59 60 59 60 61 51 51 59 61 58 52 48 56 64 52 51 47 45 46 54 60 59 71 78 81 52 54 72 57 59 55 50 54 68 54 44 44 41 41 42 43 40 41

GFSSW_925_rhum_087.txt.gz
RH
88 87 95 86 80 80 92 88 84 89 87 89 90 91 89 90 85 79 79 61 60 58 68 66 58 62 62 67 77 73 89 82 73 53 53 34 38 36 31 50 66 74 88 86 86
86 87 95 91 82 78 90 90 84 87 86 88 88 88 90 75 70 68 60 59 69 64 66 71 68 65 74 70 85 93 92 77 56 73 63 36 40 38 36 48 79 91 87 92 83
81 86 96 92 86 78 85 95 90 89 86 84 84 82 76 67 75 62 62 61 63 67 67 67 75 83 82 72 76 93 89 65 69 70 74 46 45 41 41 52 49 90 99 93 96
86 88 96 92 90 82 81 95 93 88 87 88 87 82 67 69 85 56 54 63 55 65 67 74 73 91 82 80 65 84 73 66 62 76 71 56 43 47 45 47 45 71 88 91 97
83 85 97 88 88 85 81 94 92 92 86 91 84 78 63 75 61 46 48 47 54 60 67 79 83 87 81 76 65 80 79 76 67 74 75 62 64 48 50 42 58 76 85 95 95
86 90 94 90 88 78 81 88 94 96 88 90 89 73 73 88 42 42 47 58 56 62 68 72 80 73 82 68 69 62 65 61 59 76 71 78 77 70 49 42 52 80 90 95 93
87 88 94 86 78 75 83 85 95 96 94 82 90 82 75 71 43 42 48 64 63 66 78 75 83 92 92 70 48 52 66 62 84 71 70 82 81 81 49 44 45 71 89 90 86
86 89 95 83 76 79 79 84 96 96 96 71 83 82 76 44 39 42 46 68 68 67 63 76 99 79 91 75 64 59 66 82 83 75 70 68 86 59 50 51 47 54 77 84 83
90 90 84 76 76 79 80 87 85 88 78 60 73 77 66 45 44 43 48 54 67 84 92 75 83 86 88 90 78 74 79 74 89 71 77 70 87 69 58 50 50 50 56 53 56
92 88 78 78 77 78 72 75 81 67 72 71 65 63 57 49 43 46 48 52 62 71 78 84 88 96 93 94 81 82 78 66 75 80 73 81 85 81 66 54 52 46 44 51 48
91 82 81 80 80 76 75 83 83 82 71 62 56 53 46 46 40 52 52 52 61 77 96 95 98 100 94 89 79 59 62 62 61 69 78 80 74 68 60 55 56 53 51 47 47
90 82 80 80 79 76 76 90 64 61 72 48 50 50 44 50 58 62 58 66 71 99 98 98 99 83 73 68 68 57 63 63 59 60 60 74 74 62 59 57 54 53 52 50 44
89 81 82 77 78 78 75 72 58 59 75 60 51 54 57 56 72 77 71 73 80 100 100 91 96 77 76 68 57 64 61 80 62 75 75 70 72 60 53 56 54 53 50 49 47
88 89 83 81 81 68 72 62 57 64 98 82 65 61 60 80 83 69 72 76 79 99 96 98 80 78 77 67 61 67 58 74 71 72 95 63 76 57 52 50 56 57 54 50 46
87 86 84 83 83 68 65 63 63 64 91 78 65 50 57 71 78 72 75 80 92 91 94 99 93 89 84 69 61 63 59 72 78 67 73 62 68 51 46 52 48 50 51 48 45
92 87 86 81 82 66 67 63 70 89 93 82 73 63 67 76 81 75 86 86 78 84 79 94 84 87 86 72 68 72 61 58 65 67 79 66 67 60 53 42 45 45 46 43 43
79 83 85 81 76 68 71 78 88 90 70 74 76 58 60 84 88 83 80 93 94 87 98 83 90 79 74 67 73 80 66 95 90 87 79 50 62 58 35 35 37 39 44 42 44
77 84 87 82 70 72 76 92 86 72 86 68 67 60 75 63 62 79 84 85 71 84 89 93 83 91 77 82 78 78 56 82 83 90 68 48 62 44 33 33 33 32 32 31 31
82 86 86 81 71 78 87 94 90 88 78 83 74 76 72 63 64 55 67 83 79 71 85 95 93 78 75 81 73 64 78 48 73 56 80 63 48 33 34 36 34 32 29 30 32
84 84 91 77 72 81 94 82 88 82 69 66 82 75 63 60 61 63 61 59 74 67 69 70 98 81 80 71 60 61 55 65 85 68 58 66 48 44 33 32 30 31 31 32 28
79 94 92 78 80 94 95 78 70 57 60 63 71 70 52 58 56 57 71 65 64 68 67 62 75 94 78 87 80 72 70 61 60 69 71 62 51 38 38 40 46 46 44 42 40
80 100 92 89 96 92 92 67 57 63 57 66 65 66 53 52 51 55 68 73 64 63 66 57 81 86 80 65 64 65 74 69 86 70 73 69 58 32 42 44 46 47 45 43 41
87 98 92 95 97 95 69 66 60 68 68 64 63 50 46 53 62 55 73 68 64 62 70 60 85 97 85 72 65 73 69 69 68 76 79 77 55 31 40 41 44 47 48 50 49
87 98 98 96 90 91 76 78 75 57 58 50 52 46 49 51 50 59 73 66 63 59 56 59 69 72 84 70 74 80 66 64 74 90 77 78 57 39 33 33 34 42 36 47 53
80 91 77 98 95 92 65 69 74 71 59 52 54 52 51 55 56 58 69 72 64 61 56 64 81 76 61 56 77 76 66 66 83 72 80 60 61 45 44 34 32 34 39 37 53
69 86 78 86 75 89 69 67 69 66 62 61 63 50 55 68 64 66 66 69 70 67 59 61 87 81 78 60 60 68 67 67 68 66 72 68 68 47 48 46 46 43 41 42 40
59 54 65 72 77 80 78 64 58 69 64 64 62 60 72 70 62 56 56 50 49 68 68 68 76 83 90 56 58 66 57 64 63 58 60 76 57 50 53 51 44 44 45 46 46

GFSSW_925_rhum_090.txt.gz
RH
84 85 82 95 91 80 81 94 90 85 87 84 88 90 91 90 76 76 86 56 66 70 67 64 64 62 61 71 74 79 98 80 74 53 43 36 40 36 39 64 78 80 80 72 83
88 80 87 97 92 81 79 87 95 88 89 85 86 85 87 85 74 74 54 68 68 69 67 70 71 73 80 78 82 96 90 74 63 73 61 62 40 37 54 66 83 94 94 86 88
83 86 88 96 92 87 83 83 96 93 88 86 87 84 83 73 78 63 62 59 55 65 71 71 67 79 87 72 85 71 86 78 74 76 74 64 45 40 55 56 55 88 85 92 85
87 86 82 97 90 88 85 82 95 94 90 88 87 86 69 68 69 52 57 54 61 58 59 73 72 87 90 79 72 81 77 78 72 82 75 72 66 53 48 49 56 88 88 91 94
87 88 90 94 97 79 83 79 91 92 93 87 89 83 64 77 74 47 46 48 54 57 64 74 81 74 87 84 72 81 72 75 82 75 80 76 78 74 52 54 68 87 89 91 93
91 84 88 95 85 71 83 83 86 96 92 85 91 86 74 85 45 42 46 51 58 55 62 69 77 66 91 93 78 68 64 70 88 76 72 74 75 67 49 56 88 90 95 96 91
93 88 84 92 90 82 79 83 84 96 97 93 85 87 80 74 46 44 46 61 60 56 72 87 79 86 81 80 66 65 79 68 82 85 81 69 70 78 59 48 89 94 95 98 94
94 87 91 88 75 75 81 82 94 96 96 95 84 84 89 47 43 44 44 65 64 63 74 79 87 83 91 82 79 71 78 96 87 89 89 70 78 64 58 52 66 88 93 96 95
95 89 89 80 73 76 78 87 97 96 94 82 77 80 78 47 46 42 43 54 70 80 78 83 94 91 83 94 88 76 92 93 99 82 88 84 84 62 65 76 59 70 84 90 93
96 88 80 75 75 79 85 87 71 67 74 72 70 71 52 53 45 43 51 51 66 74 79 83 90 96 95 98 89 93 84 70 92 89 82 87 86 80 68 70 72 61 65 63 81
96 86 82 77 81 77 87 80 78 78 77 66 60 61 51 46 46 57 58 60 65 76 92 92 93 99 97 93 85 64 67 73 77 82 73 84 76 73 77 82 77 61 54 55 53
92 85 80 78 78 77 81 89 64 60 73 56 52 53 48 52 64 64 58 70 75 100 97 99 96 84 90 82 75 63 66 68 69 66 69 83 81 69 84 81 71 61 60 55 48
93 83 80 76 78 78 77 73 59 58 79 64 54 57 57 62 79 80 75 79 95 100 100 99 89 75 83 85 75 67 66 64 80 79 74 75 81 63 70 66 58 57 54 52 52
87 85 81 81 78 72 77 62 58 64 92 81 67 60 62 74 83 66 74 81 96 100 96 98 81 77 90 74 57 70 57 53 76 90 100 79 89 68 52 57 58 53 64 59 53
83 88 80 80 81 76 63 63 64 60 75 58 70 52 60 77 80 65 74 84 96 97 93 98 87 84 82 77 60 68 61 61 72 82 95 93 94 55 48 58 54 59 58 59 56
89 88 82 82 85 70 65 65 71 79 86 78 72 68 76 74 75 78 84 88 91 92 84 93 81 89 91 77 68 68 72 75 81 90 96 74 79 53 58 58 48 47 53 55 52
90 84 84 78 80 68 68 78 86 87 64 75 73 64 68 87 83 85 84 89 96 87 96 91 95 85 79 77 70 69 82 99 98 98 77 60 73 57 43 39 44 45 48 49 49
82 80 86 85 69 71 75 84 87 75 84 68 71 67 74 64 61 82 83 88 77 80 90 94 96 86 76 89 93 86 81 85 90 89 69 58 76 51 34 33 34 36 38 42 44
82 93 87 80 74 74 81 94 84 85 78 84 74 81 72 64 68 61 71 84 80 81 90 92 92 75 77 79 82 81 76 51 73 69 76 61 48 35 37 38 34 34 32 32 33
86 92 92 79 73 76 92 85 88 73 73 69 82 71 66 60 63 64 66 69 72 71 70 74 98 80 78 67 62 58 53 66 83 70 64 67 59 46 37 38 33 32 32 33 33
80 94 96 80 82 92 97 90 77 64 62 68 74 79 58 61 62 60 78 69 69 71 70 66 76 85 75 82 86 72 67 68 66 70 65 68 58 40 37 40 44 46 43 40 40
87 99 99 90 98 96 95 76 60 67 61 66 66 71 54 56 53 62 82 79 67 66 70 69 78 89 80 67 65 66 75 68 83 68 79 72 55 39 38 45 50 50 43 42 41
98 97 94 96 90 96 85 70 65 71 70 71 70 56 49 56 66 70 78 71 66 69 73 63 86 89 80 66 64 72 68 69 72 78 82 79 54 34 43 47 47 47 48 51 47
92 96 98 96 91 91 83 80 80 62 66 58 54 49 51 54 54 70 76 69 64 63 59 60 76 69 86 71 75 78 71 69 76 90 76 80 56 40 37 39 37 37 41 42 54
83 94 79 96 98 93 75 78 82 76 60 53 56 53 53 62 59 75 78 74 66 65 57 68 85 75 64 59 76 76 72 71 84 74 81 58 65 53 45 43 40 43 40 42 42
84 95 85 90 83 94 86 82 74 70 67 65 64 56 54 67 61 70 75 74 73 67 61 66 89 77 75 61 62 67 66 68 72 69 74 70 72 48 48 52 56 51 45 45 45
65 61 74 83 91 90 82 75 71 72 68 63 59 72 70 66 59 59 60 57 58 71 71 70 78 83 88 67 59 70 57 62 64 61 63 74 54 50 54 54 55 48 47 48 49

GFSSW_925_rhum_093.txt.gz
RH
93 88 81 88 96 90 76 78 89 93 90 86 84 87 89 93 81 73 84 50 67 72 73 69 63 62 65 74 73 78 91 93 81 62 46 37 41 37 51 66 77 78 72 72 73
90 82 85 89 97 90 88 82 84 95 90 87 85 86 85 88 78 80 49 71 70 69 64 70 79 66 84 82 77 94 88 88 62 66 52 59 43 40 60 80 91 96 82 86 95
90 86 85 82 97 91 86 84 84 96 93 87 88 89 87 80 84 66 65 58 56 60 51 76 68 79 85 78 86 83 85 65 65 73 75 65 48 44 62 62 78 92 91 96 94
92 88 85 87 93 95 87 85 80 95 95 88 90 84 75 71 61 51 60 53 51 62 56 68 77 88 89 90 74 92 70 70 76 82 85 74 69 55 51 50 49 85 85 88 91
94 90 90 91 94 87 82 85 84 86 94 88 91 92 67 77 77 45 52 47 51 62 62 72 81 82 87 85 73 81 72 59 78 90 82 83 82 68 59 63 84 88 88 90 91
96 93 92 83 95 83 81 80 84 87 93 92 88 89 76 78 46 45 44 50 58 62 57 63 77 74 83 86 82 66 66 64 67 88 78 82 74 60 55 74 89 91 93 90 92
92 95 92 86 95 90 81 87 83 88 97 94 86 90 83 74 46 47 46 54 60 60 65 68 82 78 75 87 67 66 82 71 75 85 92 77 77 78 71 63 92 90 92 96 90
95 96 91 93 90 77 84 78 89 94 95 97 88 86 95 44 47 46 44 60 64 63 71 77 76 83 86 82 89 79 78 87 74 88 88 87 86 69 71 59 80 90 96 96 97
94 94 90 96 83 77 81 84 95 94 95 92 81 83 86 47 51 46 46 54 65 69 73 83 86 88 87 97 88 82 92 83 86 83 84 94 84 67 72 75 72 64 85 94 97
93 96 86 89 77 77 86 77 78 77 79 75 75 80 56 54 46 44 50 53 67 74 80 88 94 99 99 96 91 76 96 84 78 94 90 90 87 76 75 73 74 70 70 79 92
97 97 82 84 76 77 80 74 80 76 77 67 61 66 57 48 50 61 60 63 67 75 99 86 100 98 100 95 87 66 81 95 88 82 86 88 89 78 81 82 76 75 60 63 70
98 96 84 81 76 79 76 87 63 57 73 65 58 56 51 53 69 63 63 73 77 100 97 98 98 85 83 89 92 75 76 77 82 85 76 86 94 83 83 86 78 73 68 59 54
96 94 84 78 80 80 76 75 60 57 80 68 58 58 57 62 82 75 75 82 95 100 100 89 83 78 87 96 97 77 72 74 82 83 77 80 90 84 79 82 68 72 68 58 56
96 93 81 77 78 76 76 65 61 62 87 65 68 60 66 73 74 65 82 89 98 100 97 90 84 87 97 95 71 79 68 75 84 93 99 83 94 80 66 71 66 65 66 65 58
92 91 80 78 78 80 63 63 63 56 57 44 66 54 69 76 77 68 84 92 97 92 96 98 92 98 98 91 69 75 64 78 79 93 94 95 81 66 59 62 56 58 65 64 63
89 94 80 94 81 71 64 66 66 75 50 76 67 64 76 71 76 80 90 94 82 83 83 93 82 88 92 79 70 69 75 83 94 90 96 96 88 68 59 56 47 43 53 58 59
88 95 84 81 81 68 65 73 84 66 58 60 63 67 70 79 80 87 88 88 98 94 98 91 96 80 83 79 71 75 76 98 96 97 88 73 87 68 49 45 45 47 51 49 53
92 94 85 82 70 68 70 81 72 72 88 68 71 73 78 66 62 75 75 89 80 81 95 97 92 92 79 88 86 86 72 87 91 95 76 68 78 59 35 40 39 39 39 43 48
95 97 95 79 72 72 81 94 73 84 75 81 75 84 70 65 68 64 78 87 83 84 82 92 99 74 78 80 82 74 87 54 71 68 78 74 53 38 38 39 38 38 37 39 39
94 93 95 81 74 72 93 86 91 70 73 67 76 70 65 62 64 66 76 74 78 71 71 75 94 78 75 69 73 67 50 66 81 74 57 68 63 49 40 39 35 34 35 36 34
80 95 97 81 75 89 98 89 83 72 64 72 77 80 67 62 62 73 86 74 73 70 67 68 75 82 70 82 85 70 68 71 69 70 63 73 59 41 39 36 36 38 42 40 39
86 98 100 88 98 96 98 84 65 70 65 67 69 67 55 58 60 79 84 84 72 67 72 71 78 96 85 71 68 69 77 67 80 69 84 70 55 41 44 38 44 46 46 48 47
95 95 99 98 96 96 85 74 66 72 70 74 72 64 51 57 74 78 82 72 70 70 69 62 83 91 77 66 64 70 70 75 74 79 82 75 50 39 48 47 48 48 47 49 51
90 98 99 96 88 86 86 83 83 65 68 66 55 50 52 59 64 77 80 71 66 65 63 63 77 68 81 66 73 77 72 72 75 90 78 79 56 43 38 39 38 38 41 44 44
81 94 82 96 94 91 84 81 85 79 62 58 58 55 56 65 64 80 80 76 68 69 60 68 84 77 66 64 75 74 73 76 87 73 82 64 66 52 50 47 41 44 51 49 46
89 95 89 91 89 95 89 85 80 72 67 66 65 58 57 64 61 74 79 76 69 68 64 72 93 76 77 66 66 67 65 66 74 73 76 76 77 49 48 49 52 54 55 49 48
67 70 78 88 94 95 88 84 73 75 72 62 63 67 66 65 62 62 60 65 61 67 72 73 79 83 86 74 61 68 52 60 63 64 63 72 59 52 57 57 57 55 55 51 52

GFSSW_925_rhum_096.txt.gz
RH
96 91 88 87 90 98 90 84 82 84 94 92 85 83 86 90 84 70 83 54 62 75 77 65 66 64 68 76 74 76 89 83 78 82 65 38 37 40 51 65 62 57 67 72 98
91 94 88 86 86 98 92 91 84 84 96 90 87 87 86 88 76 80 44 70 73 72 66 67 73 76 85 82 76 86 80 71 65 62 56 47 52 41 70 84 86 85 88 81 76
92 96 92 88 84 96 94 91 84 82 96 92 88 88 88 84 80 69 71 64 58 59 51 62 75 76 86 79 85 83 81 61 61 72 76 84 58 56 64 82 78 70 90 80 81
98 95 96 89 89 93 94 90 87 82 94 94 89 89 89 72 51 51 62 56 52 64 60 62 79 88 92 91 80 91 71 67 58 68 71 90 81 66 60 56 56 58 79 85 86
99 94 92 95 90 94 94 85 87 84 94 90 88 94 69 79 80 46 58 50 50 64 64 69 85 85 92 85 84 90 77 69 61 79 80 87 86 82 64 62 88 86 86 82 75
98 94 94 95 92 95 88 88 90 83 93 94 87 92 76 76 43 47 46 45 55 60 61 65 76 75 83 82 86 72 71 67 67 65 82 94 82 80 60 65 96 87 89 82 78
100 96 94 94 90 96 88 84 84 85 92 96 91 90 85 63 46 49 46 50 58 64 67 63 67 79 76 86 70 76 83 69 67 71 83 86 92 82 72 68 93 95 78 87 86
100 97 94 91 89 90 86 81 86 93 91 95 92 87 81 42 52 48 46 55 63 67 68 66 70 86 78 80 87 82 78 93 69 77 80 89 93 71 82 78 85 93 96 85 92
100 98 95 93 89 87 78 85 87 92 94 92 82 82 88 48 49 48 47 53 62 70 75 72 75 86 82 96 91 92 94 95 90 72 89 92 98 82 81 77 77 75 87 95 94
100 100 99 93 92 82 77 88 81 75 86 86 78 82 59 53 47 46 47 54 67 72 78 91 95 98 93 99 89 98 90 87 78 88 84 90 96 79 81 84 82 74 70 77 94
100 100 97 89 89 78 84 71 77 80 81 72 64 69 59 49 51 58 62 63 68 76 98 96 100 98 88 84 80 81 82 90 85 86 87 90 95 86 81 80 80 70 65 60 66
100 99 94 92 89 80 83 85 68 56 71 70 67 61 54 53 69 66 64 72 84 88 88 96 99 79 83 85 88 80 90 85 96 84 85 88 92 89 79 86 77 73 65 58 55
100 100 95 92 92 88 81 77 61 56 78 69 62 60 59 60 77 74 75 82 90 99 92 97 85 78 97 96 96 80 85 92 91 89 85 88 90 88 85 71 80 72 71 64 55
97 98 94 93 88 79 78 69 61 60 82 50 69 62 66 73 69 68 77 87 99 100 98 99 79 77 100 93 73 92 71 82 90 96 99 84 93 90 85 77 69 69 68 66 62
98 96 94 81 79 80 64 66 59 49 44 39 63 53 67 82 74 78 89 96 99 94 98 98 96 97 100 94 76 82 74 76 83 92 91 94 95 76 84 80 67 58 64 63 61
100 96 96 92 83 70 65 60 58 74 42 64 64 64 73 76 77 78 93 95 89 94 88 98 97 95 95 84 78 71 73 84 87 85 91 94 83 74 62 58 51 50 52 56 60
100 94 98 90 82 69 61 67 84 65 51 60 63 66 72 76 75 86 89 90 96 92 96 89 93 84 89 81 79 75 76 97 92 92 87 84 80 59 50 44 42 44 46 50 55
99 94 97 85 69 67 62 79 78 65 83 70 68 68 77 67 63 68 76 92 81 78 95 93 96 96 82 95 95 89 74 89 91 94 80 78 84 56 36 40 42 44 44 48 52
97 100 96 85 70 66 79 94 74 78 72 79 70 72 66 63 71 67 82 88 82 85 78 95 99 72 83 83 80 86 83 56 76 68 88 81 61 37 37 41 42 42 42 46 48
98 98 98 79 78 67 91 88 90 69 72 60 66 69 65 64 67 70 78 76 83 74 72 76 93 74 74 67 71 63 53 68 84 75 58 66 61 55 45 44 40 43 47 45 43
89 96 97 82 72 87 98 89 80 72 64 64 76 78 67 63 64 82 90 75 79 76 69 68 77 81 69 89 87 76 71 72 71 72 64 67 50 41 48 44 38 52 54 56 54
94 100 98 85 96 91 95 88 68 76 70 68 69 60 59 59 73 82 89 88 78 72 75 73 81 99 90 74 72 71 81 66 79 71 85 70 54 38 56 50 51 52 54 52 51
97 98 99 96 97 97 87 79 69 73 72 72 71 64 54 57 74 79 83 71 75 74 72 61 83 90 76 66 62 73 75 75 76 79 82 69 52 41 50 52 46 48 46 48 46
97 99 97 96 82 83 90 86 83 66 68 68 61 55 56 64 75 80 82 73 72 71 66 63 78 67 82 69 74 75 74 75 76 89 78 77 52 46 50 46 43 41 43 51 52
92 95 80 94 94 86 81 82 87 82 65 67 58 56 59 66 70 84 83 77 68 71 64 67 86 80 71 71 74 74 73 78 86 72 81 65 69 57 54 55 53 44 46 53 52
88 97 87 90 86 87 88 86 81 77 72 68 65 58 56 63 59 74 79 76 68 66 67 73 94 75 80 72 69 68 64 68 75 75 78 76 80 59 56 55 55 58 59 59 53
73 72 82 78 95 92 92 86 76 77 74 64 62 66 66 64 64 67 65 73 69 66 75 75 79 81 88 76 62 65 53 59 64 65 64 66 55 61 55 56 57 57 57 58 56

GFSSW_925_rhum_099.txt.gz
RH
99 94 91 95 91 89 97 94 88 83 86 95 89 85 86 88 86 71 80 54 62 78 80 65 62 65 68 77 75 72 85 79 64 65 68 49 48 37 42 61 57 56 62 59 64
99 99 95 92 92 88 95 94 91 85 85 94 89 87 89 90 75 78 42 71 72 78 67 56 61 72 75 81 76 78 80 68 52 53 64 54 54 45 53 64 66 64 88 90 72
100 100 99 92 90 93 92 97 92 86 85 90 90 90 87 83 75 60 76 72 59 59 54 63 72 74 84 75 81 77 83 59 53 51 65 71 70 70 55 58 59 64 91 83 89
94 100 99 94 90 95 93 96 88 88 85 88 92 91 81 69 45 50 65 57 66 62 62 61 78 84 92 81 75 81 65 62 61 54 63 68 73 78 61 55 60 58 84 83 80
97 99 98 96 92 87 78 94 88 87 86 84 91 92 68 77 75 48 63 56 47 54 64 66 80 83 80 84 77 82 75 66 62 62 62 71 76 78 79 61 58 78 73 81 79
95 97 99 98 92 84 84 89 89 92 86 89 89 84 73 63 38 50 47 46 52 64 63 70 75 74 83 81 83 67 58 64 61 68 65 81 74 84 64 64 66 79 78 69 70
95 97 100 98 95 88 90 92 84 88 87 92 92 81 83 59 45 50 49 49 52 61 68 63 58 71 76 82 69 66 79 75 66 60 74 79 79 74 71 73 80 90 69 78 72
93 87 100 100 93 86 92 92 85 90 86 88 94 82 76 42 51 52 48 51 55 64 68 64 69 74 89 75 83 80 74 88 66 58 72 71 81 77 71 71 79 85 62 77 79
91 91 100 100 90 94 91 85 88 90 94 96 78 77 78 50 52 47 52 52 57 71 77 76 77 92 95 97 80 72 89 96 76 56 89 79 91 77 76 65 76 80 84 72 78
94 93 99 99 90 90 91 91 86 90 94 83 80 80 55 52 47 48 48 55 67 72 80 88 94 99 96 99 86 90 83 77 80 79 75 92 97 82 70 72 78 84 84 72 80
94 100 100 91 87 90 97 82 83 82 84 76 70 66 59 50 52 56 62 65 69 81 83 91 100 99 89 80 77 100 69 68 74 81 77 82 87 82 80 80 79 83 86 88 81
93 96 100 90 89 86 99 88 66 53 75 80 67 67 58 54 68 65 64 76 88 78 82 95 100 95 66 69 80 96 77 81 75 78 75 85 84 85 85 82 79 79 82 77 80
90 96 100 94 91 94 96 77 62 56 74 68 65 63 59 59 74 74 70 83 90 92 89 96 89 92 95 84 87 85 82 87 80 86 81 82 88 84 75 86 76 72 73 75 70
87 96 98 92 96 95 91 69 61 58 78 50 70 64 69 72 75 67 73 83 96 100 100 100 96 96 96 89 92 93 75 69 85 88 98 88 88 87 86 90 79 59 62 66 64
92 90 98 87 92 96 69 67 60 46 47 36 64 55 71 80 81 77 82 96 98 98 100 99 96 100 95 85 81 75 76 78 84 87 87 88 88 80 80 88 75 55 53 56 59
88 98 100 90 97 84 68 62 53 73 41 64 64 64 69 79 77 76 92 94 87 98 97 99 92 89 91 87 78 71 81 84 82 79 89 84 66 59 72 75 63 47 51 53 59
91 100 98 88 93 74 64 62 82 65 50 64 68 63 69 73 71 84 84 88 94 95 96 100 98 90 89 86 81 74 72 91 83 88 79 69 71 60 52 58 52 47 41 40 46
91 100 99 94 86 71 63 77 71 61 75 69 67 63 68 67 64 71 80 91 81 81 92 96 98 94 85 90 88 85 69 80 85 87 82 78 73 55 41 45 46 47 48 52 50
94 100 99 97 83 71 78 90 73 74 69 80 62 62 62 61 72 67 82 92 83 87 84 89 99 79 86 84 85 79 79 58 73 68 84 74 57 34 40 41 40 43 44 51 52
100 93 99 94 83 67 91 87 89 66 70 62 55 64 64 65 68 73 82 80 89 79 75 72 98 85 74 81 75 65 54 64 80 71 71 61 59 54 46 43 43 52 54 52 50
87 96 99 90 74 88 98 91 80 72 66 62 72 75 65 66 66 87 94 75 84 80 69 67 77 82 70 89 97 80 74 72 69 68 58 57 52 41 50 49 45 55 56 56 55
94 99 99 90 92 92 91 89 69 76 72 70 68 61 58 61 79 86 92 90 80 78 75 73 81 98 90 73 74 74 82 65 76 68 80 60 53 40 54 54 52 52 51 49 49
98 98 100 85 91 87 88 82 73 75 73 70 71 65 53 65 78 82 83 71 78 75 75 63 81 87 74 60 59 79 79 75 74 73 80 61 52 43 50 50 43 43 44 48 49
96 99 98 92 75 83 92 88 85 67 70 69 61 56 59 71 78 81 82 75 74 72 68 62 80 67 77 68 76 75 79 79 75 80 76 64 50 44 56 58 57 54 46 48 50
96 98 83 97 96 91 83 82 87 80 67 65 60 58 60 68 74 87 83 74 65 70 67 66 86 81 78 74 74 75 77 78 86 72 74 69 65 60 65 65 60 54 55 56 54
91 93 84 82 68 87 86 84 81 78 72 69 65 59 58 62 58 76 78 74 72 65 71 74 93 75 82 70 68 68 65 71 75 76 76 75 72 60 55 56 61 61 62 60 58
78 74 82 74 72 84 78 83 78 76 75 67 63 66 70 66 64 65 72 77 73 67 76 76 79 78 85 75 59 64 57 62 66 67 65 64 59 68 70 70 69 68 67 67 64

GFSSW_925_rhum_102.txt.gz
RH
94 97 100 99 94 89 91 95 96 90 84 88 94 87 86 89 84 67 54 49 60 68 79 63 54 56 55 49 54 52 70 58 39 36 34 25 36 34 31 32 32 44 40 56 88
98 96 99 99 99 86 94 95 96 90 85 87 93 89 89 88 67 51 47 63 73 80 61 48 43 46 47 51 52 62 59 46 32 28 31 27 38 37 40 37 34 39 43 71 84
98 99 98 99 98 91 93 96 96 92 87 86 91 90 88 80 50 38 62 75 70 61 55 54 48 43 52 46 48 50 59 36 36 34 34 42 41 38 42 54 36 33 41 68 82
96 98 97 100 98 92 98 87 94 90 88 86 91 90 78 69 39 44 71 57 65 64 58 54 49 48 53 51 38 57 44 42 39 41 48 52 45 50 47 41 31 46 56 74 71
82 95 98 99 99 100 93 79 91 89 88 89 92 86 70 55 38 48 66 66 58 52 42 48 50 48 48 41 44 46 38 36 42 42 45 45 53 57 58 45 44 50 57 68 73
80 93 98 90 100 98 82 90 86 84 92 83 92 82 60 52 34 52 56 49 51 55 54 55 52 49 53 52 51 32 37 34 42 47 48 48 50 58 52 65 53 51 56 65 74
81 84 99 98 100 94 85 94 91 92 84 81 92 81 64 42 43 53 48 52 57 54 48 53 54 55 57 60 46 45 52 44 42 40 50 42 56 65 55 54 51 48 59 70 70
79 88 84 98 100 90 90 92 86 80 87 95 94 80 52 42 53 49 54 60 64 65 63 63 63 60 71 61 68 64 52 56 36 47 48 62 51 34 58 54 56 52 59 68 77
78 91 95 90 99 84 77 85 82 81 92 92 87 66 46 53 55 49 53 47 57 69 73 67 67 77 92 100 97 60 52 52 41 43 49 72 59 53 64 65 57 51 57 72 79
77 90 89 99 92 78 81 88 88 91 91 81 72 71 53 44 46 49 53 53 51 56 62 70 76 94 100 100 74 53 55 41 51 48 55 71 80 60 57 65 60 53 60 68 83
79 79 100 100 95 82 86 93 68 79 78 57 51 52 46 48 53 52 58 56 54 59 65 58 100 94 96 73 60 82 50 45 47 39 54 56 62 61 62 63 64 61 66 71 82
77 84 92 96 96 82 89 76 58 57 67 64 61 59 55 53 57 54 64 60 67 73 58 92 97 75 64 63 60 99 68 51 55 54 48 65 65 60 60 69 66 64 67 70 87
84 82 92 99 94 94 98 79 67 58 61 62 58 56 53 53 60 61 54 70 78 83 80 95 82 93 88 66 68 86 67 50 63 68 61 61 70 73 62 67 61 63 60 68 81
89 79 100 95 94 98 98 77 67 58 78 55 65 57 59 59 69 63 65 76 94 100 99 100 91 98 92 69 68 69 53 50 62 63 74 75 75 63 72 72 69 71 64 67 68
87 77 100 84 93 95 86 68 66 52 69 49 60 57 60 71 68 74 74 94 100 100 100 99 92 95 93 71 62 50 50 62 63 63 62 68 62 77 80 84 76 71 60 61 60
80 74 100 89 83 84 74 67 54 75 55 77 59 62 67 69 71 71 86 87 87 99 96 96 83 91 78 55 64 68 76 71 60 64 82 72 68 85 88 89 87 61 53 54 58
82 77 100 85 90 85 70 53 89 73 53 66 66 58 53 57 60 72 77 74 87 100 100 100 97 85 80 73 71 71 89 92 79 81 78 60 59 73 61 60 76 64 53 33 43
85 96 100 90 82 78 59 66 80 52 67 58 58 52 56 58 58 58 68 68 61 78 94 93 97 97 82 77 67 62 55 64 65 60 66 60 91 75 44 34 49 60 45 41 41
88 100 91 95 90 69 52 90 76 60 55 60 55 48 55 52 60 55 62 70 66 68 70 72 100 88 73 72 69 59 64 51 58 57 54 56 46 41 33 33 35 38 39 41 40
100 94 99 95 89 65 70 79 80 57 58 54 45 50 50 56 56 56 60 66 72 64 59 66 99 88 79 64 61 54 48 56 62 58 58 48 44 48 39 38 36 38 37 37 36
85 95 100 94 72 58 81 73 71 62 60 54 50 54 53 55 60 66 70 63 67 64 53 56 60 88 70 74 77 59 53 53 48 46 37 40 46 37 38 38 41 39 40 39 38
92 100 100 88 83 67 67 74 65 61 64 63 52 50 50 54 63 65 68 71 63 66 57 57 59 86 73 62 60 62 61 49 52 50 55 34 49 38 41 40 38 38 38 36 36
98 97 99 92 85 69 73 77 70 66 66 62 60 54 48 58 63 68 69 62 62 63 61 50 58 70 62 53 51 62 62 56 53 55 64 41 50 38 36 38 40 39 34 33 35
92 98 98 88 63 57 79 77 68 64 64 60 57 50 54 60 60 66 66 64 65 62 68 51 58 56 57 66 66 63 59 57 62 77 44 42 49 45 44 41 37 38 38 38 37
87 91 81 99 77 69 77 71 68 65 62 54 53 52 52 55 60 65 67 59 55 58 55 51 74 72 63 61 65 62 62 58 81 58 55 52 48 48 45 47 47 45 45 44 44
88 74 65 63 60 72 79 73 58 70 65 59 55 54 50 52 54 55 60 58 61 49 56 53 74 65 64 51 52 56 54 56 57 60 58 55 58 52 48 46 45 50 49 49 48
75 69 51 66 65 76 65 70 63 64 66 60 51 52 58 62 56 58 56 56 58 56 58 57 59 60 69 55 46 48 50 51 54 54 55 47 59 54 52 54 53 54 52 53 52

GFSSW_925_rhum_105.txt.gz
RH
97 97 99 91 100 99 96 92 95 95 89 84 94 92 87 88 80 61 45 44 48 54 65 50 44 41 40 40 39 40 64 51 36 31 25 18 20 22 23 31 28 25 27 46 79
89 95 99 96 100 99 93 93 95 93 89 83 91 91 86 67 59 39 37 39 67 72 57 41 35 35 37 37 38 53 60 44 27 23 23 19 19 19 23 33 32 32 29 53 80
79 81 99 97 99 99 96 96 87 93 90 86 88 90 73 66 45 26 44 62 74 71 49 44 37 34 38 32 37 42 53 35 27 23 24 24 22 25 32 40 41 36 29 65 66
76 79 85 99 99 100 98 97 84 88 85 87 87 90 74 56 44 45 74 68 67 57 50 41 36 38 37 37 32 42 35 33 32 28 34 37 36 36 38 38 26 29 44 47 64
74 79 81 99 99 100 100 82 91 89 84 88 88 89 64 54 39 48 65 68 62 52 37 34 38 32 35 24 25 30 30 29 29 31 33 34 42 43 37 37 48 48 49 46 62
72 74 82 98 100 100 96 75 81 83 93 89 94 86 59 62 31 40 50 53 42 43 37 39 39 35 41 37 35 27 24 24 25 28 34 37 36 37 35 34 46 45 43 43 57
73 77 83 99 98 99 88 90 86 84 85 90 89 81 61 49 32 39 45 41 42 43 38 38 40 44 38 46 35 38 45 33 29 30 35 34 43 41 28 35 46 40 37 43 54
76 78 83 98 100 97 93 95 88 67 84 67 88 75 60 40 37 45 40 42 48 47 48 46 48 46 49 51 54 60 55 59 31 27 31 35 53 28 25 44 44 41 44 43 49
74 78 82 84 96 96 98 91 72 91 84 92 86 68 46 49 41 36 38 42 43 50 54 50 53 56 67 80 82 61 70 50 39 21 30 40 52 29 33 50 46 44 40 37 49
75 76 84 92 99 97 79 78 98 93 87 76 60 56 42 39 40 41 42 43 42 42 52 58 64 75 80 94 76 82 69 40 38 24 30 43 51 45 49 54 51 47 44 43 54
79 78 84 100 97 80 84 94 70 73 67 50 45 44 37 38 46 44 43 46 45 48 58 51 87 81 65 65 79 69 51 45 39 20 44 39 48 42 40 50 50 52 51 49 60
86 86 81 99 94 96 95 78 53 56 71 50 51 47 45 46 50 46 51 58 60 80 60 86 90 56 89 78 91 96 62 53 37 36 39 38 45 37 40 45 44 47 49 52 66
87 84 76 97 97 94 94 76 69 57 51 60 51 50 46 49 52 52 54 60 69 90 98 95 74 87 96 73 70 63 63 53 95 43 36 35 48 50 51 53 50 51 47 52 66
89 90 89 100 96 98 95 80 68 59 81 60 57 51 53 53 68 48 55 65 94 98 100 100 80 93 95 73 51 50 37 73 81 52 67 42 65 63 66 67 53 43 50 62 75
82 91 100 86 96 89 92 73 65 57 71 49 55 52 50 71 57 67 62 89 100 99 100 94 83 92 88 57 44 55 42 50 58 53 64 80 95 77 69 76 65 65 55 68 77
68 95 99 89 93 89 81 75 63 88 69 82 52 60 64 60 57 64 78 81 82 99 96 85 74 81 69 53 48 55 59 93 90 79 64 64 68 90 90 91 85 65 63 68 76
76 84 99 92 91 77 75 57 93 74 44 68 67 53 48 51 51 58 69 95 95 100 100 97 87 73 71 66 74 98 97 93 88 92 72 60 63 100 79 72 84 83 51 70 70
74 92 98 95 87 79 64 67 84 48 57 48 50 48 50 49 49 48 55 94 79 74 77 88 94 96 67 80 93 98 71 78 92 82 71 58 93 98 70 67 85 78 47 52 52
99 95 98 100 90 79 60 85 82 56 46 52 50 46 48 44 49 45 50 61 58 56 88 94 99 71 61 60 61 57 60 47 53 39 57 75 85 70 38 53 72 66 44 46 43
95 94 99 100 89 80 66 73 69 48 49 43 41 40 41 44 45 44 47 54 63 52 58 69 93 69 62 54 51 49 42 57 60 52 57 75 91 86 48 40 48 47 41 39 37
84 92 100 92 74 61 78 65 55 48 54 49 40 41 41 43 47 47 50 53 55 55 46 57 69 77 56 62 71 56 50 42 44 40 36 47 54 38 38 37 37 39 38 37 36
88 100 99 85 88 58 52 66 64 50 54 51 42 41 42 45 47 46 55 56 52 52 51 47 56 75 67 50 47 53 52 42 59 39 38 35 55 35 36 36 33 35 34 34 36
95 96 91 99 83 55 59 63 60 52 53 49 47 42 42 47 50 51 51 53 51 54 56 46 50 75 59 48 43 48 42 40 43 59 54 42 55 32 34 34 34 36 34 35 35
76 99 96 73 50 47 65 62 52 56 54 48 46 42 43 44 44 52 49 52 53 49 65 50 51 54 64 70 60 55 47 42 61 72 42 47 50 40 37 39 39 38 35 36 39
60 77 66 82 64 53 66 54 52 53 52 46 44 43 43 42 43 47 48 43 44 48 46 43 65 70 52 50 58 50 49 46 67 44 54 44 49 46 44 40 40 40 40 40 41
60 59 59 58 51 55 67 60 46 54 53 46 45 46 39 47 48 46 46 44 49 39 44 42 64 60 53 42 44 45 42 42 46 45 45 45 56 42 40 38 41 42 42 43 43
59 54 41 60 51 57 53 54 50 51 56 51 43 41 49 56 47 45 43 44 47 48 45 45 50 55 61 43 39 43 47 44 46 46 47 44 53 43 47 48 47 48 44 41 38

GFSSW_925_rhum_111.txt.gz
RH
81 83 81 84 90 99 98 99 95 93 94 89 81 96 80 71 61 72 72 55 55 61 40 50 47 42 41 44 43 47 80 72 72 63 53 34 32 25 21 22 24 27 44 60 73
80 79 80 80 84 96 98 100 93 94 96 88 81 96 76 71 69 67 43 56 54 41 46 55 44 38 47 44 49 62 83 73 53 49 48 38 35 37 36 39 34 37 81 81 82
70 71 76 72 77 98 99 100 96 97 95 85 78 82 77 67 72 55 53 53 60 60 62 41 38 36 42 38 42 52 69 54 51 45 43 42 38 34 42 48 43 52 61 90 88
78 76 78 74 76 88 98 100 97 98 93 79 79 72 72 70 67 63 55 61 69 51 44 36 36 41 44 44 34 46 41 40 43 41 41 41 37 38 39 42 39 41 55 55 75
83 77 75 79 82 90 99 100 100 90 93 85 70 74 65 68 55 71 68 73 56 45 37 39 39 42 46 42 41 35 31 32 34 37 34 29 33 42 38 35 35 34 40 52 59
82 82 78 82 84 91 89 100 100 98 88 71 92 70 67 52 59 61 56 60 47 41 36 37 43 41 45 47 49 46 51 47 44 42 37 37 35 35 31 35 33 31 36 55 58
82 83 80 80 83 96 86 99 99 95 90 91 72 69 62 38 40 45 52 46 40 41 43 46 44 50 55 60 53 55 65 57 51 50 51 41 44 40 31 35 36 34 35 53 58
86 88 82 83 84 97 98 100 93 95 92 90 76 80 65 42 40 39 40 39 42 42 43 42 41 51 54 57 64 66 63 82 51 50 48 51 62 33 32 38 40 38 33 46 56
90 90 85 86 86 96 100 93 85 90 87 90 89 80 61 39 36 38 38 39 44 44 46 42 46 60 66 82 87 76 93 83 67 46 50 56 59 38 31 35 39 38 35 42 53
90 90 91 78 68 100 92 83 89 88 89 81 69 69 49 48 37 35 34 38 43 55 57 59 73 90 84 96 94 87 94 77 81 56 52 56 56 39 33 38 35 32 37 54 55
92 91 65 97 99 89 86 99 90 85 72 70 60 48 42 42 40 41 40 43 44 50 70 69 96 97 88 84 72 74 82 81 67 60 63 59 51 42 36 51 68 63 38 61 58
91 86 61 100 100 85 79 88 71 64 80 60 52 45 43 43 54 50 43 56 63 85 76 91 95 74 66 61 69 98 94 84 66 57 61 65 56 47 41 59 64 73 68 66 54
91 82 63 99 92 77 84 87 74 65 72 65 53 50 51 48 54 62 52 65 83 93 96 97 81 78 86 92 95 87 87 84 85 67 63 59 72 53 41 60 61 64 61 64 61
90 71 78 94 89 88 93 74 73 65 89 70 64 57 53 52 70 53 61 72 85 89 97 93 71 81 84 89 82 91 62 78 94 83 97 70 94 67 61 56 53 58 66 63 70
99 97 97 90 92 92 90 71 70 70 84 57 64 51 55 68 64 72 70 86 98 97 99 83 88 93 77 69 64 73 54 76 93 98 85 68 95 92 92 75 87 77 67 69 87
87 86 84 81 86 94 87 74 73 84 75 68 66 71 73 68 64 73 79 79 81 98 97 96 71 85 73 62 63 66 80 87 100 98 98 78 89 100 100 97 84 76 77 91 96
87 81 71 78 95 82 72 76 85 79 49 70 70 63 63 75 72 81 95 98 98 93 94 93 88 80 71 86 79 92 100 97 97 97 98 100 98 99 98 88 87 91 75 96 96
93 72 82 86 79 71 71 85 78 57 66 49 55 54 68 52 55 64 88 86 79 76 92 91 77 85 74 83 100 100 100 99 96 97 98 92 98 100 94 77 79 80 94 97 96
70 82 98 96 83 70 89 94 89 69 53 55 52 60 61 49 53 54 68 73 63 61 87 90 85 68 74 72 83 91 100 85 100 94 91 98 100 90 91 88 88 96 94 91 84
78 88 96 86 82 74 92 80 67 53 60 51 60 52 52 50 58 51 63 63 68 57 65 74 96 66 60 67 67 84 61 84 96 96 96 97 98 99 99 98 88 93 84 85 72
74 93 83 83 72 92 92 75 59 47 60 64 62 53 49 51 52 58 69 64 61 63 62 63 79 71 58 66 73 77 70 57 58 66 90 93 98 99 100 88 71 89 87 72 52
79 97 76 78 96 89 83 67 58 50 52 59 51 49 53 54 60 55 66 67 57 59 68 55 71 89 67 53 47 55 62 56 86 71 78 87 99 61 87 82 52 53 51 50 50
95 91 76 91 92 87 60 63 60 67 61 56 54 48 44 49 61 54 56 54 54 59 61 59 77 90 74 60 58 69 53 58 61 75 83 88 99 48 52 53 53 56 53 50 50
85 92 88 89 87 67 68 55 61 57 59 50 48 47 45 44 48 55 53 53 52 49 57 63 68 76 90 74 72 69 60 59 70 90 83 85 78 63 62 62 59 58 55 54 52
79 84 79 93 75 68 68 62 52 62 55 50 47 55 55 60 54 59 54 55 49 45 46 58 73 72 57 55 54 55 60 64 71 64 76 73 74 60 60 60 57 55 52 48 44
81 82 79 79 56 62 72 60 51 55 60 60 56 59 64 68 63 68 61 61 60 56 50 55 73 63 59 44 46 53 56 57 62 63 69 70 69 53 54 56 57 54 49 46 41
65 58 72 74 67 66 69 58 53 56 56 53 60 59 64 62 58 56 56 50 47 54 63 57 69 79 77 55 48 61 51 53 52 60 64 70 63 57 58 58 60 59 51 46 39

GFSSW_925_rhum_114.txt.gz
RH
76 80 77 76 81 87 96 99 99 97 97 90 74 78 85 70 52 63 70 55 57 63 46 50 47 44 42 46 43 50 83 89 71 69 62 42 45 32 32 38 38 42 81 88 79
76 73 81 80 76 82 96 97 99 99 92 93 72 81 86 65 62 70 45 58 62 45 49 50 42 41 50 46 50 66 90 78 58 53 56 48 46 43 39 43 42 48 46 82 90
86 76 80 80 70 79 93 100 99 93 98 90 70 89 85 61 67 54 57 55 60 56 46 40 37 37 42 38 42 52 76 56 51 50 50 49 47 38 41 46 39 49 48 71 82
79 84 75 82 80 79 89 97 99 94 97 88 62 96 74 64 67 56 58 62 61 48 37 34 38 42 47 46 38 42 37 39 43 43 44 40 37 39 39 39 36 39 42 49 70
86 80 79 79 81 86 93 97 99 100 98 80 76 83 64 65 63 60 71 64 50 38 35 39 42 43 49 47 44 40 45 47 47 47 43 37 38 36 35 34 36 39 37 40 60
81 77 83 82 81 88 90 87 100 99 94 78 88 69 64 56 69 69 69 52 40 40 39 40 45 43 50 52 51 52 56 54 53 53 51 50 44 37 31 31 32 35 38 41 54
76 79 87 84 85 95 70 98 100 97 89 91 69 67 58 42 62 58 51 47 41 42 49 47 44 51 53 59 57 57 62 57 49 49 50 42 51 48 34 30 32 36 34 39 44
75 78 87 88 88 93 88 97 88 88 94 92 74 66 58 42 48 50 44 43 42 41 43 42 40 50 53 56 64 67 65 82 51 48 51 54 60 42 33 37 37 37 38 39 43
82 92 82 78 82 77 99 99 87 94 92 83 69 71 61 39 41 40 39 43 43 45 45 44 48 60 66 81 85 74 85 86 71 53 56 60 72 51 41 38 36 32 44 43 40
91 79 55 75 86 99 89 87 90 81 79 75 71 60 53 51 36 38 38 40 49 54 59 60 82 90 90 92 88 83 92 83 80 58 55 65 73 57 45 41 38 34 35 43 45
90 66 80 83 97 83 90 85 85 88 73 70 70 55 49 43 40 41 41 43 46 53 78 78 94 98 92 88 70 71 84 89 73 59 66 70 69 59 52 49 48 47 55 53 48
77 100 98 99 90 95 78 80 86 70 77 58 53 49 45 44 57 48 43 57 65 84 79 83 91 76 74 74 81 85 91 82 71 61 64 70 72 58 52 48 48 56 61 71 55
78 86 98 99 81 72 78 87 77 61 69 61 53 54 50 47 57 62 51 63 80 84 91 78 73 71 78 80 85 80 86 86 90 68 71 75 80 66 48 52 51 52 71 71 71
69 76 89 78 75 87 92 72 71 60 87 72 66 59 54 54 74 56 64 70 85 82 81 88 72 80 84 83 71 87 66 74 80 96 95 59 92 71 87 80 54 55 54 68 72
66 70 81 86 81 90 94 68 64 65 71 56 67 52 57 70 70 75 72 77 91 89 92 81 91 90 95 74 68 76 62 70 80 99 97 82 94 82 82 93 92 87 87 72 73
80 85 86 82 86 94 79 67 65 73 72 68 68 71 77 70 69 76 78 78 80 91 88 92 77 85 79 63 58 63 91 87 96 99 100 82 86 99 99 98 89 85 87 87 80
82 80 85 87 95 81 70 68 78 82 49 63 73 74 75 79 74 82 94 98 97 92 92 86 88 79 75 87 82 96 100 97 97 97 96 100 97 100 99 93 86 88 84 90 95
74 70 85 98 80 68 69 73 83 56 63 53 65 65 70 66 70 80 91 92 90 84 87 88 85 87 75 92 100 100 100 98 96 97 96 99 98 99 96 90 88 94 94 94 97
71 78 90 85 77 67 76 91 82 71 61 57 54 62 64 52 56 67 85 76 66 64 86 88 86 63 70 71 90 91 100 94 100 99 88 98 98 97 93 91 89 92 90 97 96
77 86 82 76 71 70 86 81 66 56 60 54 64 56 56 53 57 60 70 66 71 60 66 70 92 66 60 69 74 84 75 95 98 94 96 88 98 98 98 100 96 94 92 90 87
72 88 73 69 71 83 91 78 58 49 58 58 62 57 54 58 58 64 74 64 62 65 66 66 79 74 60 62 70 72 77 65 64 89 97 96 98 99 100 98 97 87 79 74 66
78 94 68 71 85 90 81 67 58 54 55 58 54 53 54 55 63 59 65 64 57 61 68 58 74 91 65 56 52 57 64 64 80 71 81 92 97 81 89 86 79 59 54 54 55
93 94 67 83 88 87 64 60 60 64 62 57 55 50 47 51 60 56 56 51 55 58 57 58 79 89 54 48 56 72 60 62 67 76 90 86 96 55 72 61 60 60 58 54 51
87 89 86 89 88 72 67 56 57 56 62 52 54 49 48 55 53 55 55 50 51 51 58 61 72 74 76 66 70 72 65 66 70 91 87 89 84 67 66 67 63 63 58 52 48
86 84 79 91 74 71 68 61 58 63 56 53 50 63 61 58 58 66 60 60 49 55 52 57 68 70 63 62 58 55 65 73 73 68 74 76 75 68 70 69 62 57 49 44 43
86 81 82 84 72 67 75 60 55 57 62 59 61 62 67 66 65 65 64 59 62 57 60 60 69 66 62 51 49 52 53 58 64 68 74 72 66 54 56 61 59 53 48 47 44
76 67 77 76 73 70 70 63 59 59 56 56 62 66 61 60 60 59 59 64 59 54 63 60 71 81 78 59 54 60 51 54 55 61 69 70 58 60 61 61 61 60 52 46 44

GFSSW_925_rhum_117.txt.gz
RH
83 82 83 79 74 86 89 91 100 98 99 94 74 71 75 69 49 51 59 60 58 62 45 47 39 43 42 48 45 55 86 96 74 74 65 48 51 37 34 35 35 42 59 83 97
88 85 77 79 80 76 87 96 92 99 99 92 77 78 72 61 58 59 58 60 62 55 45 40 42 43 52 45 53 69 93 80 59 56 58 53 50 47 40 42 40 40 34 37 94
88 82 83 81 86 76 85 96 88 99 97 90 71 91 70 58 58 58 61 57 65 51 42 39 36 38 44 39 44 57 81 62 53 49 51 55 52 38 41 47 39 38 40 42 50
86 73 82 79 86 84 82 91 98 99 95 87 70 89 65 60 65 55 60 61 56 40 34 34 39 44 48 45 42 44 40 39 44 48 47 42 37 35 39 35 32 37 40 44 47
98 85 79 80 82 84 89 94 99 99 100 88 91 70 58 60 74 61 67 61 39 34 36 40 47 44 48 50 48 45 49 53 52 55 52 46 46 41 38 33 33 37 41 46 48
88 83 83 84 84 88 88 89 100 100 91 92 91 63 56 76 68 75 54 41 41 40 46 43 47 44 55 55 53 60 62 59 54 52 52 50 43 45 36 32 32 33 36 41 48
78 79 84 87 89 89 82 82 96 98 92 93 69 55 53 72 69 58 64 44 42 43 50 46 44 49 53 58 60 62 65 60 51 46 49 48 59 48 33 36 37 32 35 38 46
78 82 89 86 68 94 91 99 95 82 94 93 66 51 60 46 61 52 43 43 41 42 43 43 41 52 52 55 65 70 65 78 50 52 49 53 60 46 41 38 40 37 33 37 44
88 84 80 76 50 99 100 92 85 83 93 71 60 51 59 46 50 48 41 43 44 45 48 48 49 65 68 79 79 72 82 80 72 54 60 65 77 57 49 47 50 44 39 39 42
81 73 69 97 80 99 90 94 83 83 72 60 56 47 51 48 40 40 40 44 50 55 60 67 82 89 91 91 85 82 89 82 88 60 59 66 73 60 52 53 55 48 42 45 50
73 67 86 94 96 81 78 72 78 75 66 70 68 57 52 44 40 40 42 45 48 58 80 82 94 97 79 84 74 76 84 87 71 60 69 74 74 62 52 58 60 56 45 43 53
90 93 89 88 97 88 78 82 87 63 70 58 55 52 45 45 56 49 44 57 64 83 76 78 91 77 75 79 84 92 86 78 68 63 68 69 70 60 60 59 55 59 50 52 58
98 90 90 78 80 76 82 91 73 58 68 62 53 56 51 47 62 60 49 64 78 83 83 90 73 70 80 80 83 80 81 77 83 74 75 82 86 63 68 58 52 53 53 61 68
95 91 86 87 74 87 93 76 64 56 89 76 64 59 53 56 77 60 66 69 83 75 85 86 72 84 89 88 80 78 61 69 81 94 96 61 94 69 84 88 78 83 80 64 68
87 84 80 75 77 95 93 65 59 54 92 56 67 53 58 69 72 76 72 71 89 86 88 78 90 84 93 84 73 80 59 73 96 99 100 91 96 75 87 88 86 82 88 90 90
83 85 80 78 85 95 79 63 58 73 80 70 66 69 74 70 72 77 77 74 83 93 88 95 75 86 84 70 61 57 75 86 93 99 99 80 92 91 98 97 92 81 88 94 97
86 82 78 81 95 72 64 61 78 85 49 65 74 77 75 76 76 83 90 97 98 98 86 82 85 83 82 92 80 88 100 97 95 96 93 99 98 100 97 94 92 90 90 95 95
89 78 78 79 72 62 62 73 86 60 62 52 65 71 75 72 75 84 90 94 92 92 95 88 78 89 83 91 98 100 100 99 98 96 92 89 97 100 96 90 89 89 90 92 96
70 72 73 72 65 60 67 90 80 70 60 59 57 66 65 59 62 77 93 80 73 88 87 94 87 58 71 76 85 92 100 96 100 96 92 97 94 96 93 96 90 89 90 97 98
67 78 73 67 66 64 86 79 70 60 60 58 63 58 57 55 61 66 73 65 70 67 67 74 93 65 62 69 82 83 78 98 97 97 93 91 97 98 98 99 99 96 94 94 91
65 80 63 62 68 81 89 78 61 50 58 59 63 59 57 60 60 65 65 62 64 65 70 71 82 74 59 60 67 75 77 80 72 89 93 95 97 98 100 99 99 95 87 78 68
74 83 57 63 82 90 80 67 60 59 58 59 56 56 56 56 61 61 65 63 59 62 69 62 77 95 68 53 57 59 64 68 87 69 89 87 96 78 84 86 83 62 57 52 52
90 89 54 66 87 88 68 59 60 63 61 57 56 53 51 53 60 59 55 49 57 59 59 61 81 88 52 46 55 68 61 66 71 76 87 85 88 59 71 79 63 61 55 49 46
84 86 86 86 88 73 81 60 54 56 60 55 55 52 53 54 54 58 61 50 57 53 56 61 74 69 76 61 66 74 65 70 71 89 86 86 80 68 71 71 66 58 49 47 48
86 84 81 90 76 73 75 67 63 63 58 58 54 65 67 59 62 65 62 62 51 58 59 60 66 70 66 70 65 59 60 72 76 71 70 69 82 72 74 71 66 55 45 45 49
85 87 88 84 78 66 72 64 60 59 63 60 62 68 64 63 64 64 66 61 62 59 61 63 65 70 70 56 58 57 54 56 60 69 74 76 72 59 63 61 61 54 49 48 49
77 71 78 77 75 72 70 68 62 64 58 59 65 71 65 59 61 61 61 65 65 62 65 64 71 80 75 66 58 51 54 53 57 63 70 81 60 65 68 67 64 62 53 47 47

GFSSW_925_rhum_120.txt.gz
RH
78 89 84 86 76 79 84 72 93 100 94 87 80 70 66 50 45 54 65 71 66 58 47 38 42 42 42 50 49 61 84 94 75 77 62 52 55 43 37 38 36 36 50 60 85
82 87 85 87 81 79 79 89 91 100 99 85 73 88 61 51 52 57 64 60 58 60 40 39 42 41 52 46 55 76 90 83 64 58 60 56 52 48 44 43 40 39 33 37 52
85 87 86 84 87 83 82 90 86 96 99 84 73 83 56 51 57 61 62 63 59 44 37 35 36 39 46 43 47 66 83 67 54 48 47 47 44 42 43 47 44 38 35 37 39
99 91 77 83 88 80 70 87 98 99 99 89 80 72 51 51 66 57 63 63 43 35 35 34 41 45 51 48 47 48 41 47 49 54 54 52 43 42 39 38 33 37 41 43 47
98 90 92 83 82 79 86 89 98 100 94 87 86 60 50 73 73 70 68 45 35 32 40 43 51 45 50 52 48 48 58 57 56 56 54 51 55 48 44 35 34 34 35 44 52
97 89 86 86 86 86 88 86 99 100 88 76 74 56 47 92 74 67 42 40 40 38 46 46 50 48 59 59 55 64 64 63 55 53 51 50 40 42 37 38 35 35 41 38 42
89 80 81 86 89 83 88 87 98 95 90 95 58 50 62 78 69 66 43 42 42 42 49 46 43 51 53 54 62 64 61 58 47 48 51 50 59 58 39 34 38 36 37 40 41
86 77 84 75 70 89 83 100 99 86 92 78 56 42 58 54 56 47 43 44 45 44 44 45 42 54 55 56 62 70 63 61 43 55 50 47 52 43 43 48 50 49 45 43 43
94 91 72 64 99 95 98 95 90 88 70 62 49 45 57 60 58 45 42 46 46 47 51 50 53 72 68 73 73 71 76 76 70 54 58 63 74 61 52 50 48 44 41 43 45
77 64 95 62 97 92 91 79 68 60 53 42 44 45 49 44 43 41 42 45 53 54 59 71 82 88 92 87 82 80 84 81 85 62 60 69 72 56 50 56 57 53 51 53 51
66 82 99 94 99 86 70 53 62 69 61 66 63 59 53 44 40 44 43 46 50 61 78 82 94 97 79 84 73 84 88 95 72 61 72 75 73 64 53 56 61 59 58 55 54
71 91 81 81 93 86 70 85 87 58 72 57 54 53 45 46 55 51 46 58 66 85 78 81 94 75 74 78 85 95 86 84 72 63 74 75 76 63 60 62 68 67 66 60 57
84 90 87 80 79 72 86 97 69 54 71 62 55 57 53 50 65 57 49 63 77 74 80 90 71 70 83 84 89 93 91 84 84 68 75 87 90 58 53 75 75 77 73 64 61
94 90 87 80 71 80 89 76 62 57 89 75 68 59 54 58 75 64 69 69 82 79 90 92 72 81 90 87 79 90 66 76 80 92 88 71 92 68 85 86 80 84 87 87 90
94 80 78 71 84 96 82 64 57 49 94 58 68 54 58 71 69 75 71 70 86 77 87 75 86 83 90 79 74 78 60 68 84 99 99 88 98 75 83 86 94 84 84 85 92
82 78 73 72 74 78 66 57 50 75 92 72 66 68 72 71 76 80 77 73 82 88 80 84 77 85 76 74 64 58 72 86 92 98 98 82 97 89 98 100 95 83 84 91 96
77 75 70 76 79 65 58 55 78 86 51 68 73 76 75 77 77 89 92 88 92 93 86 76 94 82 84 94 80 85 99 97 91 94 93 96 98 97 98 98 96 97 95 89 89
69 68 66 70 68 63 52 73 86 63 63 54 65 73 77 70 72 85 93 93 92 86 98 99 78 84 84 86 90 100 100 98 98 97 94 80 96 99 96 92 88 82 91 90 93
64 63 61 59 59 60 66 90 80 70 60 62 63 69 65 62 70 82 93 83 73 89 89 97 90 60 85 83 86 91 100 96 100 93 95 92 88 95 88 96 96 93 89 92 91
59 67 62 61 61 55 85 78 71 60 60 59 61 59 59 59 64 78 71 66 69 75 68 78 96 66 63 75 77 86 78 92 96 95 95 88 97 98 98 98 99 99 96 93 89
60 74 56 61 57 78 89 76 64 54 59 61 64 61 59 61 62 67 64 61 64 68 74 75 86 76 61 61 68 72 75 81 84 91 98 96 94 98 100 97 95 88 84 77 65
70 76 54 59 81 90 81 71 62 61 59 61 57 58 58 58 61 63 67 61 58 63 71 67 80 96 67 59 59 60 64 74 90 70 90 86 95 75 79 82 79 62 51 48 47
84 85 48 60 82 85 67 58 61 63 61 59 56 55 53 56 64 62 56 49 58 62 61 62 82 88 55 47 51 67 66 67 76 81 88 89 86 64 69 76 63 55 49 48 48
79 80 82 88 86 74 71 66 54 55 59 59 58 53 56 53 56 60 58 51 56 57 58 62 77 69 76 58 66 78 69 68 76 89 79 83 75 73 71 71 66 52 47 48 51
87 83 83 88 77 74 73 67 61 57 58 61 56 66 69 69 62 62 61 65 53 58 65 64 73 75 73 71 70 73 64 62 80 72 72 62 79 71 75 76 74 61 46 46 50
82 83 88 85 79 66 72 67 61 60 61 58 62 68 66 68 63 64 67 63 64 64 63 67 75 72 74 60 57 63 58 59 65 71 75 75 74 64 65 67 68 65 52 48 49
81 76 77 78 76 69 70 68 64 65 58 57 63 71 68 60 62 64 62 66 66 68 69 70 76 82 64 64 56 42 48 57 59 62 65 75 62 64 69 71 70 67 59 53 48